GFSSW_sfc_rhum_000.txt.gz
RH
80 80 81 81 81 80 81 82 82 82 82 84 86 87 86 88 90 76 30 26 31 66 72 74 58 51 58 39 34 40 46 49 48 46 46 54 68 57 57 66 59 61 70 72 77
80 80 80 81 81 81 81 82 82 82 83 84 86 87 86 87 90 58 40 59 70 73 22 35 31 31 34 27 33 40 45 40 36 38 50 48 58 60 64 65 70 74 74 77 79
79 80 80 80 80 81 82 82 82 83 84 85 85 86 85 91 45 16 50 60 71 59 15 17 12 14 18 21 27 39 36 34 33 34 40 47 55 51 61 74 72 82 86 83 83
79 80 81 80 80 81 81 81 82 84 85 85 85 84 87 92 20 15 72 78 74 46 18 14 12 16 21 20 17 32 29 31 30 35 40 47 50 61 59 61 57 67 74 81 86
79 80 81 81 81 81 81 82 85 84 85 84 83 83 89 44 25 15 57 77 68 39 19 14 14 19 22 21 18 19 19 29 33 33 35 40 52 60 54 59 59 66 74 79 81
79 82 84 83 81 81 83 87 87 85 84 84 81 82 80 30 16 18 35 59 42 24 18 12 13 17 20 19 16 16 28 33 36 39 41 50 56 56 59 61 68 70 75 76 76
80 80 83 84 81 81 85 88 86 85 84 83 79 81 77 22 16 26 30 38 29 18 18 14 14 17 18 21 16 27 35 33 38 41 51 42 56 59 58 62 73 74 75 75 75
84 82 80 81 82 86 90 90 87 84 87 83 81 91 44 26 29 34 27 18 17 18 14 13 15 16 17 18 24 32 37 43 37 40 46 43 60 66 57 62 73 74 74 75 77
86 86 86 86 87 89 91 90 86 84 84 82 93 85 46 34 28 28 21 17 14 15 14 10 15 16 17 19 38 34 45 45 43 37 43 51 64 64 57 62 72 74 73 73 77
85 86 87 88 89 90 89 90 85 87 86 78 70 66 33 21 23 22 22 14 14 12 13 14 16 21 24 26 49 42 44 44 46 36 44 55 64 65 58 60 66 67 66 70 71
86 87 88 88 87 89 89 73 33 39 78 39 37 36 24 20 21 22 16 15 11 10 12 13 16 20 21 17 22 29 38 34 39 35 46 56 63 68 60 59 61 62 63 65 64
87 87 88 88 88 90 95 33 37 40 27 25 23 24 20 26 23 17 14 18 18 16 16 18 16 15 15 19 21 29 31 36 33 33 41 61 59 64 62 60 58 60 61 61 59
87 87 89 84 88 81 68 34 36 43 36 23 24 23 23 23 23 20 17 16 16 17 14 16 14 14 18 22 18 24 21 24 28 40 50 54 66 67 63 59 57 56 56 56 58
86 87 85 87 49 93 54 44 43 37 41 29 26 20 26 28 29 17 16 15 13 16 12 13 10 14 19 21 21 27 18 18 30 39 49 47 58 70 57 62 56 54 55 55 55
85 87 85 85 97 83 34 66 48 36 41 20 22 17 22 21 18 20 15 16 19 13 14 15 13 15 22 18 18 18 19 21 32 40 50 64 52 50 59 66 56 50 49 49 49
85 87 86 90 89 86 72 73 39 32 42 23 24 20 24 23 18 16 16 15 15 14 14 13 11 13 12 16 16 16 16 26 38 45 54 46 47 49 75 54 47 47 46 48 48
85 88 89 74 66 70 58 30 33 41 22 20 24 21 20 20 20 18 17 17 21 24 24 18 11 13 14 16 21 17 24 31 38 54 50 51 58 36 42 44 39 44 46 47 46
85 91 92 84 92 80 39 24 52 27 25 24 21 21 20 20 20 18 17 23 20 18 24 20 16 13 13 15 18 20 21 31 32 42 45 54 60 41 28 31 40 41 41 43 46
89 97 96 85 82 70 28 29 30 35 26 26 20 27 27 20 18 21 21 19 18 15 17 23 20 14 13 13 13 21 22 20 28 50 37 44 34 25 27 31 42 40 45 45 47
96 95 84 73 71 44 33 28 22 24 20 15 28 25 28 25 20 21 24 18 13 13 14 17 21 14 11 15 16 15 18 22 32 37 48 38 37 34 33 32 37 46 44 43 45
97 50 25 78 51 41 29 24 16 15 14 12 24 29 29 25 21 24 20 17 14 14 14 16 19 15 15 15 13 22 24 28 28 33 33 34 35 31 27 32 32 42 38 39 43
96 27 33 48 53 57 40 26 28 15 16 17 22 19 20 20 21 22 21 16 14 14 16 15 16 17 15 15 14 14 18 21 20 30 39 33 27 23 26 30 42 38 37 41 46
98 93 67 46 64 58 51 38 31 33 31 32 24 18 19 23 29 22 19 15 14 17 18 17 20 18 18 17 23 19 24 27 28 34 41 31 28 28 38 41 51 48 46 48 54
88 85 74 56 61 56 44 33 34 27 31 28 29 29 29 32 29 25 27 23 22 25 53 33 20 16 16 14 17 23 23 26 22 33 34 34 24 26 35 43 51 53 50 50 52
82 94 91 89 65 76 55 42 38 37 30 31 37 36 36 41 37 31 23 23 29 46 35 17 17 18 12 14 18 17 20 26 24 24 23 20 26 24 32 39 43 48 54 54 53
95 98 96 99 86 60 69 50 44 39 37 33 41 35 39 41 36 34 34 37 39 52 41 27 20 23 14 12 15 14 16 24 24 26 25 27 26 24 36 42 43 47 52 52 54
93 87 95 85 92 73 57 58 48 46 37 30 31 44 51 46 40 38 37 37 58 48 66 48 25 29 20 20 19 25 14 18 21 25 22 26 22 27 38 38 38 43 45 44 45

GFSSW_sfc_rhum_003.txt.gz
RH
80 80 81 80 80 81 81 82 82 82 83 84 86 87 86 86 86 68 27 19 30 86 70 54 40 50 52 40 36 28 26 28 29 37 34 39 41 46 43 54 51 49 51 45 54
79 80 80 81 80 80 81 82 82 82 82 85 86 86 84 85 69 36 34 56 69 81 41 31 33 37 24 20 24 24 28 25 22 26 32 42 38 48 54 50 51 58 54 55 60
79 80 80 80 81 81 81 81 81 82 83 84 85 85 83 79 36 12 66 64 73 61 26 19 20 17 14 15 19 24 25 23 23 24 29 38 43 41 50 51 47 58 65 62 62
79 80 80 81 81 81 81 81 82 83 84 84 84 84 84 72 15 10 74 65 68 37 14 14 13 12 11 10 13 21 20 20 21 28 30 36 36 42 45 37 36 49 57 61 62
79 80 81 81 81 81 81 82 84 84 84 83 82 82 68 25 17 12 57 72 48 29 12 11 10 10 9 12 13 16 13 18 20 27 28 33 39 39 45 38 40 51 58 61 60
79 82 84 83 83 81 83 86 86 85 84 83 81 80 50 19 11 18 42 50 44 26 15 11 9 9 9 14 14 11 14 16 22 28 31 33 40 37 39 46 52 57 59 58 59
80 82 84 84 82 82 85 89 86 84 84 84 81 76 50 17 13 18 22 26 32 20 15 10 9 11 12 14 10 22 26 28 29 28 35 34 48 42 39 50 56 56 58 58 59
82 82 83 83 83 85 90 90 87 85 85 81 80 76 34 22 22 24 22 16 18 15 11 10 11 9 10 12 20 22 24 27 30 31 36 28 30 38 44 49 54 54 57 60 59
84 85 87 87 86 86 89 89 87 82 81 82 79 70 30 32 22 19 20 12 11 15 14 10 11 10 11 13 22 24 23 28 33 29 37 32 30 37 44 45 50 54 53 56 59
85 85 86 87 86 89 89 88 83 83 78 73 69 58 29 18 16 15 19 10 9 11 12 11 11 9 13 14 18 23 26 26 28 31 34 36 33 47 47 45 48 53 53 56 57
85 86 86 87 85 87 82 45 30 30 56 27 22 29 21 16 14 16 14 13 7 10 12 11 9 9 10 12 14 17 22 23 27 27 30 34 34 44 48 46 47 52 55 55 54
85 86 86 85 86 89 73 16 28 23 17 12 16 16 14 14 14 12 12 15 14 14 9 10 9 10 10 11 12 22 23 23 26 26 27 34 33 36 47 48 45 47 50 52 51
85 85 86 83 87 67 50 27 28 23 16 13 14 15 16 16 17 13 12 14 16 18 11 9 8 10 13 13 13 16 21 24 23 26 31 32 32 40 46 45 45 43 42 43 46
85 85 83 82 50 58 32 34 35 28 21 18 17 16 21 20 22 14 10 13 13 16 14 11 8 10 12 13 12 14 17 19 25 26 30 27 30 36 37 49 48 44 43 42 44
84 85 85 80 73 51 28 41 33 27 24 15 15 14 20 21 13 18 13 13 16 14 13 12 10 10 11 11 14 14 14 18 21 23 28 36 30 22 42 44 45 43 41 39 39
84 84 86 76 77 57 47 44 30 25 27 16 18 15 18 17 15 16 15 12 13 14 11 11 9 7 9 10 13 14 16 20 24 20 26 21 27 19 38 38 32 34 37 39 38
84 84 86 65 44 46 41 20 21 27 17 15 16 14 14 14 17 13 16 17 18 24 23 16 12 8 7 9 13 14 14 21 24 27 22 22 32 23 20 26 25 26 35 35 36
83 89 83 72 62 54 32 15 27 18 14 15 16 14 13 14 16 14 17 15 16 17 18 22 18 12 8 8 12 15 12 18 30 24 19 34 30 20 20 18 24 26 27 31 33
86 69 69 57 67 56 20 11 13 18 18 19 15 15 13 14 14 15 16 14 14 15 20 20 19 10 9 10 10 16 18 10 16 22 19 19 27 20 19 21 22 24 28 32 33
79 77 52 53 61 40 18 15 10 16 17 11 16 16 17 17 13 15 16 14 15 14 14 17 19 9 7 7 10 11 11 15 17 29 29 20 24 16 21 20 21 28 28 29 33
79 38 35 58 43 30 21 13 9 9 14 10 12 15 18 14 14 14 14 13 12 13 14 14 14 10 10 10 9 11 13 17 14 17 21 22 17 20 24 26 21 23 26 27 34
80 20 33 42 40 32 24 19 27 10 8 9 12 14 14 13 13 14 14 14 12 11 14 14 15 18 11 10 8 8 12 14 16 28 19 17 14 13 19 17 19 19 22 26 35
73 69 42 40 34 33 36 28 23 18 17 17 13 14 14 15 19 17 15 11 12 12 17 16 16 21 18 12 10 12 10 11 12 14 27 18 15 17 20 24 23 27 26 35 39
73 61 45 44 42 41 47 34 28 22 23 22 19 20 24 25 24 24 19 16 18 14 50 29 21 22 18 18 11 13 12 12 13 15 16 18 14 16 18 26 24 28 34 35 40
69 66 80 69 51 63 47 35 30 28 24 24 29 25 25 30 25 24 21 18 14 27 28 24 29 23 17 14 12 10 9 12 17 15 18 13 18 15 21 25 25 26 35 39 41
77 84 76 81 73 65 53 37 39 39 38 25 29 21 24 37 31 30 23 22 27 29 30 23 31 22 20 15 12 12 10 10 13 11 15 14 19 14 17 23 27 30 39 40 40
69 63 78 63 63 59 50 45 40 41 34 33 31 33 32 27 30 30 28 28 33 40 44 45 34 37 27 14 13 17 12 12 15 15 14 18 16 17 19 25 27 27 36 39 39

GFSSW_sfc_rhum_006.txt.gz
RH
78 78 79 80 80 81 81 81 81 81 81 82 84 87 89 88 83 50 20 19 21 81 76 26 25 25 23 19 19 19 18 17 18 21 22 21 25 27 26 34 35 32 30 33 36
78 78 79 79 80 80 81 81 81 81 81 83 84 85 87 87 33 15 29 52 66 84 24 23 20 24 16 11 13 16 17 16 14 16 20 23 22 29 33 34 34 38 32 33 37
77 78 79 79 79 80 80 81 80 81 82 83 83 84 87 73 23 7 63 67 75 74 12 13 10 15 9 6 9 12 17 15 15 14 16 22 24 24 26 32 29 37 38 38 39
77 78 80 80 80 80 81 81 82 83 83 83 82 82 83 44 10 9 65 70 77 34 13 12 9 10 7 8 7 12 10 11 13 16 16 21 20 27 25 23 23 27 34 38 41
77 79 80 81 81 81 81 84 85 84 83 82 82 80 50 20 10 14 54 58 25 24 11 10 7 8 7 7 7 10 9 8 9 14 14 18 22 23 26 25 24 29 36 38 38
79 81 83 83 82 82 82 86 86 84 82 82 79 80 37 14 7 13 20 25 16 15 9 7 6 5 6 7 8 8 8 9 8 12 16 21 23 25 24 22 29 34 37 35 36
81 81 82 82 81 82 84 85 84 83 83 81 79 55 32 11 8 9 12 13 15 12 9 7 5 5 6 8 7 8 12 16 15 15 20 19 29 29 24 27 34 35 36 36 36
81 80 80 80 81 84 87 88 86 84 82 84 79 47 20 11 13 14 12 12 13 14 10 8 6 6 5 7 9 10 11 14 17 19 22 21 22 25 26 29 35 34 36 37 37
82 82 84 84 86 87 88 89 84 80 79 79 57 42 15 28 16 12 12 10 10 11 10 7 7 8 7 10 11 11 14 13 22 20 25 24 20 23 25 26 31 34 34 36 39
84 84 85 84 86 86 86 88 77 81 67 54 47 42 19 11 13 11 13 8 10 12 11 9 9 8 8 8 13 14 14 12 16 22 23 24 20 26 26 25 27 33 33 35 35
85 85 84 84 85 86 67 21 29 32 41 17 11 15 9 9 11 10 11 8 8 10 9 8 8 8 8 9 9 10 12 14 13 18 22 20 20 22 29 27 27 30 34 33 32
84 84 85 84 84 84 52 10 16 16 12 7 6 8 7 8 11 8 9 12 10 11 8 7 8 6 6 8 9 10 12 13 12 18 20 18 20 20 22 30 26 27 30 33 31
84 84 84 86 83 56 20 16 16 12 12 7 7 7 8 8 11 10 9 11 11 10 8 8 5 5 6 7 10 11 12 13 15 20 18 17 22 20 18 24 27 24 25 28 31
84 84 84 87 46 23 17 18 17 16 12 9 11 11 13 11 13 9 7 9 10 10 8 6 4 5 7 9 9 12 9 10 13 18 22 19 21 18 16 24 27 28 26 24 29
84 83 84 88 40 22 17 14 15 17 17 10 11 10 12 14 11 12 7 8 10 10 9 9 6 7 7 7 7 11 8 10 12 16 18 20 22 17 18 19 22 24 25 23 23
84 83 82 38 37 26 19 19 21 20 19 10 11 12 13 12 11 13 10 8 8 9 10 9 6 5 6 5 6 8 10 11 12 13 20 18 18 16 14 19 15 17 21 24 22
84 81 75 40 18 18 20 12 15 15 11 10 10 10 9 8 10 11 13 12 12 17 16 10 8 5 4 7 6 8 12 19 21 18 19 16 18 17 11 10 12 10 14 21 22
83 83 52 34 29 28 21 10 18 10 10 10 10 10 11 9 9 10 12 11 10 11 11 14 12 8 6 6 9 10 11 15 27 18 16 16 20 14 11 10 9 9 12 17 21
84 27 24 26 34 30 18 10 11 10 8 7 7 11 10 9 9 11 11 10 8 9 14 13 13 6 6 6 6 10 12 9 12 12 13 11 15 12 10 12 11 11 14 16 20
51 34 23 25 39 33 18 15 8 5 7 9 11 9 10 8 10 10 10 9 9 8 10 12 16 9 7 6 6 7 8 13 12 25 24 15 16 15 15 12 10 11 14 16 19
42 27 26 37 40 33 20 11 8 4 6 9 9 9 10 10 11 10 10 9 9 9 11 11 14 11 9 9 8 8 9 12 11 13 18 19 15 11 14 13 12 8 13 13 17
38 24 28 34 36 20 19 12 19 7 5 5 7 7 9 10 12 12 11 10 8 9 13 12 13 16 9 6 5 6 9 11 14 24 14 14 12 7 9 10 9 8 8 8 15
43 27 17 28 25 17 17 14 12 12 8 6 6 7 7 10 14 11 9 7 7 10 13 12 16 20 16 7 7 7 7 9 10 12 22 17 14 8 9 10 10 14 13 13 20
42 26 18 32 21 29 28 31 23 13 12 8 9 8 8 10 10 13 12 8 9 8 52 25 12 19 15 16 9 11 8 7 8 12 15 13 14 11 10 11 10 10 14 16 25
40 28 43 27 31 47 45 38 31 21 16 14 15 14 12 15 14 14 13 12 13 27 21 21 27 17 13 10 9 9 8 8 9 10 14 12 12 12 12 11 10 8 10 16 26
60 49 50 46 41 38 37 36 33 24 24 24 22 14 13 17 16 16 13 15 13 13 15 17 29 22 19 12 11 11 10 8 7 8 8 9 10 8 9 10 10 9 9 16 26
49 44 56 46 35 37 29 30 31 36 29 22 25 27 26 20 19 18 17 19 18 19 21 24 25 31 27 15 15 18 13 10 9 7 8 10 10 8 9 10 11 11 14 17 23

GFSSW_sfc_rhum_009.txt.gz
RH
77 78 79 79 79 79 80 81 81 81 82 83 84 86 88 89 84 45 19 19 22 75 80 19 19 13 14 14 12 10 26 17 16 28 15 13 14 16 17 22 22 23 27 30 31
77 78 79 79 79 80 81 81 81 81 81 83 85 85 87 88 30 12 28 60 74 75 20 14 14 12 13 12 11 13 55 19 11 22 14 14 14 16 19 23 24 26 25 30 32
77 78 79 80 79 80 81 82 82 82 82 82 83 84 86 71 18 8 60 63 77 63 10 10 9 11 13 9 8 10 26 16 11 11 14 13 14 14 18 22 23 28 30 32 33
77 78 79 79 79 80 80 82 83 83 82 82 82 82 82 33 12 11 63 67 76 22 14 9 10 10 12 9 7 10 10 10 10 11 13 14 13 15 15 16 17 22 26 30 34
78 79 80 79 79 80 81 83 84 83 82 81 81 81 49 16 9 17 66 59 26 16 14 9 9 9 10 7 7 8 9 8 8 9 10 13 15 15 15 14 16 21 26 29 31
78 81 83 82 80 79 82 85 85 83 82 81 80 82 35 15 5 9 10 15 11 13 9 8 8 6 7 7 7 7 7 7 8 7 10 13 14 16 15 15 19 24 26 26 28
80 80 82 82 78 78 83 86 83 83 83 83 80 52 20 12 5 6 10 10 9 9 9 6 6 5 6 7 6 7 9 9 9 8 11 12 15 16 15 18 21 24 26 26 27
80 81 82 81 78 82 85 86 84 84 82 82 81 38 18 6 7 6 6 7 7 8 7 5 4 5 6 6 7 8 8 11 10 9 10 13 19 17 15 18 20 22 25 26 26
82 83 83 84 83 84 85 84 83 84 77 78 51 31 14 23 11 8 7 9 8 7 8 6 6 6 6 7 8 9 11 11 13 10 13 14 28 16 16 16 19 21 23 25 27
83 84 83 84 83 84 84 87 64 80 67 42 32 29 16 10 8 8 8 7 7 8 9 9 7 7 7 8 12 13 11 10 16 11 14 15 23 17 18 17 17 20 21 24 25
83 84 84 83 83 83 62 16 24 37 30 16 13 11 9 7 9 8 8 8 6 9 10 7 7 7 8 8 8 9 10 10 10 10 14 16 16 17 18 18 17 19 20 22 24
84 84 84 83 82 81 54 11 11 10 11 6 6 6 6 5 7 8 8 8 8 10 9 7 7 5 6 7 8 9 10 11 10 12 12 14 16 15 19 19 19 18 19 20 21
84 84 84 84 77 54 10 12 9 8 10 6 5 5 5 4 6 6 6 9 8 8 8 6 5 5 6 8 9 9 10 10 10 15 14 14 18 16 14 18 19 17 17 18 19
84 84 83 84 42 14 12 11 9 9 13 7 6 5 5 6 6 4 5 6 9 9 7 6 4 4 5 7 8 10 8 8 9 17 20 12 19 18 14 15 19 18 18 17 18
85 84 83 83 35 19 10 8 8 11 16 7 7 6 7 8 8 8 6 6 10 8 7 7 5 5 6 6 6 9 7 9 9 12 22 13 15 19 13 15 16 17 18 16 16
84 83 82 32 25 19 12 10 11 16 18 8 8 10 11 9 7 8 8 6 7 8 7 7 4 4 4 4 6 6 8 9 9 10 15 15 17 16 19 14 13 13 16 18 17
85 83 70 38 18 10 10 11 13 15 8 8 8 7 8 8 8 9 9 9 10 13 12 9 7 5 4 5 5 7 9 14 16 14 14 11 15 25 12 11 11 10 11 14 17
86 78 46 22 19 18 16 12 19 10 9 5 6 7 8 6 7 8 10 9 8 8 8 11 11 7 5 5 6 7 8 12 24 16 13 11 15 12 10 8 8 8 8 9 15
83 24 18 14 15 17 17 14 13 11 7 6 6 8 8 6 6 7 10 9 8 7 11 10 11 6 5 4 4 7 9 7 10 11 12 11 11 9 10 10 9 8 8 8 12
50 34 18 13 20 22 21 20 10 7 5 6 9 7 10 8 8 8 9 8 7 6 6 9 13 7 5 4 4 5 5 9 10 22 21 12 13 12 14 12 10 10 9 8 10
46 22 15 16 24 30 23 16 12 8 6 6 8 9 7 7 7 8 9 6 6 7 7 7 10 10 8 8 7 6 6 8 8 11 16 16 13 9 14 13 12 10 8 8 10
32 29 16 20 34 26 26 19 21 9 7 6 6 8 9 8 8 8 8 7 5 6 8 8 9 14 10 7 6 5 7 6 11 21 12 13 11 8 8 9 9 9 9 8 9
38 28 16 13 23 20 20 16 14 14 12 9 7 6 7 9 12 9 8 6 6 7 10 8 12 15 15 9 7 8 7 6 6 9 20 15 13 7 8 8 9 9 9 10 9
46 31 17 16 17 18 18 18 17 12 12 10 10 8 7 9 8 10 9 7 6 7 45 21 11 17 14 16 9 10 8 6 6 8 12 11 13 11 10 10 10 10 9 10 11
51 34 24 34 24 34 43 54 35 43 24 16 15 12 10 11 10 10 9 8 7 16 13 11 19 14 12 10 10 8 6 6 7 8 11 10 11 11 12 10 10 8 9 10 10
71 53 41 36 34 37 42 34 28 28 32 37 28 15 12 14 11 11 9 11 12 8 12 11 20 18 16 10 9 10 8 7 6 6 7 8 9 7 8 10 10 9 10 10 10
68 70 56 47 32 30 27 36 31 20 31 39 44 49 32 18 20 18 13 8 10 14 16 17 18 25 25 15 14 16 11 9 9 8 7 9 9 7 9 10 11 10 10 11 10

GFSSW_sfc_rhum_012.txt.gz
RH
77 78 79 80 80 80 80 81 82 81 81 82 83 85 88 89 85 41 26 20 22 80 78 15 23 18 14 13 13 13 23 29 20 17 14 13 14 15 18 22 27 29 30 32 30
77 78 78 78 78 79 80 82 81 81 81 83 84 84 87 88 38 17 19 50 65 75 12 10 12 15 13 12 12 19 39 26 29 17 15 12 14 14 18 22 23 30 27 28 30
76 78 78 78 76 76 77 79 80 80 81 82 82 84 86 74 22 10 63 68 72 57 7 7 8 10 12 12 11 22 38 20 17 16 16 13 13 13 18 22 22 34 33 30 32
78 79 79 78 76 75 75 77 79 81 82 82 82 82 84 39 14 10 69 69 76 20 10 8 8 11 12 14 10 10 15 14 13 13 15 12 12 14 16 18 19 26 30 31 31
78 80 82 80 78 78 79 81 82 82 81 81 81 81 44 16 14 9 69 59 24 14 11 11 9 11 12 11 9 8 12 9 8 9 11 13 14 14 14 15 17 22 30 33 30
76 80 82 83 82 80 80 83 84 82 80 81 81 83 39 15 7 14 10 16 10 11 9 10 8 8 10 10 9 7 7 8 7 7 9 15 14 14 13 14 18 23 28 31 30
80 81 82 82 80 80 83 83 83 80 80 82 82 58 21 10 6 6 7 9 8 10 8 8 7 8 8 9 7 7 8 8 8 8 9 10 16 15 14 14 19 22 26 28 29
82 82 83 83 83 82 83 82 82 79 81 84 79 43 19 5 5 7 6 8 7 7 8 6 6 6 8 7 7 8 8 11 8 9 9 11 23 13 15 15 18 22 24 27 28
82 83 84 84 83 82 82 82 79 78 82 76 62 39 19 17 9 7 6 6 6 6 7 6 6 6 6 8 9 8 11 10 10 9 10 12 24 23 14 16 18 21 23 24 28
82 84 84 84 83 82 82 80 62 74 70 43 33 29 20 11 8 6 6 6 6 8 7 8 8 8 7 8 12 11 10 10 11 12 10 27 45 36 23 18 18 19 21 24 25
83 84 84 83 81 82 64 27 22 29 36 24 18 13 7 10 6 8 7 8 8 8 10 10 10 11 9 8 9 9 10 10 10 12 12 32 55 62 32 25 16 19 20 22 24
83 84 85 83 81 75 55 19 10 9 11 7 8 12 11 7 9 9 6 10 9 10 10 9 11 7 6 8 9 9 10 11 10 13 13 17 42 40 31 22 16 18 18 19 20
83 83 84 83 77 51 15 10 8 7 11 8 6 6 6 9 10 7 7 10 8 9 10 10 7 5 5 7 9 10 10 11 10 11 11 12 16 25 19 16 16 15 16 16 20
82 83 84 85 42 21 15 9 6 6 14 9 5 5 4 4 6 4 4 8 10 9 7 8 6 5 5 6 8 11 8 8 9 14 19 14 23 32 24 20 18 16 16 16 18
83 84 84 83 43 28 13 8 8 9 19 6 5 4 4 5 5 5 4 5 8 9 8 8 7 6 6 5 6 9 8 8 9 14 17 20 21 22 21 22 20 17 17 16 17
85 84 84 38 30 24 15 10 10 16 20 8 7 7 6 5 5 6 5 4 5 7 8 8 5 5 4 4 4 6 8 8 9 10 17 18 20 20 20 22 18 17 16 17 17
86 86 76 44 29 12 14 11 15 17 9 8 7 8 8 8 7 8 8 8 10 12 13 9 8 5 4 5 4 5 8 14 16 15 16 13 20 23 17 17 15 34 30 17 17
86 82 55 30 23 23 19 17 24 13 11 7 6 6 9 9 8 8 10 10 8 8 10 12 12 7 5 5 6 6 7 13 25 18 14 12 15 15 16 15 16 27 38 15 17
85 34 28 18 14 17 21 19 18 15 9 8 7 7 8 7 7 7 8 9 7 7 12 10 11 6 6 5 4 6 8 6 10 11 13 11 11 8 10 17 16 12 10 12 16
54 42 31 17 13 16 25 31 15 10 8 8 10 8 9 8 8 8 8 8 8 6 6 9 12 7 6 5 5 5 5 8 9 22 23 14 17 15 15 18 15 16 12 10 9
52 32 16 11 13 25 32 24 19 14 12 13 12 10 8 8 8 8 8 6 6 7 6 7 10 9 8 9 8 6 7 7 7 10 16 20 15 12 18 19 19 16 12 10 10
37 36 13 15 27 28 32 26 28 18 14 12 11 10 10 8 9 8 8 7 5 6 8 7 8 13 9 7 6 6 7 7 10 20 12 13 13 8 14 12 12 12 11 11 12
46 34 18 15 28 23 19 18 19 20 19 18 16 12 9 9 14 10 8 5 5 6 8 8 11 16 12 8 8 7 6 6 6 8 18 16 13 8 16 16 16 13 12 14 15
58 39 22 16 18 20 21 20 18 13 17 17 18 18 16 13 10 13 10 7 5 5 42 17 10 17 13 15 10 12 8 8 7 9 12 10 14 12 16 17 14 17 17 14 19
62 47 29 35 28 31 54 55 45 40 25 24 32 31 30 27 14 11 9 8 7 15 12 10 19 14 10 9 9 9 8 8 10 11 13 10 10 12 13 16 14 13 16 15 18
95 67 50 44 34 31 32 44 36 34 32 38 37 43 43 44 47 45 20 12 12 9 10 9 21 17 16 10 10 11 10 8 7 8 9 9 10 7 8 11 13 16 13 17 17
66 73 92 66 40 33 25 25 33 40 37 39 37 62 55 49 45 34 25 21 16 13 15 17 15 24 23 13 13 15 12 11 9 6 7 10 11 10 10 12 15 21 16 17 17

GFSSW_sfc_rhum_015.txt.gz
RH
77 78 78 77 76 75 76 77 79 80 80 80 82 85 88 89 88 50 36 24 32 72 80 17 31 26 26 29 37 31 46 71 47 31 19 21 33 30 31 40 41 37 43 44 42
77 78 79 78 75 75 76 76 76 77 78 80 82 83 87 88 62 27 26 48 53 77 22 16 12 23 26 24 20 28 41 41 29 24 19 18 30 33 36 41 43 40 38 42 42
76 76 76 76 74 75 76 77 76 77 77 80 82 82 86 84 47 13 63 47 47 62 16 10 8 10 16 18 15 27 33 24 22 21 20 17 17 21 34 44 41 46 47 48 48
74 75 76 76 76 77 77 78 79 78 78 79 81 82 86 72 18 14 66 68 66 43 19 12 10 12 14 17 14 29 19 18 21 19 19 17 17 22 23 32 32 36 39 48 50
77 79 79 79 79 80 79 81 82 82 78 79 79 82 73 42 26 13 70 69 40 25 17 14 12 13 14 15 14 16 17 17 20 20 18 16 17 21 23 31 31 32 35 47 51
80 82 83 83 82 82 82 82 82 81 78 77 79 82 79 30 8 7 26 31 20 19 14 13 13 11 13 14 15 12 12 14 13 22 17 19 21 19 25 31 34 35 37 40 50
82 82 83 83 81 80 83 83 83 79 76 77 80 69 48 20 7 13 14 20 17 13 14 11 11 13 12 14 11 11 12 10 10 11 19 23 31 36 22 26 36 38 38 37 38
83 83 83 83 84 83 83 83 82 77 76 77 80 64 54 12 11 10 8 8 12 11 12 11 10 12 13 11 11 12 12 16 11 10 11 24 43 27 20 28 36 37 38 38 40
84 83 83 83 83 82 82 82 80 73 74 79 88 80 47 22 17 11 8 9 10 10 11 8 10 12 11 13 17 15 16 15 12 9 14 27 43 21 18 27 31 34 36 37 39
84 83 82 82 81 81 83 77 66 72 77 60 45 58 37 19 12 10 9 8 9 9 10 12 15 15 13 14 20 18 16 13 13 13 14 27 37 32 23 23 28 32 32 34 36
83 82 83 82 81 82 75 59 36 47 52 43 38 24 12 10 10 10 8 9 9 10 14 14 18 17 14 10 11 12 13 13 11 13 32 37 36 35 22 30 31 31 31 33 33
84 83 84 84 83 77 77 49 21 12 17 10 9 13 18 18 18 10 8 12 12 15 15 14 16 14 11 10 9 10 13 13 11 13 29 36 34 27 22 20 30 27 30 30 32
85 83 84 85 78 64 30 23 14 10 16 11 9 9 8 9 16 15 11 12 14 15 14 14 15 11 10 11 11 11 13 13 14 15 25 33 44 43 28 27 28 26 25 28 30
86 84 84 88 52 41 32 18 14 10 24 14 9 8 7 7 10 9 10 11 14 14 12 12 11 10 11 10 9 14 10 11 11 13 30 26 45 55 43 46 38 32 22 25 27
86 85 85 86 71 55 27 22 17 16 34 10 8 5 6 8 8 10 10 9 14 14 12 12 12 12 11 8 6 10 10 11 11 14 25 20 28 41 43 50 43 32 21 21 23
87 85 84 60 50 43 30 22 21 29 31 12 7 7 7 7 6 6 10 8 8 13 12 12 9 8 9 8 6 6 9 11 12 14 21 23 25 34 50 47 46 29 21 20 21
88 86 81 60 56 22 36 30 31 29 13 12 10 8 7 8 7 6 7 9 10 12 14 11 11 10 7 9 7 6 11 16 21 21 25 22 24 27 21 25 24 24 30 26 29
90 85 66 42 41 44 44 34 36 20 16 11 11 10 11 9 7 7 9 9 8 10 14 15 15 11 9 8 10 7 8 13 29 26 22 19 20 24 16 20 18 21 28 28 25
88 50 44 34 28 35 39 45 29 21 15 14 14 13 12 10 11 9 10 10 8 8 14 14 15 11 9 8 7 10 9 7 15 19 24 19 17 14 17 20 19 20 24 24 20
78 61 50 33 26 29 41 47 28 17 18 22 27 18 21 16 14 13 10 10 10 8 9 14 22 12 9 8 8 7 9 11 9 17 22 17 21 24 29 22 26 27 23 24 23
75 52 27 18 18 33 42 38 29 22 21 23 24 24 21 19 16 15 12 10 8 10 9 10 13 13 12 11 10 10 8 10 11 12 18 25 19 18 22 24 26 22 20 22 21
56 61 24 24 38 32 33 29 37 27 24 26 25 26 26 23 22 18 15 11 8 8 11 9 12 15 12 10 8 8 12 10 14 23 22 15 15 13 11 23 20 19 18 17 20
68 55 32 28 41 35 29 25 23 22 20 19 23 23 23 27 31 22 18 12 8 8 10 11 11 18 17 13 9 10 9 11 8 17 19 29 18 8 8 15 20 21 26 21 22
82 63 35 34 29 31 32 45 53 38 40 30 31 32 38 39 36 33 28 18 11 8 39 30 14 12 17 18 16 19 10 9 10 11 11 11 10 9 17 21 16 16 23 16 25
94 68 45 65 61 57 45 64 53 45 37 40 38 49 58 62 63 49 43 46 32 23 17 19 15 14 13 12 11 10 12 9 10 10 14 13 11 11 14 24 24 22 23 18 21
97 78 62 68 59 52 50 36 39 32 37 49 52 65 66 70 78 84 64 61 56 37 37 29 29 26 22 15 10 11 11 12 9 9 10 11 11 14 16 19 27 24 18 16 15
90 77 97 89 64 62 59 42 51 50 50 54 50 53 61 53 67 66 56 49 49 50 46 36 33 36 26 20 20 20 12 12 14 11 12 14 10 13 13 14 20 22 20 18 17

GFSSW_sfc_rhum_018.txt.gz
RH
76 76 76 76 75 75 76 77 77 77 76 76 79 82 87 89 88 70 40 25 38 84 77 57 56 44 49 58 55 49 54 66 53 43 43 39 46 41 39 48 49 45 56 55 50
75 75 76 76 76 76 77 76 77 76 76 77 79 81 85 88 80 47 29 52 58 73 30 44 48 37 49 49 50 50 57 39 39 37 33 38 39 45 48 50 50 56 50 48 49
76 76 76 77 76 76 77 76 76 77 77 77 79 80 84 87 53 19 66 57 58 67 22 20 16 27 39 34 30 38 43 29 21 29 29 37 41 41 50 55 55 61 58 53 53
76 76 76 76 77 78 78 77 78 78 78 78 78 80 86 87 12 13 73 77 58 39 26 21 16 16 16 15 14 28 26 24 24 22 26 36 39 44 46 45 43 49 51 52 54
77 78 79 78 78 79 79 81 82 80 78 77 77 79 82 55 33 11 59 65 49 36 28 21 17 15 16 15 16 22 21 21 20 21 21 22 33 43 42 38 40 46 48 53 54
82 83 83 82 82 81 82 83 83 82 77 75 75 78 83 21 8 9 14 34 26 24 24 19 16 15 15 15 17 17 16 15 19 22 20 21 24 28 37 38 47 49 53 52 52
82 82 82 82 82 82 82 82 83 80 76 76 74 74 73 16 10 12 20 31 26 23 21 17 14 17 17 16 14 15 17 14 15 19 23 22 33 41 38 39 51 54 53 52 51
82 82 83 83 82 82 83 84 83 79 76 75 75 82 67 22 17 13 11 11 11 21 17 15 14 16 18 15 13 15 19 19 13 15 25 24 39 37 38 41 45 53 52 51 52
83 84 83 83 82 82 83 83 80 73 70 79 94 91 56 33 32 20 12 10 10 13 15 11 14 15 17 17 19 20 21 18 14 16 25 33 42 31 38 41 44 43 50 51 55
84 84 84 83 82 82 82 80 76 77 72 68 59 63 34 17 22 14 13 9 12 15 15 16 19 20 21 21 24 22 20 17 16 15 27 36 40 28 40 43 44 44 42 42 47
85 85 85 84 82 82 81 86 34 33 66 52 50 38 20 16 17 14 12 12 13 15 18 16 22 23 21 17 14 16 17 17 14 14 33 31 32 28 36 43 46 47 45 43 40
86 86 86 85 84 79 89 49 43 27 29 15 17 21 23 21 23 20 12 15 16 17 16 19 20 18 16 14 13 12 14 15 13 13 30 38 31 28 32 36 40 43 44 44 42
86 86 86 86 82 64 51 34 26 26 24 15 12 12 12 13 20 19 16 13 14 17 18 18 17 14 15 15 15 12 13 12 15 14 36 34 39 35 29 29 32 35 36 38 40
86 86 87 88 59 69 51 33 31 27 29 20 14 11 10 10 14 10 16 12 17 15 16 20 14 14 14 16 15 20 11 10 12 19 23 34 49 46 41 44 33 33 33 35 36
87 87 86 86 96 84 40 37 34 25 35 14 12 8 10 10 10 10 9 16 17 17 18 19 15 14 16 15 14 14 12 12 13 17 25 24 45 44 42 44 39 36 31 32 32
89 88 86 81 83 64 47 47 38 26 35 17 10 10 12 11 9 9 11 16 15 17 16 16 11 13 12 12 12 10 11 12 19 18 28 21 33 42 57 35 32 28 30 28 30
90 87 87 66 84 52 56 47 31 38 17 17 17 14 12 11 9 10 14 19 21 20 23 20 16 13 10 14 12 11 13 18 20 22 26 20 35 32 30 31 25 24 31 28 27
89 89 79 54 79 70 58 36 45 24 21 18 22 17 16 12 10 8 12 20 19 15 18 20 22 13 12 13 14 14 11 16 23 29 25 22 33 23 26 27 26 22 28 26 24
89 83 68 60 44 57 65 68 39 27 24 27 26 24 22 18 21 13 10 10 12 14 14 20 17 13 9 10 12 15 13 9 17 40 28 27 21 18 22 26 27 28 29 25 23
96 98 79 51 45 56 70 70 42 29 27 28 38 28 39 32 27 28 23 12 9 9 9 13 21 13 8 10 9 12 11 18 18 17 17 22 24 24 21 25 26 29 28 25 22
99 90 52 33 34 60 72 62 38 27 25 34 38 40 36 36 33 34 27 15 12 9 8 9 17 14 16 14 15 16 13 22 12 16 15 25 15 16 18 22 30 26 24 24 23
96 96 47 36 60 58 60 47 42 32 26 29 31 32 32 29 33 33 32 22 18 17 24 12 11 14 14 12 11 11 13 12 14 18 21 11 12 15 15 16 28 24 26 24 23
99 95 54 49 74 69 53 47 47 45 45 46 42 40 45 47 56 45 44 31 40 35 30 35 19 19 20 16 18 15 12 10 16 18 14 24 17 12 12 20 28 29 25 25 24
99 98 69 62 64 71 77 61 55 40 36 39 43 48 62 65 56 68 55 47 49 42 54 42 38 21 18 15 14 17 13 12 10 13 13 13 16 12 14 19 21 25 24 26 28
98 95 80 93 84 73 60 64 67 62 52 45 52 51 76 91 74 62 63 64 49 44 47 52 53 23 18 14 11 14 14 12 13 10 12 11 13 12 12 12 13 15 26 20 20
98 93 86 87 91 80 68 58 83 54 58 67 66 53 64 85 67 73 74 71 73 57 60 60 57 42 33 18 11 12 12 12 13 11 11 12 13 11 10 14 18 22 17 25 19
94 84 97 87 90 90 81 60 59 47 61 61 50 60 61 48 49 58 56 58 62 68 66 72 59 50 49 21 13 18 12 12 13 12 12 14 12 14 14 16 17 16 27 24 20

GFSSW_sfc_rhum_021.txt.gz
RH
77 77 76 77 77 77 77 77 77 76 76 77 78 80 83 87 87 77 36 27 38 86 85 82 67 66 67 74 64 67 67 70 53 50 53 48 55 48 46 57 50 52 61 60 62
76 76 76 76 76 77 77 78 78 78 77 78 79 80 82 86 87 62 35 54 63 83 75 82 74 66 74 70 69 69 72 53 40 39 48 45 50 49 56 59 60 59 56 60 60
76 76 76 76 76 76 77 77 78 78 78 78 79 79 82 87 54 13 60 56 68 79 46 49 48 53 59 48 64 58 64 38 30 30 40 46 48 46 58 65 63 67 66 62 61
76 77 77 77 76 76 77 77 77 79 79 78 78 78 83 92 11 12 79 74 68 52 26 25 23 35 42 52 40 38 43 38 28 28 38 45 44 50 52 52 51 54 58 60 62
77 78 79 78 77 77 77 78 79 79 78 78 76 77 86 59 25 9 68 66 60 35 26 23 22 22 18 18 19 37 30 22 28 24 34 38 48 48 50 47 48 52 55 60 61
81 83 83 83 83 80 80 81 82 79 78 77 76 75 82 15 8 14 15 42 40 36 32 24 20 17 18 16 17 19 18 18 20 25 24 42 46 47 47 47 54 56 59 59 60
83 84 84 84 84 83 82 82 82 80 79 78 76 77 85 14 9 14 21 30 34 29 27 23 18 15 16 18 14 17 20 17 16 19 30 36 48 51 44 48 57 58 58 58 57
84 84 84 84 84 84 82 82 83 80 79 76 77 84 49 26 23 14 11 12 23 27 20 20 18 19 21 19 17 18 21 22 16 17 26 30 45 45 44 52 60 58 57 58 57
86 85 85 85 84 84 83 83 80 76 76 78 88 90 42 34 38 26 15 12 13 17 22 15 18 21 21 23 24 22 25 21 18 14 30 29 40 48 45 54 60 58 58 58 59
86 86 86 85 85 85 82 84 77 81 78 70 63 69 40 18 30 20 18 11 12 13 20 19 22 24 26 24 29 25 23 21 20 21 31 40 45 49 47 56 59 58 59 59 59
87 87 86 85 85 81 87 76 36 41 65 52 56 40 22 18 19 20 14 13 16 19 25 22 28 31 25 21 19 19 20 19 17 18 34 32 41 51 48 50 59 61 60 59 56
87 87 87 86 84 84 77 38 37 39 47 26 25 22 21 23 20 16 13 14 18 21 20 24 24 22 20 19 18 17 18 17 16 14 25 30 36 42 49 49 49 54 58 57 55
87 86 87 88 84 68 66 45 38 45 41 21 18 17 16 19 24 19 18 16 19 21 19 21 19 17 18 20 18 20 18 16 16 20 30 41 48 41 49 46 46 45 45 48 50
87 86 86 88 58 82 51 44 44 45 33 21 17 13 14 20 27 15 18 14 18 18 19 21 14 16 18 19 19 26 16 13 15 19 22 38 57 54 45 55 50 48 47 46 44
86 85 84 86 94 91 40 47 48 32 44 19 15 10 13 13 13 16 16 18 20 18 19 21 19 16 19 16 18 19 15 15 17 19 26 28 44 43 43 47 46 44 44 44 43
86 85 85 86 96 77 59 60 43 27 38 18 13 13 15 14 10 13 14 19 17 19 21 17 16 14 17 15 14 16 19 16 21 24 31 17 28 28 56 38 38 35 37 39 40
87 85 86 73 84 66 65 48 32 38 20 21 25 23 22 14 12 13 14 19 23 28 26 22 17 15 14 18 19 18 20 27 25 27 23 18 31 18 34 31 30 33 32 34 34
86 88 80 58 76 82 70 41 45 26 25 26 28 26 22 25 16 19 18 20 19 21 28 27 30 19 15 16 19 20 19 31 28 30 23 23 30 24 19 26 26 25 27 29 31
88 80 96 74 53 70 68 60 39 33 30 32 30 32 36 33 29 29 27 18 18 17 21 27 25 16 15 14 13 18 19 15 20 51 27 27 24 21 20 23 29 28 26 29 30
98 100 95 64 51 67 76 74 54 34 30 34 43 40 49 41 37 39 35 22 21 21 18 18 22 16 13 14 15 15 14 21 23 24 24 22 24 23 25 18 30 36 33 31 29
96 96 60 46 54 73 92 80 48 34 30 35 40 42 45 43 38 42 38 34 37 37 27 24 19 18 14 17 16 19 18 20 17 19 18 22 16 14 19 24 28 34 32 28 30
97 95 49 53 63 75 80 67 54 40 39 43 40 41 45 45 50 39 38 36 41 41 51 42 29 19 18 16 10 13 14 18 20 21 24 15 14 16 13 14 23 27 26 29 28
99 99 71 56 90 83 72 53 45 48 48 48 48 46 56 56 54 59 55 42 46 48 64 59 56 29 21 18 19 17 18 13 16 20 17 20 18 14 14 17 24 24 30 30 29
98 96 86 75 79 85 83 68 70 50 48 51 47 58 70 74 62 66 58 50 43 41 55 52 62 46 30 23 21 19 16 15 14 19 16 15 16 16 16 15 18 34 33 36 35
97 95 91 97 91 96 74 72 73 73 60 53 61 64 79 91 85 75 62 65 48 54 54 65 79 52 43 35 28 17 16 13 16 14 16 13 14 11 15 16 15 16 26 30 34
97 96 83 88 80 74 80 71 75 58 57 61 91 70 61 85 74 71 70 79 73 62 59 70 73 61 49 29 24 23 16 15 12 12 13 13 15 12 11 14 14 12 15 32 30
96 85 98 84 85 86 78 73 69 64 56 56 60 67 62 65 70 67 59 72 66 73 78 79 77 74 70 41 36 28 18 14 13 12 12 14 13 13 12 13 13 14 20 22 28

GFSSW_sfc_rhum_024.txt.gz
RH
75 75 76 77 77 77 77 78 78 78 78 78 79 80 81 85 88 83 36 25 40 80 82 77 74 65 73 75 71 68 80 77 59 59 52 57 62 53 51 60 56 57 69 65 72
75 75 76 76 76 76 76 78 78 78 78 79 80 80 81 84 95 67 36 56 75 86 82 81 88 74 92 72 78 86 82 60 43 44 57 54 56 56 62 61 64 65 64 68 71
76 76 76 76 76 76 76 76 76 76 78 78 79 80 80 87 58 13 53 54 86 84 74 66 71 74 83 70 78 76 83 50 36 34 46 55 54 51 62 69 68 77 76 73 75
76 77 77 77 77 77 77 77 77 77 78 78 79 79 80 94 13 42 78 65 82 65 68 64 69 77 72 72 63 63 49 51 37 39 47 54 51 54 53 59 51 62 67 71 78
78 80 80 79 79 78 78 78 79 78 79 79 78 77 87 62 22 56 71 65 75 44 53 47 68 52 34 40 48 54 45 32 25 27 45 46 51 52 56 52 52 58 66 71 76
84 84 85 85 83 81 81 83 83 79 79 79 77 76 86 14 8 16 59 65 68 47 33 28 30 25 24 20 29 21 28 24 20 24 28 48 49 50 51 52 56 63 68 69 70
84 85 86 85 84 83 82 82 82 81 81 80 77 78 90 11 10 14 45 45 43 34 33 27 21 20 20 21 15 17 21 20 20 20 27 40 60 56 52 53 61 63 64 66 66
84 84 85 84 84 84 82 84 84 82 81 81 77 84 38 23 29 24 14 23 37 35 26 27 20 22 23 19 19 21 23 25 20 21 25 43 56 51 52 58 64 61 62 64 65
86 86 86 85 83 83 81 84 80 78 78 78 88 91 32 35 39 27 13 12 24 36 28 15 21 23 25 24 27 27 28 24 21 17 29 46 50 46 50 59 65 64 63 63 65
86 86 86 85 84 84 82 84 78 83 75 70 68 68 42 22 31 28 20 11 15 21 20 24 26 30 30 28 23 30 26 25 22 22 38 50 45 49 53 59 64 63 63 64 64
85 86 85 83 84 81 83 57 43 44 49 69 62 44 30 20 20 22 18 14 17 21 28 27 33 34 29 25 21 22 23 23 20 21 39 38 42 64 55 58 63 63 63 64 62
85 85 84 83 82 83 69 44 45 44 59 34 33 29 29 24 22 18 14 16 18 23 25 28 30 26 24 22 21 20 22 23 18 15 20 28 37 58 57 59 58 60 62 62 60
85 84 84 86 84 74 75 48 47 58 60 31 28 25 23 23 23 21 15 17 19 22 24 25 25 23 23 24 23 25 22 22 22 20 26 42 45 48 55 58 56 56 56 58 60
86 84 84 86 57 92 49 59 58 57 42 26 20 17 22 24 26 18 15 16 20 17 22 24 19 20 24 24 22 32 19 16 16 19 22 36 44 54 59 62 56 57 59 58 58
87 85 84 86 93 91 42 60 56 43 48 22 18 12 18 20 17 21 18 23 21 21 21 24 21 20 22 21 21 22 17 17 17 19 26 27 41 39 58 72 62 53 51 54 53
88 87 86 88 97 88 73 69 55 42 51 23 15 17 18 16 14 18 19 21 18 20 24 20 19 17 17 17 18 18 19 21 26 28 31 24 27 33 60 52 58 51 48 48 47
88 87 90 77 74 70 81 57 36 47 25 28 31 28 27 21 16 19 20 24 23 32 29 24 19 19 16 19 21 21 26 36 34 33 27 23 29 18 31 36 38 47 46 45 45
87 88 84 67 72 76 78 42 55 30 30 31 32 30 30 33 30 30 21 22 26 26 29 29 32 19 18 19 22 24 26 38 37 35 26 28 27 24 16 33 29 28 30 36 40
90 95 88 76 56 76 65 61 47 41 34 36 36 40 42 38 36 34 33 24 24 24 28 34 30 19 17 16 16 25 24 20 27 52 29 29 25 21 23 21 33 31 29 32 33
99 95 91 66 57 71 80 79 62 41 39 37 51 44 52 46 41 42 39 50 46 37 34 27 34 19 18 16 17 17 18 25 31 37 38 30 27 26 29 23 27 38 35 31 30
97 96 55 56 61 76 84 88 62 45 40 48 47 47 49 49 44 41 42 56 47 46 43 51 24 23 20 22 20 23 21 25 22 29 32 33 26 21 21 26 20 25 32 29 30
97 92 49 56 73 87 84 66 62 58 46 48 48 56 58 53 51 44 56 61 42 48 69 69 52 30 22 19 16 16 19 21 24 28 27 28 20 16 16 14 25 24 31 35 35
100 97 74 61 96 96 77 56 48 65 66 58 52 57 62 64 59 63 54 51 43 47 72 61 59 36 24 18 20 20 19 20 17 27 23 23 21 13 18 19 18 23 28 37 42
98 94 90 77 90 94 87 80 65 48 66 68 61 64 74 78 73 74 67 54 46 49 54 54 72 56 48 43 41 36 25 20 18 21 20 19 18 21 20 20 19 26 31 29 40
97 94 90 98 87 79 70 82 77 76 58 68 89 77 75 89 81 77 59 63 51 56 55 65 71 65 55 46 39 36 31 26 23 17 20 16 17 19 20 21 18 19 33 34 39
96 95 87 88 81 75 68 86 76 63 67 68 92 92 64 86 80 86 76 84 75 64 65 73 68 73 62 40 37 40 32 27 23 20 21 16 20 16 16 20 21 20 23 24 34
95 91 97 96 91 97 86 76 71 68 64 61 68 72 70 62 70 67 68 67 71 78 76 79 78 76 72 53 45 38 26 22 22 19 17 20 19 16 18 20 18 15 19 21 22

GFSSW_sfc_rhum_027.txt.gz
RH
75 76 76 76 76 76 76 77 77 77 77 77 78 80 81 85 84 67 28 18 29 80 72 59 55 55 59 62 62 57 52 49 37 46 39 43 49 44 42 50 48 48 52 52 61
76 76 77 77 77 77 77 77 77 77 77 77 78 80 81 83 71 42 31 51 59 85 57 58 60 59 62 62 62 66 54 41 33 31 33 42 42 47 50 49 49 54 52 58 62
76 76 77 77 77 77 77 77 77 77 78 79 79 80 80 75 38 9 52 54 74 74 45 46 52 56 62 61 64 63 47 41 31 26 32 41 44 41 48 50 45 56 60 61 62
77 78 79 78 78 78 77 77 78 79 79 79 79 79 79 76 10 30 80 61 82 49 51 54 57 60 59 65 57 59 47 36 32 27 38 42 39 43 42 38 35 47 52 58 61
79 80 81 80 79 79 79 81 83 81 80 79 78 77 71 38 12 43 72 66 67 53 48 52 62 55 55 53 47 55 39 33 31 26 21 38 41 40 44 37 37 48 52 56 56
81 83 84 84 83 81 82 82 82 81 80 79 76 73 60 11 6 31 39 58 57 52 44 45 52 41 30 25 35 24 24 19 17 16 17 36 34 41 40 42 50 53 53 52 54
81 83 83 83 82 81 81 82 82 80 81 80 76 70 63 10 8 26 42 51 49 40 44 34 30 35 23 17 14 13 13 11 11 14 15 22 37 43 38 43 51 52 53 53 53
80 81 82 82 83 82 80 83 84 84 82 80 78 67 25 15 14 13 38 32 47 32 26 24 19 28 16 14 14 14 15 15 11 13 14 20 18 28 40 44 50 50 53 55 54
83 83 84 83 83 82 83 84 81 78 80 77 73 73 17 33 20 12 13 22 41 34 21 19 18 18 16 15 13 16 15 17 15 12 20 24 19 24 40 41 48 51 51 53 55
85 85 84 83 82 81 84 79 78 76 70 64 60 53 24 16 21 18 11 20 27 28 24 20 19 21 18 16 17 16 16 14 15 12 15 22 24 29 42 41 46 49 49 52 52
85 86 85 84 80 85 67 39 31 36 34 47 45 34 28 16 21 20 9 12 16 20 20 21 21 22 17 16 14 12 12 14 14 12 17 17 19 29 42 42 45 49 50 50 49
85 86 86 86 83 85 47 34 40 39 50 30 32 29 30 25 20 19 10 11 14 18 18 24 22 16 15 19 17 14 13 14 14 12 16 17 22 26 40 45 43 48 48 49 45
85 85 86 86 87 58 54 45 41 43 51 28 27 24 20 20 23 17 10 10 12 15 17 19 16 16 20 21 20 16 13 12 14 13 13 18 17 28 37 38 41 42 42 47 45
84 85 85 88 52 60 36 45 47 49 33 22 19 18 18 17 20 14 13 12 12 14 14 14 14 18 20 20 18 17 13 13 14 16 17 16 19 28 24 42 43 42 44 43 43
84 85 85 88 69 57 38 48 46 47 20 19 15 12 16 16 14 17 12 14 13 12 15 16 18 20 22 17 18 16 14 14 14 15 16 15 20 18 34 34 40 41 40 41 40
84 84 87 70 70 56 52 55 46 29 28 21 13 14 18 15 12 17 16 14 13 14 12 12 14 15 16 16 17 15 16 16 17 15 22 17 17 17 20 28 31 35 38 41 40
85 87 79 62 44 42 54 42 30 34 21 26 25 23 23 19 13 16 18 20 19 20 21 16 16 14 13 16 16 15 15 20 20 20 19 14 18 19 15 20 16 26 35 37 40
86 86 68 55 50 50 46 26 39 26 32 27 26 26 23 27 23 22 19 20 18 14 14 19 21 15 13 15 16 17 15 16 23 15 12 20 20 16 13 14 19 18 25 31 35
86 62 49 44 42 47 39 25 37 48 43 41 31 32 30 29 28 26 21 18 18 17 18 18 17 15 12 12 13 18 20 12 14 18 16 12 13 13 14 13 16 20 20 28 33
76 70 49 41 44 46 38 52 50 44 42 35 43 36 39 35 30 28 33 44 33 33 32 20 24 15 14 12 12 14 13 18 15 22 21 15 19 13 20 16 16 19 20 22 23
72 56 33 42 36 37 48 54 51 43 46 43 42 44 40 42 35 32 47 42 34 37 36 30 20 18 16 17 16 16 17 16 14 15 15 13 10 16 20 22 17 15 16 18 22
76 48 41 40 43 52 51 57 57 43 46 48 41 44 48 44 40 42 50 48 34 40 46 40 23 22 19 14 12 13 15 16 18 28 17 14 11 11 13 15 18 14 15 19 22
93 79 46 39 65 66 57 56 43 49 51 58 58 51 48 50 46 48 48 45 38 40 48 36 36 29 23 16 14 16 15 14 13 14 26 18 13 10 12 14 15 15 16 21 26
79 59 50 52 59 61 64 59 56 46 57 60 76 51 52 54 50 52 46 42 35 39 51 41 38 37 24 25 29 30 19 16 15 18 20 18 15 13 14 16 15 17 18 19 24
90 72 69 60 54 57 58 59 62 57 48 50 73 94 76 64 51 52 47 42 34 48 37 38 41 40 34 31 29 30 27 24 24 20 21 17 17 15 16 16 16 14 17 22 23
88 82 73 76 71 65 63 59 64 58 58 54 67 92 87 92 59 64 56 52 49 43 41 38 37 41 35 26 27 30 27 27 24 22 20 18 18 13 15 16 18 15 17 21 21
92 82 96 89 84 85 64 63 59 54 54 55 80 91 61 65 52 44 42 41 42 49 50 45 36 34 34 30 27 30 24 23 21 19 18 22 18 15 15 16 20 19 19 22 20

GFSSW_sfc_rhum_030.txt.gz
RH
76 76 77 77 77 77 77 77 77 77 77 78 79 79 80 84 81 48 20 17 21 78 68 39 41 41 40 41 41 42 35 28 26 27 29 29 33 32 30 36 34 36 36 42 47
76 76 76 77 76 76 77 77 77 77 77 78 79 79 80 82 37 18 24 50 52 86 33 38 46 40 40 36 38 39 31 24 21 20 22 28 29 33 33 34 36 40 37 43 46
76 77 77 77 76 76 76 76 76 77 78 78 79 79 80 67 24 7 49 56 65 69 20 28 29 33 31 31 36 34 29 21 19 19 20 27 30 28 30 33 32 42 46 46 48
76 76 77 77 76 76 76 76 78 78 78 79 79 78 78 40 10 12 76 60 73 25 18 24 29 33 30 36 30 35 25 22 20 18 20 25 25 29 29 26 26 34 40 44 47
76 78 80 80 78 78 79 81 81 79 79 79 77 75 54 22 9 10 67 56 40 22 20 23 32 27 26 27 27 33 23 20 20 18 16 16 25 27 29 26 26 32 39 42 42
78 80 82 82 82 80 81 82 83 80 81 79 76 72 34 17 4 6 18 26 28 21 19 21 26 21 22 24 26 18 21 19 14 12 12 13 21 24 25 26 30 34 38 37 39
81 82 83 83 83 82 82 84 80 83 87 83 76 54 35 14 5 7 19 24 25 22 19 18 19 24 17 20 13 17 13 10 10 10 11 12 19 23 21 30 34 34 36 37 37
82 83 84 84 83 82 81 85 84 85 80 79 77 46 24 10 9 13 17 23 25 22 16 17 18 23 17 11 11 12 11 13 11 9 9 11 17 16 20 30 35 34 35 37 37
84 84 84 84 82 83 85 84 82 78 77 76 55 39 18 24 9 7 19 23 27 22 20 17 20 20 17 20 12 11 14 15 14 10 11 12 15 14 18 26 31 35 34 35 37
84 84 84 82 82 84 86 80 79 74 57 48 37 40 19 12 10 6 10 12 28 22 20 20 16 15 16 15 17 14 13 13 15 12 11 13 15 13 20 23 28 33 34 35 35
83 83 83 82 83 86 54 23 29 39 22 28 24 19 18 11 14 8 6 15 20 24 18 15 15 16 11 12 11 11 12 13 12 11 11 13 13 13 17 23 25 31 34 34 34
84 83 83 82 84 85 33 22 33 34 34 18 18 18 19 20 17 11 6 15 16 23 15 15 16 11 9 9 11 11 12 12 11 10 12 14 14 13 15 24 24 29 31 33 32
84 83 82 84 86 45 29 33 28 29 32 17 16 15 15 15 16 13 8 10 14 16 13 13 11 10 10 11 12 12 12 12 12 11 10 11 14 14 13 21 24 24 27 28 31
84 82 83 91 47 29 22 24 27 30 29 11 15 16 14 14 16 12 7 8 10 13 11 10 9 11 11 12 10 12 9 10 10 11 15 11 17 16 13 18 21 22 25 26 30
84 82 83 90 38 27 28 24 28 33 16 14 13 10 12 14 12 13 10 7 9 10 10 12 10 12 13 12 10 11 7 9 10 11 13 12 14 15 13 14 16 17 21 24 25
85 84 86 40 28 23 24 27 33 28 17 14 11 12 14 14 12 12 14 8 8 9 9 10 8 9 11 10 10 9 9 10 11 9 14 13 13 14 13 16 14 14 18 23 25
84 84 67 34 29 23 24 28 22 18 12 22 20 16 15 12 13 12 16 18 17 18 15 12 10 9 9 12 11 11 12 15 15 13 12 10 12 15 11 10 12 13 14 21 24
86 87 54 29 22 26 27 24 24 16 29 23 23 19 19 16 14 11 15 17 15 13 12 14 14 10 9 11 13 13 11 11 20 11 9 10 13 11 9 9 10 11 10 15 21
86 25 22 21 23 28 28 20 17 37 34 31 23 23 18 19 19 16 14 14 14 12 16 14 14 8 9 10 10 14 14 7 8 10 10 7 9 8 9 9 10 9 10 10 17
43 27 22 20 21 26 23 35 31 31 30 28 32 28 30 26 24 19 15 24 16 12 19 16 17 10 9 9 9 10 10 11 10 20 19 8 11 9 12 12 11 11 10 11 16
34 26 23 20 20 18 22 29 29 23 28 33 32 33 31 32 28 23 26 29 24 24 26 17 16 14 11 12 12 11 12 11 9 10 12 11 8 8 11 12 11 10 11 11 14
33 23 24 22 22 24 26 34 45 25 24 29 31 28 32 33 32 30 34 35 28 27 25 19 16 18 14 9 8 9 12 12 12 20 12 11 8 6 7 7 10 9 10 10 13
39 34 23 22 32 32 32 31 29 30 32 35 43 41 33 36 40 35 36 31 25 27 34 26 20 22 17 12 11 12 11 10 10 10 20 14 10 8 10 10 12 12 11 12 13
41 34 25 26 29 34 40 35 34 27 34 30 63 60 50 32 29 38 33 28 24 25 44 35 22 23 18 18 14 17 12 11 11 13 14 13 12 10 9 11 10 10 11 11 15
41 39 46 42 36 42 43 39 38 41 33 30 65 88 93 59 41 33 36 29 25 33 25 25 31 30 22 24 21 16 13 12 14 14 16 13 13 12 11 11 11 11 11 12 13
47 58 46 52 45 50 46 46 43 46 43 40 47 47 60 91 67 81 47 36 34 30 29 24 33 32 31 21 21 21 19 17 15 14 14 13 14 10 10 12 13 13 14 13 13
51 50 76 81 54 52 43 43 46 44 38 42 39 42 39 48 44 41 34 30 29 36 35 33 27 32 31 22 22 27 22 19 18 16 16 19 16 13 13 14 14 13 12 12 13

GFSSW_sfc_rhum_033.txt.gz
RH
75 75 75 76 75 75 75 76 76 77 77 77 78 80 80 83 83 39 20 18 22 67 65 28 29 31 28 31 29 27 43 34 20 26 20 18 19 20 22 29 28 28 37 42 43
74 75 75 75 75 74 75 75 75 76 77 78 79 79 80 82 37 16 22 52 60 70 30 25 30 30 30 29 25 28 83 51 16 14 23 19 17 21 24 27 30 30 35 39 39
75 75 76 75 74 74 75 75 76 76 77 78 79 79 79 66 25 8 56 54 66 67 13 19 21 28 28 22 23 23 53 52 16 15 17 17 19 17 21 26 28 37 41 40 40
76 76 76 76 75 75 76 76 77 78 78 78 79 78 77 39 13 16 62 60 64 22 11 18 20 28 25 23 20 24 21 31 15 14 16 18 17 19 18 18 22 30 35 38 40
76 79 81 81 79 79 80 82 81 79 79 78 78 77 57 22 10 18 71 57 19 19 11 18 21 24 24 18 18 22 19 17 16 15 13 15 19 24 21 17 20 28 34 37 38
80 82 83 82 82 81 81 83 84 80 80 82 81 74 39 22 6 5 10 21 14 19 10 13 17 18 19 17 18 17 18 16 15 14 12 13 17 18 20 19 23 29 33 34 34
82 83 83 82 81 81 82 84 82 86 87 86 82 52 26 18 6 4 10 14 13 15 10 10 11 17 17 18 14 16 16 17 16 13 11 11 16 19 18 22 25 28 31 32 33
83 83 82 82 81 81 82 85 83 86 80 78 77 41 27 11 11 6 9 13 13 14 10 9 10 14 17 13 13 17 16 16 12 11 10 11 17 15 15 22 26 27 28 31 31
83 83 82 81 81 82 83 84 80 76 75 74 51 34 22 22 10 9 8 14 15 15 14 10 12 16 16 17 14 12 16 16 12 10 10 11 14 13 14 18 24 27 27 27 30
83 83 82 81 81 83 84 81 68 77 57 40 31 33 22 13 9 7 7 11 17 18 18 16 16 18 18 20 20 14 13 12 14 11 10 11 12 13 13 16 20 26 27 28 28
84 84 82 81 82 84 54 15 23 38 33 26 22 20 13 10 8 6 10 13 17 19 23 19 22 24 16 19 14 12 10 11 11 10 11 13 13 12 12 15 18 24 27 28 27
84 84 82 81 83 85 25 19 25 24 28 14 11 10 11 12 14 7 8 12 21 23 16 18 22 13 10 9 13 13 12 11 10 9 12 12 13 11 11 14 16 21 24 26 26
85 84 82 83 83 38 18 17 15 18 25 13 8 9 8 13 15 12 6 11 18 23 14 12 10 9 8 8 10 10 11 11 10 10 10 12 14 13 10 12 16 17 21 22 25
85 84 82 88 44 16 14 14 14 18 26 9 10 9 8 9 16 10 5 9 13 19 17 12 8 8 9 8 7 8 7 9 9 11 14 11 16 15 12 12 16 16 19 20 23
85 83 84 90 31 19 16 11 13 20 20 8 10 9 8 10 8 12 7 6 11 12 13 14 10 9 10 8 7 8 6 8 9 10 11 11 14 14 11 12 13 15 17 18 20
84 82 85 28 18 12 12 11 17 28 20 10 9 11 12 11 10 9 10 6 8 9 9 10 7 7 8 7 7 6 7 7 7 8 13 12 11 13 10 12 11 12 13 16 17
84 84 70 26 17 11 13 14 19 18 8 18 17 13 11 12 13 11 14 11 11 14 13 10 9 7 6 8 7 8 9 12 11 11 12 10 11 13 10 8 9 10 12 12 15
83 84 48 16 11 12 16 17 24 12 22 20 20 18 19 14 11 11 14 16 10 9 10 12 13 8 7 8 10 10 8 10 20 11 9 9 12 10 8 8 7 9 9 11 13
85 16 16 12 12 13 19 19 15 24 25 23 21 19 16 13 14 12 13 14 12 9 14 13 13 7 7 7 8 11 10 6 7 7 7 6 7 6 6 7 8 8 9 10 13
42 18 16 11 13 15 19 24 19 18 17 18 25 21 26 22 18 16 13 11 12 10 11 13 16 9 8 7 7 9 8 9 8 17 15 9 10 8 11 10 9 10 10 10 10
34 17 16 12 13 15 15 16 18 14 14 19 20 24 30 35 33 22 16 19 18 16 12 12 14 13 9 10 10 10 10 10 7 8 11 12 9 6 9 10 10 9 9 9 9
23 23 16 14 18 13 16 20 34 15 14 17 20 22 24 31 43 34 29 27 20 21 18 14 15 19 11 8 8 8 10 11 12 18 9 9 9 6 6 6 8 9 9 8 9
31 21 14 14 23 19 20 18 19 19 19 22 22 34 38 41 56 56 41 28 20 21 27 20 20 23 16 10 9 10 9 9 9 9 17 11 10 8 8 8 8 9 9 10 11
32 26 19 17 17 23 27 26 27 28 21 20 30 33 40 36 30 39 48 33 21 21 43 36 22 23 17 16 11 14 10 9 9 11 12 11 10 11 10 12 12 10 10 10 12
35 32 33 33 26 28 29 28 33 36 22 21 34 41 41 48 48 84 51 34 22 30 24 22 33 24 17 13 13 10 10 9 11 11 13 10 11 10 11 11 10 10 11 12 14
67 50 38 40 34 41 37 38 35 26 27 26 29 30 32 46 43 47 60 46 39 32 28 21 31 26 23 15 18 17 13 10 9 10 10 10 10 8 9 9 10 10 11 12 12
94 76 68 57 40 39 42 34 30 27 28 31 34 30 31 33 33 26 28 27 27 31 30 32 26 32 33 22 21 24 16 14 11 10 10 13 12 9 10 11 12 12 12 12 12

GFSSW_sfc_rhum_039.txt.gz
RH
74 73 73 73 74 74 74 74 75 76 76 78 79 80 82 86 85 60 54 26 30 53 68 37 28 28 46 56 49 54 94 92 78 51 43 36 36 37 36 49 48 46 60 56 51
72 72 73 74 74 74 75 75 75 76 77 79 79 79 81 84 78 56 39 48 48 50 27 28 29 26 43 56 53 75 90 75 75 42 40 32 32 34 49 55 60 63 58 52 50
73 75 76 76 74 74 74 75 76 76 78 79 79 79 80 79 60 27 49 52 49 60 18 13 21 22 38 40 43 52 65 45 46 34 30 31 29 27 52 66 63 71 64 55 55
75 77 80 77 75 75 76 78 78 79 79 79 82 79 78 69 31 13 58 60 52 34 17 14 18 27 36 44 35 39 40 35 31 27 31 36 38 26 46 54 54 56 56 54 55
80 83 84 83 81 82 82 82 82 80 80 82 84 77 82 62 38 14 65 64 37 20 15 14 20 26 33 37 32 31 39 30 31 30 30 42 36 36 47 47 50 51 53 56 54
84 84 84 83 82 82 81 82 83 80 79 82 82 75 79 56 19 14 28 38 28 16 14 14 20 20 27 32 33 26 26 33 39 30 27 30 29 31 46 45 51 52 55 53 51
84 84 84 83 81 81 80 81 81 78 78 85 78 71 56 36 15 14 24 26 16 15 13 13 15 17 23 28 26 26 27 31 29 28 27 24 36 29 43 43 49 52 52 51 52
85 84 82 83 81 80 81 81 78 74 77 80 74 75 72 22 23 21 18 22 14 13 12 12 14 15 16 20 24 28 26 32 28 25 20 28 45 41 38 44 50 48 50 52 54
84 83 82 81 81 81 83 80 74 68 76 75 82 77 52 26 24 20 18 14 17 15 15 11 13 15 14 24 31 32 35 30 27 19 18 18 26 45 44 39 47 48 46 47 52
83 83 82 81 81 81 80 72 65 79 76 54 48 72 41 19 16 16 15 12 12 15 17 16 19 18 17 24 37 39 35 29 27 20 20 22 18 41 39 48 63 54 45 45 47
83 83 82 81 82 82 78 51 18 39 22 18 18 22 18 17 15 16 14 15 10 16 24 22 26 24 18 19 20 27 29 25 20 18 21 22 18 36 49 60 62 54 52 45 43
83 83 82 81 83 75 69 17 14 13 17 12 13 13 13 13 18 16 13 17 12 21 20 27 30 19 15 16 17 22 28 27 16 14 19 19 18 17 45 45 41 46 56 51 41
82 82 81 82 78 52 28 14 10 10 18 15 12 12 13 11 15 17 14 15 14 20 23 29 26 19 18 16 17 21 26 26 23 15 12 16 18 18 38 40 55 67 77 60 38
80 80 82 86 47 32 24 12 10 10 32 18 12 10 10 10 12 11 12 13 15 18 22 26 22 22 23 19 18 26 19 20 21 21 22 18 36 27 25 38 52 61 67 52 37
79 79 80 85 59 39 24 11 10 15 41 14 14 11 12 11 8 9 11 13 16 16 21 27 26 25 24 21 17 21 15 18 20 23 23 19 26 23 21 28 38 45 46 36 35
79 79 82 53 45 32 16 11 14 31 33 11 15 15 14 14 15 9 11 12 11 14 18 21 20 21 21 17 17 16 18 15 18 20 24 18 24 27 23 20 23 28 30 30 30
80 80 82 49 39 20 16 16 31 29 11 17 18 14 15 17 19 20 18 13 18 21 27 19 20 19 14 19 16 17 17 21 22 23 23 17 22 21 20 16 18 18 25 28 29
79 82 63 34 29 22 16 26 40 17 19 14 15 14 16 16 20 22 30 21 16 16 25 28 27 21 16 14 16 16 14 22 29 23 18 15 15 16 14 14 14 15 20 24 28
80 46 36 26 27 20 26 38 28 19 15 16 16 18 16 16 23 28 35 40 27 18 19 23 23 17 17 13 12 14 14 12 18 22 22 19 14 11 9 10 10 12 14 25 26
70 51 39 21 16 22 34 41 23 14 13 16 26 17 19 26 32 34 47 39 52 48 32 15 21 16 14 16 13 12 11 15 14 25 24 16 15 14 10 10 11 11 12 21 23
53 48 24 15 17 27 33 25 18 16 19 23 31 29 21 34 39 37 44 41 59 58 48 39 26 15 14 17 18 12 14 12 17 20 27 32 20 10 10 10 10 11 14 18 22
52 54 27 18 28 28 26 21 31 15 20 26 29 29 24 23 42 44 46 57 56 57 67 39 44 21 16 13 11 12 11 15 15 22 18 18 17 16 17 9 9 10 13 18 19
66 52 28 28 36 36 32 24 19 20 31 33 30 25 24 33 56 66 61 43 52 55 53 54 52 43 22 17 13 13 10 10 16 23 22 22 23 15 18 10 11 17 16 14 22
65 50 48 42 36 42 43 37 28 20 30 38 37 44 38 38 51 82 72 57 50 47 64 54 51 48 37 21 20 19 12 10 14 18 17 19 20 19 19 17 21 18 22 22 27
51 55 66 70 62 63 46 39 50 36 33 30 35 32 54 53 44 54 57 46 39 62 60 46 52 41 36 26 22 17 12 12 13 14 19 15 22 22 25 24 27 23 22 24 28
62 91 72 82 71 57 53 49 46 38 40 30 33 28 40 53 68 54 40 42 54 56 60 40 53 45 47 28 23 24 20 12 11 12 13 16 16 23 22 26 25 28 25 25 27
62 73 96 90 74 66 63 56 58 48 55 50 30 30 29 33 40 39 28 27 28 49 58 44 41 52 56 35 33 40 27 19 12 11 12 18 18 21 24 27 22 26 24 22 20

GFSSW_sfc_rhum_042.txt.gz
RH
73 74 74 75 75 74 75 75 76 77 77 78 78 80 81 83 85 73 73 38 39 53 74 66 54 50 57 71 56 60 87 87 75 69 54 51 60 50 52 59 51 52 55 51 48
74 74 76 76 75 75 75 76 76 78 78 78 79 80 81 82 83 73 43 49 56 52 52 55 51 40 74 71 66 79 97 76 56 53 55 55 58 53 58 60 64 60 49 51 52
75 76 77 77 75 75 76 76 77 78 79 80 79 82 80 80 79 42 51 56 60 56 26 36 30 31 40 54 66 79 86 60 46 48 37 34 52 50 61 76 68 71 65 58 57
77 78 80 78 76 76 76 77 77 78 79 80 79 82 79 81 32 16 63 62 59 40 28 18 20 34 40 50 47 67 61 49 42 41 42 34 36 54 54 62 58 59 59 59 63
81 84 84 83 81 80 80 81 80 78 78 78 77 79 90 76 46 22 55 65 48 34 25 20 20 28 38 39 41 47 44 42 35 32 36 33 33 50 55 58 55 56 56 61 63
85 84 83 82 82 81 81 81 81 79 76 76 76 75 89 56 23 23 41 49 32 29 22 19 19 19 31 30 41 38 38 33 29 31 35 37 40 53 60 58 60 60 60 59 59
84 83 82 82 82 81 81 81 79 78 77 74 83 71 80 39 18 20 42 41 32 22 22 16 16 21 24 34 26 30 38 34 32 28 36 33 39 63 60 58 64 63 61 59 57
84 83 82 81 81 82 83 81 80 78 74 76 77 71 89 38 35 32 25 27 28 19 15 15 14 23 24 19 18 33 37 45 34 31 31 31 47 60 59 62 67 64 60 59 60
84 83 82 80 80 82 84 82 76 70 77 76 88 89 85 39 41 30 25 25 21 20 17 10 17 24 23 23 29 37 43 41 37 31 30 32 49 58 58 62 66 63 60 59 59
84 83 82 80 81 81 82 81 71 81 76 65 60 84 46 21 17 16 25 21 21 20 20 18 23 29 25 32 35 41 48 39 35 26 30 33 49 60 57 61 66 64 60 58 58
84 83 83 80 81 80 87 48 16 21 23 19 16 47 19 13 10 17 19 20 22 23 30 27 29 32 25 23 24 29 35 36 29 23 24 29 50 59 55 58 64 64 64 61 60
82 82 81 81 81 82 78 26 21 16 22 13 12 13 12 12 15 12 17 22 24 26 26 36 32 24 23 19 21 23 26 33 30 25 23 28 52 52 51 56 56 60 62 61 55
81 81 80 82 85 53 43 30 21 18 26 18 15 14 14 14 15 14 17 22 25 26 24 30 30 22 22 22 20 23 25 25 34 27 21 28 43 50 47 49 50 52 54 52 48
80 79 80 83 48 57 40 26 28 18 38 24 17 15 12 15 16 10 11 19 22 20 19 24 21 23 25 23 19 25 18 19 23 32 40 21 37 55 55 61 55 54 55 53 49
79 77 77 86 85 60 30 36 23 24 25 15 15 11 10 16 16 17 15 18 22 22 19 24 23 27 26 24 20 20 18 19 22 31 40 28 34 42 58 65 54 50 46 46 47
77 76 79 70 82 58 42 29 23 32 38 17 14 14 13 14 14 18 20 20 17 21 19 19 20 22 25 21 21 19 22 24 25 31 40 28 28 31 60 57 52 52 45 45 42
78 79 85 62 35 36 37 27 34 33 16 19 20 16 16 15 16 21 26 32 54 35 27 21 19 19 23 28 24 24 33 42 39 37 35 25 27 22 32 44 44 49 53 51 44
80 82 79 56 62 48 35 35 43 22 22 17 18 17 17 22 26 22 30 40 47 66 50 26 27 21 19 27 30 28 28 44 48 40 29 21 26 21 15 22 33 38 48 44 40
84 69 65 44 42 44 34 52 43 26 21 24 23 28 27 25 36 32 34 45 49 59 86 75 25 20 18 19 22 28 31 22 24 39 26 23 18 15 11 11 18 28 40 40 39
83 88 64 37 32 31 39 54 39 24 22 25 41 36 39 36 42 43 37 33 50 47 50 68 67 20 18 16 19 18 18 27 27 33 37 23 20 21 13 11 12 18 31 33 34
89 77 49 28 27 35 44 42 25 18 23 35 43 46 36 34 30 43 35 31 43 50 52 62 71 40 19 20 23 27 18 20 19 26 28 29 19 12 14 14 12 13 24 30 31
97 90 46 33 38 48 51 36 36 24 31 35 33 38 40 44 48 44 44 52 55 58 75 60 83 85 36 16 15 21 21 17 17 25 28 27 16 15 13 10 10 8 13 28 30
100 93 50 44 74 75 52 46 34 40 46 43 41 43 47 54 63 67 58 41 48 59 84 88 84 92 44 27 20 19 21 17 19 20 24 19 16 15 16 18 19 12 12 18 27
98 83 73 70 68 80 80 63 53 37 36 42 44 48 49 59 65 66 59 51 45 50 63 90 90 91 86 52 40 27 16 18 17 21 17 17 17 16 15 20 18 15 19 21 27
90 88 90 94 82 89 77 64 54 54 51 45 41 45 58 78 68 66 50 42 38 51 69 93 96 62 52 41 38 40 25 17 15 13 17 15 19 16 20 25 25 23 25 27 27
94 94 95 80 90 82 75 66 73 72 65 61 72 64 48 64 62 73 60 55 58 57 74 88 88 67 53 40 38 34 26 26 13 12 19 18 18 15 20 30 32 32 34 38 26
91 93 95 94 86 97 74 76 76 60 77 60 67 71 64 56 53 58 54 46 45 61 80 85 73 76 71 48 36 42 36 28 17 13 14 20 18 23 49 54 57 32 25 29 36

GFSSW_sfc_rhum_045.txt.gz
RH
75 75 76 76 76 75 75 76 77 78 79 79 80 80 80 81 83 79 76 43 42 51 57 60 72 63 64 80 64 59 85 87 76 73 64 61 68 72 64 63 53 51 62 63 66
75 75 76 76 76 75 75 76 76 77 78 79 80 79 80 80 86 81 48 54 54 60 60 73 75 64 79 80 73 87 97 76 55 57 62 59 62 69 64 61 63 61 59 59 65
76 76 77 77 76 75 76 76 76 77 77 78 80 77 79 83 84 43 50 53 60 68 54 54 54 59 75 72 75 80 83 68 50 48 68 57 57 53 64 79 65 69 66 61 66
76 76 77 76 76 76 77 77 77 77 78 78 79 76 79 88 29 22 69 62 64 55 38 44 41 42 54 61 55 86 69 64 43 39 46 46 53 58 62 65 55 55 56 56 64
78 81 82 81 78 78 78 79 79 79 77 77 77 74 90 72 39 22 68 56 53 38 32 33 38 41 50 50 50 66 62 53 55 52 43 38 51 59 62 59 50 53 52 55 57
82 85 84 83 82 81 81 82 81 80 78 76 78 76 89 40 19 26 52 49 46 29 31 22 26 31 35 37 51 43 44 44 42 44 39 37 42 59 64 58 58 61 57 54 55
85 85 85 84 82 82 82 82 81 81 82 77 74 70 86 36 28 33 48 48 45 24 28 21 20 25 26 39 28 33 43 37 36 39 38 38 58 65 66 62 67 66 64 59 62
85 85 84 83 82 82 83 83 82 78 77 77 78 67 89 43 46 39 32 36 37 29 19 21 19 25 29 24 21 38 42 54 38 35 32 36 58 73 66 67 71 67 65 62 64
84 84 83 83 81 83 84 85 77 76 80 78 88 88 88 44 36 25 28 28 38 35 23 14 19 26 27 30 33 34 51 52 42 34 33 36 70 72 66 70 73 68 65 64 64
83 82 82 81 82 85 86 83 72 84 75 69 65 72 40 17 13 10 22 25 24 28 23 22 24 30 36 35 47 39 49 45 41 36 36 43 51 73 69 71 74 72 66 65 64
82 82 80 80 82 85 91 24 28 25 22 21 17 31 17 15 12 14 12 27 23 27 32 28 28 28 23 26 28 34 40 41 36 30 32 40 47 75 70 71 75 74 72 68 65
81 81 79 78 82 88 70 25 27 28 27 16 14 15 13 14 16 13 13 32 32 33 32 37 31 21 21 25 25 24 29 35 30 28 30 33 41 63 70 70 69 72 71 68 62
81 79 78 79 87 60 57 36 31 24 33 20 17 16 15 17 17 16 16 22 31 36 31 35 33 23 26 25 26 25 27 28 30 31 31 38 49 57 68 64 63 64 64 62 60
80 78 77 84 46 63 38 32 42 26 34 21 17 14 11 16 19 15 18 17 25 30 29 31 23 25 25 29 26 34 22 21 24 31 43 30 52 77 69 71 65 65 64 62 59
81 79 77 88 68 48 28 46 42 23 24 17 15 11 12 14 15 18 16 24 26 24 25 26 26 26 28 27 24 26 21 23 24 33 52 31 43 66 63 70 68 62 61 59 58
82 81 81 83 89 63 47 40 23 28 32 20 16 15 14 16 17 18 22 34 35 42 22 24 18 21 23 23 22 22 24 29 34 38 40 28 39 42 64 58 60 56 53 52 53
82 82 86 68 35 54 40 29 31 32 19 21 23 19 18 30 25 25 38 65 76 70 55 28 24 19 23 26 27 26 35 46 50 49 40 32 38 30 46 45 45 54 49 45 49
85 84 78 60 61 55 34 33 42 28 29 22 24 23 25 36 35 28 34 56 57 69 85 93 37 23 18 29 31 33 33 54 60 58 41 32 39 32 30 36 39 38 41 40 46
85 82 66 51 39 44 34 52 46 35 28 29 31 38 37 33 40 37 41 54 55 61 83 88 70 45 29 19 27 38 37 31 39 35 33 32 24 17 22 32 42 42 39 41 42
94 95 69 41 36 34 40 57 45 26 26 34 47 44 48 35 36 52 38 42 53 51 58 72 89 56 38 21 23 30 28 42 36 46 39 31 23 24 19 19 31 45 42 39 39
96 79 49 41 33 38 45 48 32 27 30 39 44 48 45 47 47 53 42 45 54 56 47 70 72 69 54 28 23 30 32 34 35 35 37 34 24 19 17 16 17 34 35 37 41
98 61 47 43 59 68 64 55 46 32 36 38 38 40 43 47 56 53 63 59 51 49 76 74 92 91 78 43 44 39 29 25 33 41 33 32 24 14 13 13 15 14 25 30 36
99 98 63 51 89 94 72 59 43 45 44 44 44 46 47 54 64 66 67 46 50 57 76 78 98 94 55 42 36 35 30 26 23 30 30 31 27 15 17 20 17 16 14 23 34
97 90 81 76 84 91 93 77 57 40 44 54 46 50 56 62 62 64 70 52 44 49 72 74 96 92 81 76 57 55 47 41 31 26 24 20 17 14 13 16 18 23 23 16 28
93 90 92 94 92 95 92 80 66 69 58 57 53 70 85 79 68 70 58 54 53 66 80 91 92 88 75 64 57 54 50 43 46 22 19 18 18 14 18 19 36 39 24 18 24
96 96 95 96 90 92 86 75 76 67 70 72 80 81 78 83 63 60 62 68 65 80 85 91 89 90 82 54 49 53 40 38 38 30 19 20 19 20 63 68 66 67 36 22 32
96 94 93 87 87 97 96 95 94 94 85 73 89 95 88 69 60 58 58 59 60 79 94 96 95 94 93 54 48 53 47 44 38 49 42 23 29 50 74 74 81 82 70 38 28

GFSSW_sfc_rhum_048.txt.gz
RH
74 75 76 77 76 76 77 77 78 78 77 78 79 81 78 78 79 87 81 45 51 54 65 85 77 70 71 85 71 59 88 85 78 82 75 71 70 68 65 71 55 57 72 72 78
75 76 77 77 76 76 76 78 78 78 78 78 79 80 77 78 90 88 54 54 56 61 76 91 88 74 85 88 77 86 97 77 61 57 72 66 61 74 74 70 65 72 73 76 75
77 78 79 79 78 77 77 77 78 79 79 79 79 81 77 85 80 38 53 53 55 63 60 56 59 74 88 86 84 84 93 68 52 50 54 55 60 63 69 77 66 81 85 78 78
79 79 79 79 78 79 79 78 78 80 80 79 79 80 78 93 24 29 72 57 59 63 54 59 67 74 85 80 73 92 75 71 54 45 51 54 59 62 64 66 56 67 74 75 79
79 81 82 80 80 80 81 80 81 81 82 80 77 73 92 62 34 24 58 56 54 59 52 51 66 54 78 68 56 78 66 60 56 57 58 50 56 64 64 57 55 62 69 74 75
82 84 84 84 83 82 83 84 81 82 84 80 77 75 90 27 21 35 53 56 58 51 48 37 56 41 48 54 63 51 53 53 49 50 52 54 53 62 67 56 60 64 69 71 71
83 84 83 82 82 82 84 85 83 84 80 78 77 72 85 38 36 45 54 63 57 48 38 28 31 40 35 44 34 44 44 37 38 46 46 41 68 66 62 57 62 63 64 68 66
82 83 81 82 81 83 85 87 84 78 78 78 69 77 81 43 48 42 55 45 46 41 24 22 21 33 35 29 24 38 44 56 42 40 39 44 64 76 63 65 67 61 59 62 62
84 82 80 79 81 83 86 87 77 80 80 76 92 90 42 42 25 25 28 36 46 42 32 15 24 31 31 37 42 36 63 55 48 37 39 44 76 77 68 71 73 65 59 57 59
84 82 80 79 81 85 88 80 78 85 80 72 66 60 26 15 14 13 19 34 40 39 34 26 28 33 41 45 63 45 48 50 47 38 43 49 64 82 73 75 76 72 66 62 63
84 82 81 79 82 87 92 34 33 33 30 34 19 22 17 14 13 14 14 31 27 33 43 32 34 30 25 36 37 38 45 43 39 32 49 50 65 84 78 76 79 76 73 70 65
83 82 81 80 83 88 63 32 34 35 40 20 18 17 15 16 17 16 13 38 33 39 34 40 34 24 21 25 32 32 34 40 34 33 40 46 50 76 79 79 75 76 73 71 66
83 82 81 83 88 58 55 30 33 25 35 21 18 18 15 19 19 18 20 21 37 38 36 38 30 21 22 29 31 33 36 32 40 30 31 38 46 74 76 73 70 70 70 66 65
83 81 82 85 48 62 32 46 47 32 28 21 17 14 12 15 19 15 16 24 24 41 36 35 28 23 23 26 29 45 27 27 26 36 44 36 57 71 85 82 76 73 72 69 66
84 83 83 88 82 43 32 54 50 22 25 18 17 12 13 17 16 18 24 34 29 24 36 41 33 30 30 23 25 25 26 26 26 35 41 31 38 46 78 94 81 72 68 66 63
84 85 86 79 84 58 57 56 25 26 30 22 18 19 26 25 24 23 46 42 46 51 34 26 24 27 25 25 24 26 30 31 37 39 45 33 31 43 78 74 77 68 65 62 60
85 86 89 72 52 49 62 27 29 30 22 25 27 24 29 36 32 29 49 63 75 85 74 49 25 23 24 29 26 29 33 52 52 52 44 38 32 38 33 58 59 65 62 59 58
88 90 78 64 62 70 34 31 40 30 35 28 28 29 31 33 38 32 46 73 59 70 88 88 42 28 23 28 34 32 36 54 62 62 41 42 47 37 22 37 46 47 53 53 55
88 90 71 54 42 41 34 51 49 40 30 32 34 41 40 32 40 37 50 74 62 65 85 94 70 47 38 34 28 38 40 34 49 54 50 36 37 22 29 27 46 45 45 52 50
96 95 69 44 45 32 38 58 42 32 30 36 43 44 52 39 43 48 47 58 60 55 52 77 95 58 48 39 29 36 30 45 52 61 53 44 31 37 30 32 38 49 46 45 47
96 66 47 47 36 41 47 52 40 31 35 38 43 43 49 47 53 56 49 61 58 58 55 85 82 72 60 49 33 34 39 47 38 45 54 48 36 26 28 25 23 30 47 44 44
97 52 46 50 59 83 76 67 55 43 39 41 39 40 42 45 58 54 55 64 55 58 81 84 93 88 82 54 48 51 51 43 43 52 45 47 39 20 19 20 21 18 31 44 42
98 98 68 54 85 95 88 74 58 51 55 50 49 43 48 53 68 66 66 52 53 63 84 84 93 96 64 54 51 50 43 52 51 41 42 42 43 21 19 20 20 19 21 36 47
96 85 78 82 93 94 94 85 72 50 56 59 53 57 60 65 64 60 72 55 51 55 64 80 92 89 83 68 67 67 54 50 56 60 42 37 34 26 22 22 27 23 24 23 30
94 94 93 96 94 93 91 85 80 76 64 59 58 71 82 88 68 74 65 63 65 63 87 92 96 80 84 78 66 62 62 56 55 50 57 32 26 24 25 23 30 46 50 41 29
96 96 96 96 81 82 87 87 87 80 85 78 74 66 88 91 67 60 64 70 82 79 95 96 93 84 91 65 62 57 49 47 46 44 43 42 32 31 59 74 88 92 90 87 59
95 92 94 87 86 96 93 96 94 95 83 82 92 97 96 92 82 78 56 62 67 87 97 94 94 91 91 66 59 58 46 47 48 48 57 38 49 59 83 91 89 88 88 94 92

GFSSW_sfc_rhum_051.txt.gz
RH
78 78 78 79 79 79 78 78 78 78 79 80 79 80 79 77 77 76 53 30 36 54 67 66 60 61 57 66 70 55 71 66 63 66 66 66 62 57 57 61 50 50 55 56 66
78 78 78 79 78 78 79 79 79 79 80 80 80 80 77 76 76 66 44 49 55 65 55 61 60 59 62 66 74 70 78 60 54 56 65 54 56 58 67 58 58 61 56 62 67
77 76 77 78 77 78 80 80 80 80 81 81 80 79 75 73 56 22 45 66 55 57 50 46 49 51 61 60 68 65 68 53 46 46 51 63 55 54 59 62 55 67 71 72 69
77 77 78 78 77 79 80 80 82 82 82 82 80 78 76 75 14 18 59 67 57 44 56 41 50 53 52 63 57 72 61 54 52 42 45 49 46 56 54 50 46 55 62 66 65
78 80 81 80 79 79 79 81 83 83 83 83 78 74 73 37 18 26 59 55 48 44 40 34 50 45 41 47 56 62 60 52 54 46 43 42 44 47 52 49 47 55 61 61 58
82 84 83 82 82 80 79 82 84 84 84 81 76 75 61 16 20 30 47 45 47 39 38 36 40 38 39 56 48 45 54 52 45 41 40 43 38 46 54 48 55 60 61 58 56
83 83 82 82 81 78 80 83 84 84 80 78 78 62 49 21 26 34 44 45 46 37 37 37 35 33 29 34 34 38 48 40 34 33 37 34 46 52 52 51 59 60 60 57 54
82 83 82 81 81 83 86 86 85 79 79 77 74 63 32 28 31 35 40 40 41 36 25 24 24 32 23 22 20 28 31 41 34 31 32 34 42 54 50 52 59 59 59 59 54
83 83 82 80 82 85 88 88 77 80 81 72 68 64 15 28 10 11 18 31 34 40 23 18 19 28 25 27 25 28 23 37 40 31 31 34 40 58 50 51 57 59 58 57 56
84 83 82 82 83 86 90 81 85 81 75 67 56 36 12 11 10 10 17 32 34 34 26 19 24 23 24 28 20 24 24 35 42 31 31 36 38 60 54 52 55 56 55 56 53
84 83 83 82 85 87 68 26 22 20 22 16 15 15 11 10 10 13 13 27 28 23 24 22 22 28 20 22 24 29 30 28 32 29 34 35 36 58 59 56 57 53 53 53 51
84 83 83 84 87 89 47 25 30 30 24 17 16 14 12 12 14 11 14 30 33 28 23 24 22 16 18 19 24 24 30 30 27 27 29 35 34 44 59 59 57 55 51 49 46
84 83 85 87 90 47 28 26 30 22 20 15 14 11 10 11 14 12 16 19 30 34 26 21 19 17 18 18 20 22 24 29 28 24 24 27 32 40 54 56 56 52 52 46 46
84 84 86 91 42 42 24 30 38 30 16 18 13 11 10 11 14 12 26 20 17 32 30 29 22 20 19 18 17 19 17 25 27 26 34 27 40 34 42 61 60 55 54 50 49
85 85 87 89 44 27 30 39 26 16 12 16 14 10 13 13 17 13 26 29 25 24 32 31 27 26 23 20 16 17 15 16 22 29 28 27 34 30 39 51 56 55 52 50 49
86 88 88 62 49 32 40 35 18 18 16 19 15 16 16 20 19 18 31 32 39 38 31 26 22 22 22 19 17 15 19 18 16 19 38 31 30 30 37 42 45 49 49 50 49
87 90 82 57 36 33 42 19 20 18 19 22 21 18 22 21 20 24 41 43 42 34 41 37 24 18 20 23 20 20 19 28 32 26 29 26 31 30 24 30 31 41 49 48 48
90 88 68 50 38 42 23 22 26 25 24 20 21 22 24 22 24 24 33 42 42 44 46 43 23 22 18 22 24 24 21 21 36 22 16 24 34 27 20 19 25 29 36 42 46
87 53 44 35 36 32 22 28 28 27 22 23 24 26 26 24 25 23 34 48 50 39 45 49 46 36 31 29 19 24 29 16 18 27 23 15 24 21 20 19 18 24 32 40 44
74 58 39 35 34 23 26 43 29 25 24 24 27 26 28 26 25 26 28 49 51 40 42 53 55 40 39 33 25 22 20 30 26 32 33 20 21 22 26 21 21 24 26 35 40
58 37 32 38 27 26 34 35 33 25 28 27 27 27 28 29 28 30 28 48 46 40 43 50 50 34 38 36 27 27 28 26 23 25 26 25 20 17 22 24 20 22 24 26 36
73 31 36 36 35 49 44 58 58 34 32 30 29 29 30 30 31 33 31 35 44 39 41 54 60 56 39 33 36 38 31 23 35 39 29 26 18 15 18 17 17 16 18 23 31
79 75 39 36 52 59 64 58 51 45 43 41 38 30 31 32 39 40 44 43 43 41 45 56 64 54 23 28 36 39 36 34 30 32 37 30 24 16 18 19 18 19 18 24 33
64 46 47 54 61 74 80 66 58 45 51 52 48 41 40 40 40 42 46 46 45 43 59 59 57 44 40 41 45 48 39 39 36 33 34 31 27 20 18 21 18 18 20 19 26
66 74 74 67 62 66 68 71 69 66 56 53 56 57 60 54 48 48 41 46 48 50 65 58 51 44 37 38 48 46 40 33 44 35 38 30 28 26 23 20 20 18 30 38 34
70 81 70 70 78 79 76 79 83 81 82 74 78 72 90 93 56 53 48 44 47 61 63 74 49 52 46 33 44 52 37 34 35 37 38 34 34 24 43 44 43 57 60 57 55
74 80 90 83 82 87 94 95 94 91 85 70 89 96 98 93 79 76 76 74 67 54 70 69 66 50 41 39 50 51 37 32 33 40 34 37 29 44 49 64 66 65 64 67 65

GFSSW_sfc_rhum_054.txt.gz
RH
77 76 76 77 78 78 79 80 80 80 80 80 80 79 76 75 76 55 25 24 26 53 64 38 40 39 38 46 53 45 48 42 42 53 53 48 55 49 49 57 46 42 39 43 52
75 76 77 77 77 78 79 80 80 81 81 81 81 76 75 73 46 31 27 42 51 62 41 41 43 39 39 42 57 45 56 39 39 40 52 50 43 42 48 45 44 44 40 49 54
75 76 77 77 76 77 79 79 80 82 82 81 81 77 75 62 33 20 44 57 55 53 27 30 31 33 33 35 44 50 51 35 43 43 38 41 39 38 42 44 41 47 50 59 52
76 77 78 77 77 78 78 79 80 82 82 82 81 77 73 45 16 17 62 65 62 28 23 24 29 29 28 35 32 41 37 36 37 34 32 37 39 38 39 38 34 40 45 52 47
79 82 83 81 79 79 79 80 82 83 83 84 80 77 58 24 9 17 50 64 36 31 27 27 28 23 22 23 28 36 34 39 41 36 31 32 35 35 37 36 35 40 45 46 42
83 83 82 83 82 80 80 81 82 83 84 80 77 76 33 11 15 21 32 31 21 25 27 20 20 17 20 22 22 26 27 36 39 37 34 33 31 31 33 36 39 44 46 41 40
83 82 82 82 81 80 81 83 84 83 78 77 77 46 19 18 16 24 29 26 23 19 21 16 20 19 14 20 20 22 33 33 37 34 34 28 31 33 36 37 43 44 45 40 38
83 83 82 82 80 82 85 87 82 77 77 78 75 40 19 13 13 17 22 28 28 22 18 20 18 19 16 15 13 15 22 34 28 33 30 31 31 33 36 38 44 43 44 42 40
84 84 82 82 84 86 88 87 78 78 78 72 45 31 11 22 8 8 11 25 31 20 20 21 17 20 19 14 11 11 15 23 25 25 30 29 29 36 33 34 41 44 43 42 42
84 84 83 84 86 88 90 82 84 79 59 44 32 19 9 11 10 9 14 21 25 22 16 17 17 17 17 13 12 13 13 14 22 26 25 27 26 35 34 34 40 44 42 43 41
84 85 84 84 87 90 53 21 23 14 10 12 10 10 9 8 8 11 21 22 21 25 18 14 19 16 11 12 11 14 13 14 23 27 26 26 26 35 36 35 41 42 43 42 40
85 86 85 86 89 88 35 17 25 23 14 10 10 9 8 9 11 10 17 22 22 26 17 16 16 13 11 10 13 14 21 19 18 26 25 25 25 24 36 36 36 40 41 40 38
86 86 86 87 86 45 18 22 22 21 15 11 9 8 8 8 10 11 14 20 23 20 17 16 12 10 11 14 15 14 14 17 19 22 23 25 29 26 30 34 35 35 37 35 36
86 85 88 93 49 20 18 22 21 22 12 14 10 9 8 9 11 9 16 17 18 23 19 16 12 14 13 15 13 12 8 11 17 23 28 23 32 28 25 37 37 35 35 33 33
87 87 88 94 28 18 23 20 16 15 11 12 11 8 9 10 11 11 17 18 16 16 21 21 19 17 18 15 11 13 9 9 12 20 23 23 29 29 22 30 35 34 33 32 32
86 88 89 47 28 20 20 19 14 15 14 14 11 12 12 12 11 12 15 18 23 20 18 19 16 16 17 14 14 12 12 12 12 10 23 24 24 24 22 23 26 29 30 32 32
86 89 70 32 23 20 21 14 16 14 14 16 14 13 13 14 14 15 18 18 16 19 18 17 16 16 17 18 15 15 14 19 18 13 12 15 22 23 17 18 19 22 28 29 31
88 90 67 28 21 22 19 17 24 16 15 14 15 15 16 15 15 14 16 16 23 21 15 18 16 13 15 19 18 18 16 16 26 14 10 9 17 19 16 15 15 18 20 26 28
90 28 24 22 22 22 20 23 20 19 16 16 16 17 17 16 15 15 18 19 26 23 22 19 18 19 20 14 16 18 21 13 13 12 13 8 8 9 13 15 16 16 18 24 26
37 28 23 22 20 21 23 35 22 17 17 17 20 18 20 18 19 19 17 25 30 25 23 27 29 18 20 23 20 20 15 20 18 28 26 15 14 10 18 18 16 16 16 19 22
30 27 23 21 19 20 25 26 24 19 21 21 21 21 21 21 21 20 19 24 29 25 22 22 24 18 22 23 17 20 22 20 17 18 22 21 13 10 13 14 18 15 15 15 20
30 23 24 23 24 24 26 36 53 25 23 23 23 23 24 24 25 24 22 20 26 22 21 22 20 26 18 14 22 22 22 19 25 31 20 20 14 8 10 9 12 14 14 14 16
33 28 24 23 32 35 40 37 36 34 33 32 31 26 24 26 32 26 24 21 27 21 24 28 21 26 17 12 15 24 23 23 20 20 28 25 20 12 11 14 12 13 13 15 17
34 34 32 33 36 45 47 44 42 35 37 38 36 32 31 31 26 34 27 27 27 23 53 40 22 26 16 23 23 34 30 29 26 27 26 22 22 16 15 15 15 16 16 14 17
38 46 48 43 48 48 45 48 59 55 42 38 42 40 41 46 37 34 32 30 30 34 41 33 35 24 21 19 17 23 26 28 31 29 30 22 24 20 16 14 14 14 15 20 18
44 50 38 47 52 50 58 52 54 63 61 57 55 48 75 83 50 53 36 37 36 34 40 33 38 29 30 19 14 14 16 22 26 25 26 26 28 16 19 25 27 21 29 31 28
46 50 53 70 66 82 86 92 79 76 76 64 61 82 88 78 53 72 60 51 45 48 51 46 38 33 32 18 17 28 21 25 24 23 23 29 25 20 25 27 37 38 38 39 39

GFSSW_sfc_rhum_057.txt.gz
RH
76 77 78 77 77 77 79 80 80 80 81 80 81 80 76 75 77 48 20 26 24 58 69 33 31 30 27 35 35 43 62 60 68 51 47 40 51 48 49 44 39 35 38 42 38
76 76 76 77 76 77 79 79 80 80 81 81 81 80 75 75 41 22 34 40 42 51 38 28 32 30 30 30 35 53 45 78 34 39 38 34 42 49 49 39 36 36 37 39 36
75 77 78 77 76 78 79 79 80 80 81 81 81 80 77 62 29 19 46 49 53 48 29 23 24 27 28 25 31 34 36 32 32 32 38 42 71 46 41 37 34 39 47 46 36
76 78 79 78 77 79 79 80 80 81 82 82 82 78 74 42 19 17 53 63 63 32 32 23 22 26 23 26 23 30 26 34 37 30 36 42 39 36 37 59 31 34 44 43 37
80 83 84 82 80 80 80 81 81 82 82 83 82 77 61 24 10 11 47 59 36 25 28 23 22 22 20 17 20 25 26 31 30 31 32 31 30 76 42 29 29 35 44 42 36
83 84 84 83 82 80 81 83 84 84 83 81 80 76 44 15 11 18 22 32 20 18 19 17 18 17 15 14 17 17 19 38 38 27 28 30 30 25 29 28 34 38 42 37 35
84 84 84 83 81 81 82 84 86 82 78 75 75 53 21 14 10 17 19 17 14 15 16 15 13 15 13 14 13 15 21 24 36 32 29 24 30 25 32 29 36 37 39 36 33
84 83 84 83 81 83 85 86 86 75 75 76 75 40 14 8 8 13 18 18 14 14 15 13 12 15 13 10 12 16 17 28 24 33 26 25 34 22 27 30 36 37 37 36 33
85 85 84 85 85 87 90 86 83 77 76 74 51 29 10 20 8 8 13 20 18 16 14 12 15 16 14 14 13 10 16 21 28 30 25 27 46 48 25 28 34 37 35 35 34
85 86 86 86 86 88 89 86 78 77 64 32 22 17 8 9 8 8 9 16 23 16 19 20 18 16 15 14 12 11 11 13 24 27 25 26 36 76 24 26 32 36 34 35 33
86 87 86 87 87 88 54 24 29 26 13 10 8 8 8 7 7 10 14 17 21 16 17 19 20 16 14 14 10 7 9 12 13 22 27 32 38 80 25 24 33 35 35 35 33
87 87 87 87 88 88 46 12 16 16 14 8 8 7 7 7 8 12 15 17 20 24 16 12 14 12 10 8 9 9 11 12 11 18 29 39 33 28 25 26 30 34 34 34 32
87 87 87 88 89 50 14 16 13 13 14 9 7 7 6 6 8 10 11 16 16 20 17 15 11 10 10 11 10 10 10 14 15 19 22 28 35 25 29 24 27 29 30 29 32
87 86 87 91 53 13 14 14 12 12 15 10 8 7 6 7 9 8 10 14 14 16 13 13 10 11 11 11 11 12 8 8 12 17 23 21 38 36 57 28 28 28 30 27 29
86 85 88 92 30 13 16 12 10 12 12 10 8 6 6 8 9 9 9 12 14 12 14 14 12 11 13 11 10 13 9 7 8 12 18 20 27 24 22 34 27 27 28 26 27
85 85 86 42 24 14 12 11 11 14 11 10 8 9 8 8 8 8 10 9 12 14 12 14 10 11 10 10 10 10 10 10 9 7 15 19 23 24 30 26 24 23 24 26 25
83 87 74 25 17 13 13 13 15 10 10 12 9 8 9 10 10 10 12 12 11 15 13 10 11 10 13 13 11 12 13 18 17 13 12 9 18 20 19 20 24 21 23 24 24
83 89 57 18 14 14 16 16 21 11 10 10 10 10 10 10 10 10 10 11 14 13 12 11 11 10 9 15 15 15 13 17 27 14 10 8 13 16 13 19 26 37 20 20 22
86 25 17 15 15 15 20 19 15 14 12 11 10 12 11 11 11 12 11 11 12 16 16 11 11 10 10 9 12 15 17 10 13 11 11 7 7 6 11 13 20 20 17 22 22
38 19 18 15 14 17 21 28 18 13 13 13 16 13 15 12 15 14 14 14 17 18 15 15 23 12 9 12 12 13 12 16 14 26 25 12 11 8 9 12 13 14 15 23 27
40 22 18 15 14 18 21 22 19 15 17 18 18 18 16 16 16 16 16 15 16 18 15 13 18 16 10 17 16 14 16 17 15 14 20 19 12 9 9 8 12 12 14 14 18
23 22 19 16 23 18 21 25 46 19 19 21 20 20 21 19 21 20 19 16 17 17 18 13 13 17 13 11 11 11 12 12 22 28 16 16 13 7 7 6 8 12 12 12 14
26 23 19 18 28 24 30 26 26 26 26 27 26 23 21 24 29 23 20 15 19 18 18 18 19 20 17 12 11 14 13 16 13 14 24 19 16 9 9 9 9 9 10 13 14
28 28 24 23 25 28 32 33 30 27 27 29 29 25 26 27 23 27 25 18 20 19 38 25 20 22 16 18 15 16 15 15 16 20 19 18 17 13 13 13 12 11 11 12 15
29 33 35 34 32 32 32 34 37 38 30 28 34 35 41 40 32 33 25 22 23 32 27 24 26 20 16 14 14 15 17 19 24 25 33 22 18 17 14 14 13 13 13 14 14
34 36 27 32 38 35 44 47 46 44 46 36 40 39 41 47 40 48 50 47 35 28 30 23 34 27 25 16 15 16 13 14 18 21 24 24 25 17 18 20 16 14 16 16 18
33 35 33 58 38 47 48 55 53 57 48 48 55 53 54 49 38 32 29 32 52 44 41 39 46 51 33 18 16 18 12 11 12 13 16 24 22 19 20 22 22 20 20 23 25

GFSSW_sfc_rhum_060.txt.gz
RH
78 78 78 78 77 77 79 80 81 81 80 81 82 82 81 77 78 53 22 24 27 59 64 24 29 32 31 30 27 38 77 78 68 49 80 48 51 71 85 48 39 37 48 41 35
76 77 77 77 77 78 80 81 81 81 81 81 82 82 80 75 48 28 40 45 37 51 28 30 32 31 32 29 30 46 77 86 61 44 49 40 38 46 52 40 38 40 38 37 34
76 76 78 78 77 78 80 81 81 81 81 81 81 82 79 67 41 19 54 51 49 44 33 22 23 27 30 26 28 32 48 64 45 38 35 41 53 58 44 42 40 49 46 40 35
77 78 80 78 78 79 81 81 82 82 82 81 81 81 76 47 26 21 59 63 60 24 34 29 23 28 29 29 23 34 32 35 38 30 28 40 71 67 87 62 33 40 39 39 38
81 83 84 83 81 81 81 83 83 84 84 81 82 80 65 33 18 22 65 60 33 24 31 32 25 24 26 21 20 23 25 29 32 32 29 37 72 85 78 72 52 38 39 39 37
84 85 85 85 84 81 82 85 84 87 82 82 80 77 44 28 9 14 17 33 20 15 28 27 21 18 18 17 16 17 17 21 29 35 34 39 44 39 68 55 39 42 41 37 36
85 86 86 86 83 81 83 85 84 86 79 73 76 52 37 18 8 12 16 24 18 11 21 21 16 16 16 15 12 13 18 19 28 34 48 38 64 52 64 62 42 42 41 36 33
85 85 86 86 85 86 88 88 85 85 74 74 75 45 26 7 7 11 14 15 14 10 13 13 13 14 15 12 11 14 16 22 21 32 25 31 48 48 65 48 42 42 39 38 34
86 87 87 88 87 87 88 87 81 83 76 72 58 44 20 18 8 8 13 15 14 14 15 13 14 15 14 17 15 13 18 20 21 31 26 26 54 51 61 40 37 38 38 37 38
87 87 87 88 87 88 88 84 63 74 63 36 29 23 10 7 7 6 7 14 17 15 16 17 15 17 16 17 21 14 14 14 19 26 25 26 40 52 66 49 36 35 36 37 36
87 87 87 88 88 87 58 21 29 36 26 13 11 10 7 6 7 8 8 14 18 18 24 19 23 24 19 14 14 10 9 10 10 18 26 29 58 48 44 42 46 34 35 35 35
88 87 87 88 88 87 47 16 13 13 15 8 6 6 6 6 8 12 11 17 24 23 16 19 26 18 10 12 12 13 12 9 9 15 23 41 62 47 33 39 46 30 33 34 32
87 86 87 87 88 49 16 14 10 10 13 10 6 5 6 6 7 9 13 14 17 20 18 17 12 11 12 11 12 10 10 10 11 12 18 23 59 61 50 67 67 26 30 30 32
86 86 86 87 56 15 14 11 10 9 17 10 7 6 6 6 8 6 7 12 15 17 15 16 12 10 11 12 11 12 8 8 9 13 19 22 48 51 71 74 89 36 28 29 31
84 84 84 89 41 18 14 10 9 10 19 9 7 5 5 6 8 8 7 10 15 13 14 15 14 13 12 11 10 12 9 9 8 10 13 17 23 30 56 68 77 54 32 26 29
83 83 86 36 38 18 10 10 10 16 14 10 7 7 7 6 7 7 8 8 10 12 11 11 9 9 10 9 9 9 10 11 10 8 12 13 18 19 48 53 68 58 61 26 27
83 85 79 30 20 11 11 14 17 15 8 11 8 7 7 8 8 7 9 10 10 14 12 9 10 10 10 12 9 10 12 19 19 16 14 8 10 19 18 35 47 61 76 29 27
85 88 47 22 13 12 15 19 24 10 9 8 8 8 8 7 8 8 9 10 8 10 12 14 11 7 8 13 14 12 12 18 28 19 14 11 11 9 10 15 34 40 40 36 25
86 29 25 17 12 14 19 23 16 14 10 10 8 10 8 8 9 10 11 9 7 12 18 12 10 6 7 7 10 15 16 10 14 12 15 11 9 7 6 10 17 31 33 54 60
52 28 16 13 12 15 20 30 18 13 13 11 14 11 12 9 11 11 10 10 10 14 14 16 20 10 8 8 9 10 10 16 16 27 28 16 16 10 11 10 14 32 38 52 54
47 26 17 13 13 18 23 21 17 14 16 17 17 16 15 14 13 14 14 12 12 14 16 15 16 14 10 13 12 12 14 14 14 16 22 22 16 12 15 11 13 22 36 50 45
28 25 17 15 24 19 26 23 42 17 18 20 19 19 20 19 20 19 18 15 14 15 19 16 16 18 15 10 8 11 14 12 18 27 21 18 14 9 10 9 8 9 13 33 42
36 22 16 16 33 27 23 22 21 22 22 23 23 20 19 23 28 22 20 15 15 18 23 19 20 22 19 13 10 12 12 12 12 12 27 25 18 9 11 13 10 9 9 30 43
39 30 22 20 20 24 28 28 28 22 23 24 25 23 25 26 22 26 24 18 18 18 36 22 21 28 24 18 15 17 12 12 13 14 16 14 18 17 13 13 13 12 13 13 32
26 26 29 32 29 27 30 30 31 32 27 23 28 28 31 35 27 25 22 27 24 27 24 22 29 26 20 15 13 14 14 13 15 17 20 16 16 16 24 31 31 24 24 16 16
33 33 24 28 30 28 41 40 35 37 36 37 38 33 31 38 35 38 30 31 33 31 36 30 32 28 30 22 17 16 14 13 14 16 17 16 24 18 20 30 27 30 41 46 20
30 28 28 41 30 33 39 42 41 42 37 33 41 43 42 36 31 29 25 24 27 35 37 39 58 60 52 28 29 26 17 15 15 14 17 23 22 19 21 24 26 28 37 62 39

GFSSW_sfc_rhum_063.txt.gz
RH
77 77 77 78 78 77 79 81 82 82 82 82 82 84 85 85 83 67 38 27 30 63 59 27 28 33 48 53 44 44 87 87 77 67 65 59 67 65 74 77 51 53 51 46 41
76 76 76 78 78 78 80 82 82 82 82 82 83 83 84 82 65 46 39 57 63 63 20 30 38 37 49 48 45 60 85 72 57 65 60 49 53 58 64 62 71 60 45 43 42
75 76 78 79 78 78 81 83 83 83 83 83 82 82 84 76 59 30 51 55 62 52 17 29 30 37 50 43 38 39 59 64 62 54 58 82 71 60 69 55 72 65 52 46 45
76 79 81 81 80 80 81 82 84 84 84 85 82 83 80 66 43 25 62 62 59 26 23 35 34 38 45 43 33 40 36 56 52 44 58 76 67 67 79 85 74 51 46 44 43
79 82 83 83 83 82 82 83 85 85 87 83 81 82 84 57 35 27 66 64 41 24 22 42 46 35 42 35 30 30 32 40 38 37 57 59 62 68 73 73 69 49 44 44 40
83 85 87 87 85 82 83 86 85 84 87 82 80 82 74 50 13 28 38 45 23 21 29 37 40 28 30 30 28 22 20 26 37 43 54 62 69 64 66 82 76 47 45 42 40
84 86 88 88 85 83 84 86 85 83 87 75 78 59 52 40 12 15 22 38 26 18 23 29 33 33 25 27 20 16 19 16 38 44 52 55 77 61 73 70 69 49 44 42 40
86 86 86 86 86 87 88 89 85 80 84 74 73 60 64 22 10 10 18 28 25 16 16 23 26 28 22 19 19 18 20 29 22 38 42 51 78 72 71 78 76 46 43 42 42
88 88 88 88 88 88 89 88 80 75 81 73 83 75 48 21 9 9 15 20 25 16 13 12 16 24 22 27 31 25 28 24 23 37 37 52 75 82 68 81 67 49 44 42 42
88 88 88 88 88 88 89 82 65 68 75 50 41 54 31 12 8 8 9 14 17 15 16 19 27 31 29 32 42 32 24 20 21 34 35 47 76 77 79 92 72 51 45 42 40
88 88 88 88 87 88 84 36 45 51 38 41 34 27 9 8 9 9 8 16 19 22 30 25 36 35 28 24 21 20 21 18 14 19 36 54 81 83 74 73 92 80 47 42 40
87 86 87 87 86 86 86 42 20 17 24 14 19 9 7 7 9 11 10 19 28 33 28 32 35 26 21 21 21 18 20 20 15 10 36 56 69 72 75 76 81 80 46 43 38
86 85 85 86 86 69 30 23 14 15 24 13 11 7 8 8 9 15 17 16 27 34 25 30 26 20 22 22 17 18 22 18 16 11 37 59 73 65 60 58 71 87 60 49 39
84 84 85 86 66 32 26 19 13 13 31 16 10 8 7 8 9 8 9 14 19 25 24 25 17 15 21 20 17 23 14 11 10 14 22 36 82 69 64 76 75 78 76 62 39
84 84 86 88 69 35 20 14 13 17 38 11 9 7 6 9 10 9 8 13 19 19 21 22 19 19 18 14 13 16 13 14 15 16 18 13 24 60 57 78 77 76 86 56 46
85 86 88 57 75 39 24 15 20 32 30 10 8 9 9 8 8 9 10 11 12 14 16 16 12 14 16 13 12 12 14 16 18 22 26 16 18 47 70 62 77 61 54 49 44
86 86 90 44 36 21 16 23 36 30 11 11 10 8 9 9 8 10 11 15 17 22 22 13 13 12 11 18 13 15 34 34 39 31 30 18 18 15 58 54 51 55 54 57 42
86 88 66 34 25 20 23 36 44 17 12 9 8 9 13 10 13 10 12 14 13 14 18 20 22 9 10 17 24 21 21 33 40 38 30 19 29 18 35 48 47 49 53 51 61
86 46 39 29 28 22 34 45 31 19 14 12 12 16 13 11 11 13 18 14 14 20 29 29 21 14 10 10 13 21 29 17 25 21 29 24 20 12 11 44 51 46 51 52 65
76 52 35 18 17 25 38 41 24 18 16 16 19 17 21 16 15 14 15 15 18 18 21 26 31 17 11 10 11 13 16 27 27 34 39 28 25 26 20 13 41 55 59 66 76
67 52 27 18 21 37 42 34 21 18 18 21 23 25 25 25 23 22 19 20 17 18 20 25 30 25 17 19 18 19 22 24 24 31 34 33 27 17 17 22 44 46 52 59 64
52 49 23 22 43 38 34 31 39 21 20 22 25 24 27 26 30 27 24 23 17 19 27 26 32 35 24 15 13 14 18 23 33 33 35 39 31 16 16 15 28 34 38 53 58
62 42 21 20 40 35 30 25 24 24 27 27 27 26 27 31 40 29 24 18 17 22 39 29 40 47 34 21 20 21 17 16 23 26 29 36 30 19 25 28 28 32 54 47 48
60 42 36 30 29 35 41 34 29 24 26 25 28 28 33 38 33 38 29 21 21 26 34 33 36 41 44 35 27 26 19 15 22 29 29 25 24 14 33 32 29 31 47 52 51
60 39 36 43 38 38 39 38 35 42 32 34 38 34 39 51 43 42 36 30 27 40 37 35 47 38 29 24 23 23 19 16 19 24 34 24 22 31 34 31 31 31 44 55 62
53 54 44 42 38 37 45 45 42 42 39 41 47 40 40 52 49 49 43 45 44 36 45 46 68 52 50 28 25 27 25 25 17 16 18 20 22 25 24 26 29 28 37 58 81
49 43 44 49 42 46 48 46 43 50 42 36 42 51 51 46 42 42 41 39 35 42 50 70 81 79 75 45 39 54 33 27 22 18 19 23 21 29 52 28 31 71 73 79 78

GFSSW_sfc_rhum_066.txt.gz
RH
75 75 76 78 79 77 78 82 83 83 83 83 84 84 85 89 88 78 55 31 32 74 66 58 53 39 58 71 59 53 89 86 70 73 75 67 66 71 72 70 52 56 50 48 52
74 76 78 80 80 79 80 82 83 84 83 83 84 84 85 88 76 60 46 52 55 66 28 36 39 36 53 66 57 70 88 68 57 65 65 67 63 67 75 74 57 60 44 44 54
75 78 81 81 81 81 81 81 82 84 84 85 85 83 87 83 74 44 50 61 69 61 18 31 36 39 56 55 55 58 66 53 53 56 60 63 67 60 63 81 85 83 52 48 52
77 81 83 83 82 82 82 82 83 84 84 86 84 83 86 80 45 28 66 62 67 32 25 28 37 49 56 62 50 59 41 39 51 51 63 64 72 71 76 88 81 68 46 48 46
80 83 84 84 84 83 83 83 84 84 83 86 83 84 88 74 35 36 66 60 51 26 24 40 53 49 52 48 44 43 38 36 41 53 59 66 71 68 74 83 71 60 45 48 48
82 85 85 85 84 83 83 85 85 84 82 87 81 85 79 48 26 39 46 53 36 24 24 34 49 45 44 43 43 32 29 24 49 59 64 67 64 64 64 72 69 58 48 46 45
83 85 87 85 84 83 84 86 85 83 80 85 77 70 66 37 24 37 45 51 33 23 30 25 37 45 46 36 28 27 25 18 51 63 63 58 75 64 76 70 68 66 47 46 44
85 85 85 85 85 85 88 89 85 81 78 81 75 78 74 36 37 28 44 40 28 23 22 26 31 38 45 31 22 26 28 31 44 53 62 56 80 83 71 78 76 55 47 46 48
88 88 87 87 88 88 89 88 80 74 78 76 92 91 62 33 10 10 20 36 33 26 20 14 23 27 29 31 36 34 37 27 27 46 61 59 85 75 75 75 76 55 47 45 48
88 88 87 87 87 88 89 87 73 73 80 64 56 69 37 24 11 10 11 26 27 25 20 19 25 39 40 39 48 40 37 27 24 39 61 65 78 83 76 76 70 60 48 47 46
88 87 86 86 86 88 91 62 35 47 61 52 51 36 18 13 10 10 9 15 21 23 31 32 44 50 40 32 28 28 28 27 22 18 64 65 92 85 87 75 80 80 57 48 45
87 86 86 85 87 87 95 48 29 19 25 24 28 28 22 10 11 12 11 20 30 35 34 39 44 33 26 25 26 28 29 27 20 26 47 75 90 84 87 76 75 72 61 55 43
86 86 86 88 88 77 47 30 23 33 32 19 15 20 11 9 11 18 13 16 33 37 35 44 34 25 26 28 30 32 33 26 24 46 65 80 95 88 85 67 74 70 66 61 47
87 87 87 87 61 56 34 26 22 19 34 22 17 10 8 9 11 13 15 16 26 36 37 34 25 22 28 29 30 38 20 18 16 18 48 60 92 90 88 80 85 81 78 78 53
87 87 89 92 92 44 22 30 28 20 39 16 12 8 9 10 11 10 11 14 23 24 26 29 25 25 25 21 24 26 17 18 21 24 22 37 52 55 78 92 91 87 73 70 66
88 88 88 82 96 62 45 34 23 32 38 13 10 10 10 11 11 11 13 13 15 19 20 18 16 20 21 18 18 14 20 20 26 27 33 25 20 49 75 64 83 85 70 65 55
87 88 89 65 40 37 33 31 33 36 16 13 13 11 11 11 11 12 15 19 19 20 21 16 14 12 13 19 18 18 26 35 36 34 33 29 23 19 62 51 65 72 69 52 45
88 91 87 54 53 41 36 36 44 21 25 14 11 10 12 11 14 12 14 16 18 24 22 23 21 16 13 17 26 29 24 33 40 38 37 26 28 17 23 45 46 56 55 51 53
91 74 60 42 45 40 34 53 41 29 23 22 15 16 20 13 13 13 20 25 24 27 29 33 26 17 14 14 16 18 30 24 31 54 33 30 24 20 20 41 49 48 55 55 53
96 80 60 36 38 33 41 52 34 25 22 23 32 28 34 29 26 16 22 23 23 22 28 33 31 24 16 15 16 20 18 23 34 44 46 35 32 29 29 39 56 52 61 58 59
83 61 38 29 28 38 48 45 26 24 24 27 30 31 33 35 32 32 30 24 21 22 25 43 33 28 19 25 28 22 23 25 29 36 41 41 32 30 45 41 43 56 53 53 68
90 48 25 32 46 55 44 32 36 29 27 31 29 32 36 34 36 33 30 25 21 25 33 33 38 42 33 24 20 20 26 30 39 35 43 42 37 33 37 38 39 51 49 48 61
91 82 33 29 58 58 43 28 29 31 35 32 35 35 36 41 41 34 30 25 26 32 40 33 46 49 32 32 29 29 26 37 27 39 35 37 33 29 28 32 43 56 66 53 66
83 49 45 43 50 55 53 46 43 32 37 36 39 38 42 47 46 48 42 32 29 33 42 36 45 46 48 44 34 33 27 25 31 39 37 37 28 26 30 30 46 59 75 74 74
74 62 52 59 52 54 46 48 48 50 41 44 48 44 52 66 58 55 50 44 35 43 40 40 50 49 46 37 32 32 29 28 35 39 34 28 27 33 51 57 72 65 74 80 86
62 62 60 63 53 52 68 65 58 54 50 55 58 51 58 73 76 75 64 64 58 44 51 63 67 71 68 44 42 44 38 36 32 29 33 27 27 66 62 67 76 78 78 84 88
74 73 54 66 69 70 69 64 58 62 51 46 52 61 65 55 51 55 57 59 57 68 52 73 80 84 86 55 51 57 44 41 42 52 61 46 73 68 70 68 75 80 78 83 88

GFSSW_sfc_rhum_069.txt.gz
RH
75 76 79 81 81 80 81 81 82 83 83 83 84 84 85 88 89 86 54 28 36 61 73 72 70 51 66 77 66 60 92 90 70 76 86 75 75 83 69 58 45 60 62 65 76
76 78 81 82 82 82 82 82 82 83 83 83 84 84 85 89 85 68 48 44 50 75 58 64 58 44 78 79 70 78 94 75 60 64 79 69 72 79 73 64 63 56 55 71 76
76 80 82 83 82 82 82 82 82 83 84 84 84 85 86 89 82 39 51 51 61 74 25 35 36 42 59 60 72 80 80 59 58 56 60 64 68 76 73 88 76 64 69 74 76
79 82 83 83 83 83 82 83 83 84 84 83 84 84 87 89 50 32 59 65 63 53 21 31 44 54 62 69 57 69 49 56 48 54 61 66 70 75 70 81 72 68 63 68 72
81 83 84 84 84 83 83 83 84 84 84 82 86 84 88 76 35 43 58 67 60 31 26 35 52 53 59 57 52 57 47 40 39 50 60 66 70 75 85 87 77 62 58 63 66
83 84 84 84 84 83 83 84 85 84 83 81 84 89 81 36 23 53 43 57 41 27 26 46 48 50 54 48 51 40 39 36 34 61 65 65 70 60 76 81 78 76 56 56 59
84 84 84 84 83 82 83 85 85 84 82 80 80 73 76 29 33 48 48 46 36 24 27 28 43 50 53 52 36 38 43 28 67 71 70 62 73 67 68 72 86 64 50 49 55
84 84 84 83 83 84 86 88 86 82 79 82 78 83 72 39 39 44 51 41 36 28 27 23 36 42 51 43 28 30 31 34 74 66 62 64 80 72 80 76 74 61 49 51 52
86 85 85 85 85 88 89 89 83 75 77 82 94 89 64 40 32 27 46 42 34 30 25 18 32 36 32 38 41 37 43 35 73 67 64 73 87 75 76 73 74 65 51 51 49
88 88 88 88 88 88 90 86 78 84 80 66 62 72 38 22 14 18 41 32 34 27 22 21 27 38 47 46 54 45 42 37 32 64 67 79 81 81 82 78 75 67 54 49 49
87 88 88 88 88 90 91 73 40 45 71 43 40 35 27 19 10 12 17 30 23 25 31 26 41 53 45 38 34 32 34 33 26 28 71 74 90 87 85 82 79 70 58 51 50
87 88 89 88 90 91 94 43 38 33 30 30 37 36 30 27 14 13 14 29 29 36 35 41 50 39 32 33 31 33 39 36 27 34 45 67 94 84 89 79 76 70 57 53 49
89 89 89 91 91 84 50 32 29 38 35 21 24 24 20 20 12 13 13 21 33 39 38 44 36 29 31 34 34 39 43 38 33 43 75 82 94 88 85 77 76 74 72 58 48
89 89 89 89 57 61 36 32 38 26 33 20 21 16 11 10 14 15 15 19 33 38 38 40 32 30 33 34 35 52 31 28 24 24 27 74 95 91 83 86 82 79 78 72 55
88 88 90 92 88 50 25 47 42 20 37 20 16 9 11 11 12 12 12 15 23 27 40 44 32 32 29 28 31 35 28 24 21 25 62 57 59 61 88 89 84 82 79 70 64
88 90 88 89 94 66 56 41 22 30 35 16 11 11 11 12 12 13 13 12 15 17 22 19 18 22 25 22 23 21 23 25 30 31 33 32 29 41 89 75 72 73 80 66 56
89 91 92 70 33 46 39 30 32 37 20 15 14 12 12 14 14 17 17 18 22 24 25 19 18 15 14 22 21 22 28 36 37 36 33 33 25 22 42 58 55 66 75 66 55
91 95 89 66 64 48 35 32 42 28 31 24 15 12 12 13 16 14 18 20 25 23 26 22 23 19 15 21 25 28 27 35 38 41 35 33 30 21 19 34 51 57 59 65 59
93 77 68 51 57 50 35 47 47 36 28 26 26 29 32 26 15 21 30 32 27 30 30 33 29 20 16 16 20 25 32 30 38 44 33 32 26 22 34 41 58 59 63 70 61
93 82 53 44 42 35 38 50 41 30 29 28 35 34 38 33 28 24 31 26 26 26 33 36 30 27 18 17 17 20 21 32 36 42 43 36 35 34 46 44 62 61 66 66 66
80 47 33 37 33 39 50 41 31 26 28 33 39 39 40 38 35 33 31 26 24 24 28 46 32 26 23 27 28 27 30 33 35 40 44 43 38 39 47 46 48 60 58 65 56
82 48 26 35 47 62 48 34 41 34 32 34 36 39 40 43 42 37 38 34 28 31 35 41 42 41 36 28 22 26 32 35 37 39 46 46 54 30 34 41 64 80 78 66 55
84 84 39 36 55 63 47 38 37 40 44 39 44 40 42 50 49 44 38 32 35 32 42 36 46 44 36 31 30 33 31 41 36 46 42 46 38 25 44 76 74 86 87 80 79
66 58 48 49 66 58 63 55 48 36 41 43 46 46 47 56 54 57 48 37 33 43 49 38 48 41 42 47 39 38 34 31 40 48 46 38 33 58 79 94 86 84 86 85 91
67 69 68 69 59 61 58 54 54 58 46 48 52 55 59 76 71 70 60 52 37 49 50 40 58 62 55 45 46 48 44 41 46 42 44 34 42 70 70 83 88 77 81 83 89
71 74 62 77 70 61 73 73 62 61 55 58 62 58 61 75 76 80 72 76 71 52 55 68 78 77 68 49 46 50 42 38 38 36 40 45 51 75 68 74 80 82 81 84 87
89 85 60 74 74 76 78 75 62 65 52 53 56 65 66 61 55 58 60 66 72 72 62 75 80 84 82 60 50 51 50 45 64 73 66 53 84 78 75 74 81 86 83 87 90

GFSSW_sfc_rhum_072.txt.gz
RH
75 77 81 81 81 81 81 81 82 81 82 83 83 84 82 83 88 94 59 28 34 57 72 78 68 64 71 80 71 65 93 91 69 79 86 73 83 92 84 56 53 59 68 77 85
76 79 81 82 81 81 82 82 82 82 82 83 84 82 83 84 94 80 49 44 47 69 74 69 72 60 91 85 75 82 97 81 58 70 80 80 76 74 67 58 73 80 81 85 84
78 81 82 82 81 81 82 82 82 82 83 84 84 84 85 92 86 43 53 49 62 64 57 43 48 49 67 68 80 75 90 68 59 61 65 74 75 69 73 82 74 91 91 86 84
80 82 82 82 82 82 82 82 83 83 83 83 82 85 88 92 46 44 56 61 66 37 38 40 48 60 73 76 62 77 63 58 56 63 70 73 78 76 70 80 70 75 82 86 88
82 82 82 82 82 82 82 82 84 84 83 83 82 86 88 70 39 50 54 60 68 44 32 42 55 60 71 64 58 66 58 50 44 60 62 65 67 87 86 75 62 70 74 82 84
82 82 82 82 83 82 82 83 84 84 83 81 83 89 80 27 24 53 61 64 54 32 28 43 51 51 55 54 55 46 47 43 43 66 70 71 75 66 84 79 76 72 74 73 74
81 83 83 82 82 82 82 84 85 84 83 80 85 78 73 20 40 47 60 55 37 26 29 42 47 53 57 60 42 40 43 37 76 80 74 65 78 73 79 84 85 79 74 69 66
81 80 82 82 82 83 86 87 87 84 82 80 80 88 76 40 52 48 42 43 32 30 26 27 39 47 52 45 31 32 34 35 79 75 71 70 76 75 79 77 86 74 69 65 64
83 83 83 84 85 88 89 88 85 77 78 83 94 94 67 52 45 48 48 39 35 31 28 17 39 51 32 40 43 40 46 34 70 68 72 83 83 81 79 76 87 72 63 59 62
87 88 88 88 89 86 86 86 81 85 80 72 66 79 40 30 21 40 50 29 35 29 27 28 36 39 49 50 62 49 42 39 36 74 76 85 89 90 85 82 75 65 59 58 60
87 89 89 87 89 86 89 72 37 45 83 44 39 36 29 25 14 30 43 30 27 31 33 29 41 49 44 42 38 35 35 38 30 41 76 83 88 90 88 81 79 66 60 58 55
89 90 89 86 88 89 92 42 32 35 40 40 44 42 33 33 19 14 34 33 33 35 39 44 53 40 37 39 34 36 39 38 31 29 50 70 98 91 86 82 78 76 65 59 53
90 90 86 86 91 84 53 34 36 47 44 24 33 31 24 27 20 15 29 31 32 41 41 46 40 32 34 36 35 47 47 39 33 32 84 85 84 95 86 80 76 78 70 60 54
90 88 88 90 54 66 38 44 48 40 30 19 24 18 14 13 14 14 16 24 38 40 38 39 35 32 37 38 37 64 35 31 30 29 36 79 90 91 92 95 84 83 80 77 54
90 89 89 88 87 51 33 54 51 20 32 20 18 12 13 12 15 14 14 19 32 41 43 44 36 39 39 35 34 37 32 32 31 31 69 62 58 68 93 94 88 82 74 75 69
88 92 89 91 94 64 56 50 23 28 39 16 12 12 12 12 15 14 14 13 19 18 25 33 20 30 31 26 30 26 24 27 30 32 33 46 37 33 90 80 72 68 69 64 66
90 94 92 70 30 52 48 28 34 40 26 24 15 12 13 14 16 17 18 25 25 28 29 20 18 18 16 22 24 25 32 41 39 37 34 36 30 28 26 26 44 53 60 62 61
93 96 93 71 69 62 33 35 45 31 33 26 23 24 20 17 17 25 25 32 27 23 27 25 28 22 17 22 26 29 31 37 39 44 36 37 33 38 34 39 51 53 62 62 63
93 80 62 53 59 52 32 52 49 43 32 30 30 31 33 28 18 27 34 35 31 34 29 29 31 21 18 18 22 28 36 37 40 54 35 35 33 27 33 42 50 62 71 74 72
90 70 45 39 49 39 36 50 39 33 33 33 38 36 39 36 28 32 34 29 29 29 35 37 31 28 20 19 20 23 26 33 38 42 43 39 52 54 44 45 68 86 87 76 77
75 41 34 42 40 38 50 43 32 32 30 37 41 37 38 38 35 38 42 32 37 29 31 51 33 27 28 34 35 30 33 35 39 44 43 46 57 43 50 66 86 84 87 88 75
67 48 34 36 44 64 58 43 49 38 36 35 38 42 42 44 46 40 47 43 38 32 34 44 42 46 42 30 27 31 39 39 38 36 49 53 47 70 85 83 78 83 81 87 86
75 74 41 38 51 66 56 45 41 44 49 46 45 42 44 56 53 48 42 34 36 42 41 36 45 45 42 33 33 36 36 42 41 47 48 52 49 61 72 76 78 83 82 84 88
61 58 52 56 70 66 70 60 53 39 46 47 55 52 53 62 64 63 52 38 37 50 51 35 46 43 39 43 44 49 43 40 43 48 50 42 42 69 77 80 84 79 74 76 85
67 75 72 74 66 68 69 65 60 65 49 51 58 60 64 73 73 72 62 52 38 53 54 43 64 60 58 48 46 50 47 44 49 47 45 39 56 81 76 84 88 80 76 78 84
78 66 73 84 76 68 76 73 66 62 58 60 65 61 63 78 78 79 74 73 76 53 58 70 86 73 71 52 50 50 45 43 42 42 45 43 69 79 75 80 82 82 83 86 88
96 86 61 78 78 79 83 77 63 65 54 56 59 66 68 64 62 71 69 69 73 73 66 77 82 81 75 69 54 65 55 51 71 79 81 67 88 78 74 80 79 78 75 77 80

GFSSW_sfc_rhum_075.txt.gz
RH
77 79 80 81 80 80 80 81 81 81 80 81 82 81 80 78 82 76 35 23 28 58 66 61 56 59 54 59 61 58 86 80 63 66 80 71 84 90 81 60 50 53 59 61 64
78 80 80 80 80 80 81 81 81 81 81 82 82 81 81 79 72 51 34 43 48 71 51 44 55 60 59 60 59 66 77 65 54 59 70 78 88 77 65 60 73 69 63 69 71
80 80 80 80 80 80 81 81 81 82 82 82 82 79 85 82 53 21 48 49 56 68 41 34 48 55 60 60 63 71 68 54 50 55 58 79 83 70 60 68 68 84 80 74 73
80 78 80 80 80 81 81 82 82 82 82 82 81 81 87 73 17 30 57 56 65 43 31 34 45 55 60 61 55 73 54 51 49 54 59 69 63 73 66 73 59 69 70 74 76
82 82 81 80 81 82 81 82 83 83 82 81 79 81 74 39 17 46 54 67 43 33 27 33 39 49 56 55 53 58 50 41 39 50 54 59 62 70 84 71 64 68 73 74 71
80 81 80 80 80 81 81 82 84 84 82 81 78 84 53 15 25 40 38 60 38 25 28 31 33 40 47 48 46 39 37 31 33 38 54 55 64 63 80 64 74 69 68 68 64
79 78 81 82 81 81 83 85 86 84 82 80 80 67 49 13 37 38 42 45 40 20 27 31 34 41 42 45 37 34 30 38 55 50 58 52 75 61 67 65 70 64 62 60 57
81 81 82 82 81 83 83 84 87 86 83 81 78 68 45 32 39 39 30 32 24 18 18 26 33 38 39 35 26 24 22 23 59 53 59 61 70 64 77 72 75 69 61 60 58
83 83 84 83 83 83 83 86 83 79 80 82 71 65 38 46 44 32 25 25 25 19 19 18 31 38 27 34 29 25 29 24 60 56 59 66 60 74 72 76 81 74 62 56 56
88 88 86 84 83 85 85 86 84 79 74 66 59 57 40 31 32 32 33 23 24 22 20 20 26 39 34 32 42 34 26 24 41 57 57 62 60 75 71 71 74 68 60 57 54
89 89 84 82 83 83 80 54 31 44 66 26 24 33 19 20 28 31 26 24 20 21 23 22 34 40 42 33 28 24 24 24 22 45 45 48 54 66 68 76 70 64 60 54 54
90 85 83 83 85 86 76 29 25 26 29 29 34 34 26 21 19 38 25 27 21 24 24 25 35 35 30 29 28 25 26 25 23 28 31 39 62 65 68 73 64 62 56 53 49
90 86 84 85 88 82 38 25 28 27 29 19 29 25 17 20 14 32 29 25 21 24 24 25 31 31 30 30 31 28 28 26 24 23 60 58 72 74 71 68 68 59 50 47 47
85 85 86 90 62 46 29 26 34 28 20 16 17 16 18 15 11 19 27 23 25 21 26 28 27 37 32 29 26 32 24 23 25 24 21 56 44 68 70 69 68 68 57 49 46
85 85 89 86 59 34 29 32 28 18 24 15 14 11 10 9 12 18 18 17 27 26 30 31 30 38 34 29 25 29 25 24 24 23 30 47 32 48 68 71 69 67 64 52 44
87 88 89 75 68 37 34 33 19 26 31 16 11 12 10 10 10 11 13 12 19 25 27 24 20 23 23 23 23 23 20 20 20 17 22 35 24 29 38 42 40 55 65 58 47
90 94 87 56 23 35 37 22 25 31 21 23 16 10 10 11 13 14 18 20 23 33 32 18 14 13 12 20 23 21 21 24 24 22 23 22 23 38 39 44 52 60 47 54 51
93 94 82 55 44 48 24 25 42 32 30 23 20 16 15 15 20 20 22 20 20 18 24 31 26 15 14 16 20 23 20 21 32 25 21 24 25 35 33 46 62 61 53 40 46
94 50 38 28 42 34 25 38 42 37 31 30 22 18 22 18 18 21 25 24 22 22 26 22 20 15 15 15 16 21 23 17 20 24 19 20 23 24 41 57 68 69 71 67 50
59 37 28 29 36 26 28 43 34 31 30 28 29 27 24 24 21 23 27 26 28 22 21 22 22 18 16 15 15 18 18 20 21 32 28 30 37 33 71 79 78 80 83 79 68
41 29 24 26 27 28 36 36 33 29 30 30 33 32 32 27 26 31 36 29 33 26 22 19 18 22 19 23 25 17 18 23 20 24 23 29 34 60 84 84 86 84 84 86 68
34 31 26 26 30 38 39 38 48 34 36 32 32 34 36 36 36 38 39 39 35 25 24 26 21 27 24 21 21 21 24 21 21 33 30 24 36 58 65 71 77 79 81 80 80
42 38 27 27 34 40 40 38 36 36 41 41 42 36 40 43 43 40 38 30 37 38 35 24 26 28 24 20 21 26 25 23 22 24 36 23 34 55 57 61 70 74 76 80 80
38 33 34 38 45 41 45 47 44 36 39 40 44 38 38 44 42 47 40 33 31 42 50 27 29 29 19 29 28 31 27 25 21 22 29 26 31 61 63 64 62 67 71 74 79
45 48 49 45 43 48 47 50 47 49 39 41 42 46 44 44 45 48 42 35 30 44 40 30 42 40 36 32 30 31 28 25 22 28 26 29 35 67 67 67 62 57 59 64 70
48 42 47 51 53 45 55 52 48 48 46 46 49 47 44 51 50 47 44 45 48 36 43 40 50 43 46 37 32 30 30 29 26 26 27 28 46 59 64 61 58 55 53 53 55
70 52 40 63 51 42 49 50 52 48 45 44 47 50 54 51 44 43 41 42 43 44 46 51 51 50 46 44 35 29 29 29 32 44 31 30 41 53 56 62 56 46 43 47 48

GFSSW_sfc_rhum_078.txt.gz
RH
78 79 79 80 80 80 80 80 80 80 80 80 80 79 80 80 80 51 21 19 23 63 70 36 35 41 37 39 42 44 64 62 58 59 67 72 76 82 78 68 54 43 39 39 39
79 78 79 80 79 79 80 80 81 80 80 80 81 78 80 78 40 24 33 43 46 71 37 29 39 42 40 38 40 56 66 57 45 48 59 73 76 75 75 67 50 48 38 40 40
78 79 79 80 79 79 80 80 80 81 81 81 81 79 82 67 29 9 49 48 62 63 26 19 28 37 39 36 41 50 52 39 36 44 52 64 70 54 56 55 54 58 50 43 43
80 80 80 80 81 80 80 80 80 81 81 81 80 78 83 42 12 19 54 60 69 29 23 21 30 37 35 43 49 57 39 34 34 38 53 64 55 61 47 56 41 49 42 43 42
79 79 77 78 78 80 80 81 82 82 80 80 80 77 58 25 8 32 55 53 39 25 23 20 26 24 32 38 47 47 36 29 28 51 47 48 55 59 77 56 48 50 43 42 38
76 78 80 80 78 80 81 83 84 83 81 79 79 79 32 13 20 26 19 23 26 20 16 16 17 20 25 34 35 33 32 25 22 32 36 44 49 51 62 54 59 55 44 41 38
79 80 79 79 80 81 82 82 83 85 83 78 79 58 24 10 24 18 25 22 18 14 15 14 15 21 24 31 29 30 27 25 30 24 35 37 57 52 56 51 62 49 46 42 39
82 80 79 81 81 82 81 83 87 84 82 79 78 45 19 23 24 19 23 25 16 14 13 18 19 20 25 28 29 29 22 22 33 31 37 41 57 53 58 57 57 43 44 43 38
81 82 83 84 82 83 82 85 82 80 80 79 52 43 18 44 29 18 19 24 16 14 15 18 19 22 27 27 26 27 27 21 39 35 40 42 54 69 54 55 46 40 36 34 35
87 86 86 84 81 82 85 85 79 77 58 45 40 37 26 21 23 19 14 16 17 14 15 18 21 22 23 23 25 31 24 20 33 41 38 41 44 55 70 73 62 55 48 33 35
89 84 88 86 82 88 64 38 30 40 33 16 13 19 17 17 20 21 18 15 16 16 16 16 20 21 18 22 22 23 21 22 26 34 33 31 30 56 61 63 80 71 58 40 35
89 89 88 84 84 86 46 22 20 21 19 16 16 17 16 16 22 21 18 21 19 20 14 16 20 12 14 23 23 22 21 19 18 22 21 19 26 39 66 52 54 56 55 46 34
89 88 87 84 88 62 22 18 17 19 19 14 14 13 13 14 16 22 19 20 17 17 15 15 13 14 22 27 24 22 23 19 19 18 26 28 45 48 44 62 47 46 44 39 38
89 85 87 90 58 24 20 18 18 20 17 13 12 11 12 12 12 17 16 18 16 16 16 11 17 21 25 24 21 22 20 19 17 18 24 24 46 47 46 62 68 53 42 37 36
85 85 89 91 34 22 19 18 15 16 22 10 11 9 10 11 14 19 14 17 19 15 16 16 21 24 24 21 19 18 19 20 18 18 17 21 23 40 42 47 68 62 56 45 34
87 89 88 54 33 18 17 19 15 20 28 13 10 12 12 9 11 18 20 15 15 15 15 17 16 22 20 18 19 18 20 20 18 15 21 19 19 27 34 38 34 43 42 45 44
90 95 76 34 19 20 22 19 20 26 17 17 12 10 9 11 12 16 20 18 23 24 23 22 22 18 18 23 20 20 17 23 26 19 17 17 18 35 38 47 47 54 46 37 40
93 92 71 29 22 24 22 19 33 24 24 17 14 10 11 11 13 14 17 20 18 17 17 19 25 18 12 17 22 21 14 16 30 19 15 18 24 36 40 44 49 50 45 31 35
95 29 20 17 21 24 20 23 30 29 26 24 17 13 14 14 15 17 18 18 17 16 20 21 19 12 12 11 14 20 18 11 14 12 14 16 30 32 37 48 57 67 66 60 36
29 20 18 16 20 20 19 36 28 24 26 20 24 16 16 16 18 19 20 19 18 15 14 18 21 13 12 11 12 16 14 17 14 26 24 18 28 34 55 65 71 79 84 76 46
26 19 17 15 18 18 22 28 28 22 24 23 27 20 18 19 16 19 21 22 22 17 15 13 15 17 14 16 16 15 16 16 11 14 18 23 26 52 65 73 78 82 83 84 83
19 19 16 17 21 21 24 27 44 26 24 23 23 26 25 22 25 26 27 28 26 19 16 15 13 17 17 15 15 15 17 16 17 24 16 16 44 44 51 65 68 79 82 80 81
21 19 16 17 22 26 28 27 26 25 31 29 29 27 28 31 35 27 27 24 27 23 24 17 15 21 18 14 16 17 17 16 15 16 21 15 44 39 45 55 61 72 74 76 77
20 18 20 21 24 27 32 32 31 25 27 27 30 26 27 31 27 35 27 25 24 25 41 25 17 22 16 20 16 21 17 16 15 16 19 18 49 47 47 51 51 55 61 61 65
24 26 31 24 28 29 29 30 30 32 26 26 30 29 28 33 30 32 29 27 24 32 25 20 29 23 20 18 17 17 16 16 18 21 21 23 39 44 47 48 47 44 45 48 51
24 23 23 27 34 26 35 33 30 31 29 30 33 30 28 36 33 35 29 30 35 27 29 24 33 27 26 22 20 19 18 18 16 17 20 22 40 39 45 42 40 40 40 41 42
33 27 24 43 25 20 29 32 32 33 32 30 30 32 38 38 32 28 26 26 29 30 32 32 32 32 24 24 19 17 15 16 17 17 16 22 31 37 42 43 40 36 38 40 38

GFSSW_sfc_rhum_081.txt.gz
RH
78 78 78 79 80 79 79 79 78 79 79 80 80 81 80 81 81 45 18 21 23 72 77 26 28 32 30 36 34 36 65 59 53 48 73 56 70 67 56 45 38 34 29 30 29
77 79 80 80 80 80 80 80 80 79 79 80 80 81 79 81 36 19 34 52 64 76 40 26 29 32 32 33 39 40 63 50 44 36 55 59 59 64 61 53 45 35 27 29 30
79 79 79 79 78 78 79 79 80 80 80 79 80 80 80 67 29 9 55 55 59 67 22 18 22 29 31 27 41 44 54 40 43 38 45 52 66 53 63 58 47 40 34 33 31
77 77 77 77 78 78 79 79 80 81 81 79 79 79 80 40 17 24 59 60 60 35 20 16 21 29 27 31 37 42 40 34 42 39 44 55 48 56 55 56 42 35 32 32 32
75 77 79 80 80 79 80 81 82 82 82 80 78 78 56 22 11 30 54 52 25 31 20 15 22 24 26 27 39 37 33 25 28 40 40 39 47 50 52 43 42 34 32 32 28
79 79 79 78 80 80 81 81 82 82 81 80 77 80 38 15 11 23 20 17 16 22 17 14 18 18 19 31 47 31 31 22 21 34 42 42 46 44 46 44 43 38 33 30 27
80 79 78 80 79 80 80 81 83 85 83 81 77 49 23 11 13 13 13 12 15 16 15 11 11 15 18 26 26 25 28 20 21 26 34 39 52 55 49 47 52 38 33 30 26
80 79 81 82 82 80 83 84 86 86 83 81 77 32 23 8 13 13 11 12 15 12 10 9 10 12 16 18 23 27 23 26 22 23 28 46 63 52 44 49 50 38 34 31 28
83 85 84 82 84 84 82 82 86 76 80 76 47 29 16 34 20 13 14 14 13 11 10 10 15 14 17 22 24 25 24 23 27 26 30 38 65 70 41 41 43 39 34 31 29
87 87 88 87 87 86 86 84 77 80 58 36 24 21 18 15 14 14 14 14 12 13 14 17 16 16 16 21 24 24 22 20 28 28 34 56 48 48 55 52 44 42 34 30 28
88 89 89 87 82 82 68 41 41 39 26 17 13 12 12 9 13 14 13 14 12 13 16 14 17 16 15 15 14 14 17 36 27 23 34 32 46 48 61 66 68 42 36 28 26
90 90 84 81 87 88 56 17 15 14 16 12 11 9 12 13 18 15 11 16 15 16 12 12 16 12 11 12 15 18 18 17 20 21 38 62 43 50 56 67 77 69 43 32 29
90 89 86 87 88 65 18 14 11 12 15 10 10 9 11 13 15 16 14 13 16 15 13 12 10 10 10 12 19 19 17 17 18 21 18 16 30 44 45 60 74 78 52 40 35
86 85 87 89 66 14 14 12 11 12 17 12 10 10 8 11 13 11 13 13 14 15 12 11 8 10 10 13 18 19 14 14 15 18 22 18 58 36 49 45 78 68 62 40 44
89 89 86 97 26 14 13 10 10 13 23 9 8 6 8 12 10 14 12 13 15 12 12 13 10 11 15 16 16 14 13 18 15 15 17 22 37 79 42 47 74 80 64 52 43
86 88 89 51 25 11 10 12 13 18 26 11 8 9 10 10 9 12 14 12 11 11 11 11 8 14 14 13 13 11 14 17 16 14 18 15 21 79 47 48 53 69 46 49 55
88 91 80 28 16 12 12 15 22 25 22 12 10 9 11 12 11 15 16 18 18 19 17 14 13 14 12 15 14 14 17 24 24 19 16 12 21 54 35 34 40 46 40 70 49
93 94 60 21 15 15 16 21 41 26 19 13 11 11 12 9 11 16 18 18 14 13 12 16 22 16 16 16 18 17 16 18 28 18 13 11 28 39 35 38 46 42 42 36 37
95 29 22 13 14 15 18 48 40 22 18 17 12 14 12 10 12 16 18 16 14 13 15 16 20 14 15 15 15 17 18 9 10 10 10 19 37 36 36 45 58 64 52 43 26
28 15 14 11 13 16 24 44 22 18 16 16 17 15 16 15 18 16 20 23 16 14 13 16 21 14 12 11 12 14 13 14 12 23 19 22 36 34 43 58 68 79 81 70 40
26 15 14 9 12 18 56 23 20 17 19 19 21 20 21 15 16 28 19 17 16 15 14 16 16 16 13 15 15 15 16 14 10 12 15 26 39 38 52 66 78 82 82 84 79
15 15 11 11 18 15 21 19 38 19 19 17 20 21 29 23 37 42 20 20 19 15 17 13 13 18 15 12 12 11 14 14 16 21 13 15 51 35 48 58 72 80 80 77 76
16 12 10 11 27 17 21 19 19 20 22 20 20 20 19 22 27 21 20 19 18 16 19 14 14 19 18 14 13 14 13 13 11 11 20 15 49 38 47 58 67 73 72 74 76
15 14 13 13 14 18 24 24 22 19 21 22 22 22 19 22 20 24 22 19 17 16 48 32 14 18 18 16 13 17 15 13 13 15 16 21 46 42 41 49 57 59 57 60 67
14 14 20 18 17 19 21 22 22 21 19 20 24 21 24 21 24 24 20 19 18 34 21 15 20 18 15 13 11 13 14 14 16 15 19 36 39 39 40 40 42 43 45 48 51
19 17 13 16 22 16 28 22 20 21 21 22 25 21 21 27 25 26 21 23 27 21 22 16 22 19 18 13 14 14 13 13 14 15 16 30 43 34 36 37 38 39 40 42 42
19 16 17 32 18 15 19 21 21 22 21 20 24 25 29 28 24 21 19 19 22 24 28 24 22 24 20 16 13 15 13 13 13 12 15 27 36 36 37 35 35 36 38 39 37

GFSSW_sfc_rhum_084.txt.gz
RH
78 78 78 79 79 80 80 79 79 80 80 80 80 81 82 81 82 47 18 20 21 71 67 17 19 23 30 36 35 49 80 68 69 56 71 53 69 72 51 38 40 32 30 28 26
79 79 78 78 78 78 79 80 80 80 80 81 80 81 81 82 44 22 29 54 66 65 29 24 27 29 38 38 40 83 70 60 43 46 58 50 54 66 52 39 40 31 27 26 25
75 75 76 78 78 78 78 80 80 80 81 81 80 80 81 70 37 14 47 61 63 54 25 23 23 28 34 34 37 60 50 45 44 40 48 56 60 59 47 48 39 36 32 28 26
79 78 79 79 78 79 79 79 81 82 81 82 81 80 80 43 25 22 61 59 61 20 30 21 19 29 31 36 32 78 35 35 40 37 46 53 57 58 59 62 33 31 29 27 26
78 78 79 80 79 80 80 80 81 82 82 81 80 78 54 28 13 30 62 50 14 21 30 21 20 26 29 33 37 56 36 32 38 36 42 40 48 62 76 83 38 31 29 28 26
78 79 80 78 79 80 79 81 81 82 83 82 80 79 39 21 9 24 17 12 10 22 28 17 16 19 22 25 30 35 30 28 30 41 37 40 57 51 74 83 46 35 32 28 25
78 78 80 82 79 81 79 81 82 85 86 84 80 52 25 14 8 14 14 11 10 17 22 14 12 18 18 24 28 30 42 28 28 36 39 40 56 56 46 55 47 35 32 28 26
84 83 84 83 82 80 83 84 83 84 83 82 79 40 24 9 7 11 11 10 9 12 15 12 10 12 16 16 27 33 31 31 26 32 37 44 73 56 50 45 41 36 32 28 27
86 82 84 86 87 85 88 85 83 84 78 79 55 37 19 27 10 11 9 10 12 14 12 9 10 12 13 20 26 26 32 31 26 28 36 41 85 81 46 44 42 40 33 28 28
85 84 89 88 87 86 86 85 70 82 65 37 31 27 15 18 9 10 11 10 14 14 12 12 13 17 16 20 30 27 25 29 28 28 35 46 59 69 53 50 46 43 36 30 28
89 89 88 85 82 89 72 41 42 44 36 22 16 17 10 10 9 12 12 13 12 14 17 14 20 20 17 17 19 18 18 39 37 41 36 42 60 54 50 46 52 43 40 31 29
88 87 83 86 88 90 62 36 13 11 15 19 16 10 8 8 15 13 12 16 14 17 16 16 20 12 10 13 15 17 18 24 32 33 68 52 59 56 46 46 56 45 41 35 28
84 83 86 89 90 70 30 13 9 9 14 10 8 11 9 11 16 14 12 13 14 15 14 15 11 10 10 11 14 15 16 25 30 40 66 70 70 80 55 53 70 77 70 39 29
85 86 87 90 73 19 16 9 8 9 17 10 9 10 8 11 17 11 10 12 13 14 12 12 8 9 12 12 11 16 14 26 27 34 59 61 70 75 58 60 70 72 72 71 32
86 86 87 95 41 16 12 8 9 10 23 10 8 6 7 10 12 12 11 11 14 13 12 12 10 9 12 11 9 15 13 20 15 17 16 18 25 67 69 79 63 84 78 72 62
87 87 90 56 41 17 8 8 12 18 25 11 8 8 9 9 10 10 14 12 11 14 11 12 8 8 9 8 8 12 14 16 17 16 19 21 23 63 69 83 66 62 77 82 79
94 93 84 34 20 11 11 12 21 22 26 17 10 8 8 11 11 12 17 18 19 22 18 12 11 8 9 11 12 14 15 22 27 24 20 12 18 57 68 76 79 55 76 86 91
95 95 61 27 16 12 14 20 44 39 45 16 11 9 10 10 11 10 16 18 16 14 12 15 16 10 12 13 16 15 14 19 32 23 18 13 24 57 59 71 45 35 58 61 54
94 32 26 19 20 13 18 47 53 44 17 14 13 14 12 11 10 12 15 16 14 14 18 14 15 10 10 12 12 15 17 12 15 14 15 30 45 44 47 53 53 54 57 58 68
40 19 19 12 10 14 40 84 66 25 15 13 19 16 23 19 19 14 16 17 18 20 14 15 17 12 12 12 14 18 12 18 16 28 24 37 47 45 50 62 64 70 72 77 86
32 22 12 10 9 25 91 65 28 14 14 17 18 23 29 33 34 29 37 20 21 20 16 14 25 26 16 18 20 18 18 15 13 14 19 40 61 38 54 60 74 78 79 82 88
22 25 11 8 14 25 38 51 33 16 14 18 18 23 26 23 42 48 59 45 16 17 18 16 25 37 18 12 12 13 16 16 20 27 16 54 66 41 52 65 70 75 78 76 82
28 11 8 8 27 83 47 16 15 17 18 19 22 17 23 35 33 37 41 23 16 17 25 26 23 35 20 12 11 14 13 12 12 14 26 48 54 42 60 70 70 72 72 72 73
26 14 12 11 11 23 24 22 22 16 16 18 20 19 19 26 30 35 21 16 14 14 49 34 17 49 31 19 14 17 13 13 14 17 19 43 56 53 62 68 65 65 64 65 66
24 12 14 18 16 16 17 20 18 19 16 17 21 18 18 30 21 20 17 16 14 30 18 16 24 23 28 12 12 12 12 12 16 16 54 50 49 52 54 57 55 51 52 52 54
21 19 11 14 16 14 27 18 17 16 19 17 22 19 20 23 25 25 18 22 25 18 20 15 26 21 18 12 13 12 11 12 12 13 27 31 48 39 43 43 44 45 46 47 47
20 14 18 27 15 14 17 18 17 18 17 17 22 23 30 28 24 23 17 18 24 25 28 28 27 26 24 15 14 18 14 13 13 13 38 57 53 39 41 41 41 41 41 43 41

GFSSW_sfc_rhum_087.txt.gz
RH
76 77 76 78 79 79 80 80 80 80 81 82 82 82 85 87 85 67 36 23 28 66 66 28 18 28 34 51 49 63 91 92 71 71 82 60 68 69 55 43 36 35 38 41 43
77 77 78 78 79 79 79 80 81 80 81 82 83 82 84 87 69 46 35 50 59 63 23 26 23 23 34 45 50 86 90 94 67 56 68 62 64 69 58 58 46 38 34 37 40
79 78 79 79 78 79 80 80 81 82 82 82 82 82 84 83 59 28 56 53 67 58 16 24 21 26 38 41 63 86 76 56 61 52 50 58 66 57 54 52 41 42 37 44 44
78 78 78 79 80 80 80 81 82 82 83 82 81 82 84 69 42 26 66 54 66 26 16 26 34 37 43 45 56 82 55 56 49 50 54 59 56 60 68 71 40 33 34 47 46
77 78 78 77 78 79 80 79 80 82 82 83 81 81 77 58 31 36 63 59 31 20 19 37 39 30 39 37 56 54 60 50 45 52 51 52 56 67 84 70 45 31 32 49 43
77 77 78 81 81 79 81 81 80 83 82 84 83 80 80 35 22 32 22 21 12 17 22 35 35 23 30 30 45 52 46 48 47 54 46 52 58 58 77 64 63 33 36 34 34
83 81 80 80 79 81 80 80 83 82 83 83 81 61 51 30 20 28 18 14 11 14 35 30 29 21 22 28 35 51 50 36 43 55 51 70 83 68 69 62 62 35 34 34 30
86 82 81 82 84 84 87 88 86 82 82 81 79 60 52 14 15 17 17 14 10 14 26 25 20 18 19 19 26 35 52 64 44 49 57 56 96 69 66 62 55 37 34 33 31
84 82 81 88 88 88 90 88 83 81 82 79 82 71 38 24 14 11 14 15 12 15 16 16 18 20 17 23 26 39 59 50 40 40 47 57 96 85 76 56 52 41 35 33 31
81 82 86 88 82 83 88 89 77 80 81 46 35 54 34 20 14 10 12 11 12 16 17 20 20 23 24 30 41 47 50 49 47 46 50 72 75 77 64 72 49 45 36 33 32
88 85 82 84 90 91 81 60 69 64 53 37 29 29 18 14 11 13 12 11 15 23 30 21 26 31 27 22 21 25 31 48 44 67 59 76 78 80 66 58 56 44 40 33 35
87 85 84 87 91 92 89 53 36 15 22 27 27 21 16 12 14 14 14 20 21 28 22 24 30 22 19 19 20 20 26 38 49 70 73 86 82 73 61 62 54 49 44 36 35
85 85 85 88 92 84 48 33 22 13 23 15 12 22 17 11 15 17 17 20 20 23 22 26 22 17 18 16 17 18 22 32 42 60 73 85 92 82 65 63 74 74 54 57 38
85 86 86 89 83 36 30 28 24 14 30 18 14 10 12 12 18 14 14 18 19 20 19 22 16 16 16 15 14 21 16 17 46 47 64 61 92 84 83 71 72 71 70 71 62
94 87 86 89 86 37 17 11 12 18 41 11 11 8 11 15 16 18 12 16 20 17 18 19 16 16 14 13 13 16 17 30 30 42 51 56 80 84 85 80 80 79 72 79 68
93 95 90 77 78 47 26 21 18 35 35 22 10 11 13 12 11 13 15 15 15 18 17 16 11 12 12 10 11 11 13 30 32 48 72 40 61 93 88 81 76 78 73 75 75
94 95 90 50 34 19 19 22 40 40 30 27 26 17 12 13 12 13 19 24 27 32 28 20 15 12 10 14 12 13 20 39 51 45 42 29 59 90 82 68 66 66 70 77 80
94 94 79 50 28 21 26 35 58 37 39 30 26 21 20 11 12 13 18 27 22 23 29 30 24 14 11 13 17 18 27 40 48 46 37 28 87 92 62 66 70 68 70 71 79
95 62 49 28 37 33 40 59 66 44 26 27 18 19 20 14 17 16 19 23 21 20 31 29 21 12 11 13 17 22 27 22 28 26 33 82 80 72 66 70 69 80 79 72 74
79 40 25 19 20 32 54 80 58 32 27 23 25 28 47 36 42 59 34 24 19 19 29 31 39 16 11 14 16 20 25 26 33 45 44 88 92 92 81 88 83 86 87 88 85
63 39 22 17 19 46 86 67 43 32 29 21 26 32 41 44 47 65 66 43 28 22 22 25 45 35 18 16 21 30 37 42 29 32 39 81 88 80 80 81 88 88 89 92 96
33 44 21 16 38 62 82 50 48 20 18 22 24 29 51 59 46 58 61 61 39 30 28 38 42 50 35 24 18 25 28 32 41 39 45 71 98 80 85 78 82 86 88 90 93
48 38 15 12 44 74 61 45 36 23 23 24 28 25 29 53 59 46 46 42 38 25 42 38 51 57 39 26 19 24 24 34 27 30 32 52 95 83 81 78 81 86 81 86 89
51 42 24 23 28 40 48 39 29 17 18 21 23 28 27 38 38 44 39 25 17 22 54 40 43 50 58 45 40 25 19 18 34 37 64 72 98 87 82 81 81 80 75 76 82
50 31 27 29 25 25 28 26 19 22 19 26 37 27 30 49 43 37 31 21 17 38 27 36 58 39 36 34 30 24 17 16 25 56 71 75 85 81 78 74 74 70 66 68 72
42 37 27 25 27 28 36 28 21 19 24 25 31 28 29 43 45 46 34 32 37 27 32 33 45 39 43 30 18 17 15 15 18 40 55 58 80 66 61 60 59 56 56 58 60
46 40 47 43 25 22 27 24 19 26 22 18 26 46 39 35 30 30 27 27 34 45 43 40 46 50 56 24 19 26 18 18 25 40 57 81 83 60 61 53 53 54 52 54 52

GFSSW_sfc_rhum_090.txt.gz
RH
77 78 78 79 79 79 80 80 81 81 82 82 83 84 84 88 88 76 45 24 29 67 60 41 48 27 41 59 53 64 95 92 78 85 91 70 62 66 43 45 42 42 55 54 56
78 78 79 78 80 79 80 80 81 81 82 81 83 83 84 87 83 63 43 52 55 67 43 29 29 23 38 44 54 83 94 89 66 64 72 61 63 65 49 44 47 55 52 56 60
77 78 78 78 79 78 79 81 81 82 82 82 82 83 84 86 74 38 55 55 58 64 21 20 24 25 35 35 65 83 94 72 66 52 57 64 69 60 59 67 50 63 62 56 55
77 76 77 78 77 78 78 80 81 79 82 83 82 82 84 87 44 26 67 58 63 46 22 18 31 35 45 45 71 74 78 70 67 54 58 61 58 72 64 57 42 51 53 54 57
76 76 77 78 79 80 79 79 81 81 81 81 82 82 86 71 40 29 69 60 56 26 20 21 40 46 53 48 74 72 69 58 62 55 56 50 60 73 65 54 42 44 47 52 51
82 80 79 80 79 80 79 80 80 81 81 81 80 81 86 35 19 46 43 38 24 22 21 26 43 38 38 34 57 59 56 54 60 63 64 57 67 59 68 53 45 47 47 45 46
83 82 83 80 80 80 81 81 85 84 81 81 79 71 69 28 22 34 24 22 17 18 30 19 32 45 35 23 42 43 66 70 58 56 56 58 70 69 56 58 41 49 49 48 45
82 81 80 79 80 81 82 89 87 83 81 79 77 77 55 25 25 22 26 19 12 17 18 32 32 37 32 20 17 55 62 82 67 64 62 61 89 71 63 62 61 37 41 44 41
84 81 81 81 82 81 83 88 85 81 78 79 89 85 47 31 25 18 21 18 13 15 18 15 26 31 23 26 33 35 72 70 77 52 66 70 91 88 67 70 56 40 36 38 43
84 84 82 81 82 89 92 89 84 81 79 63 47 62 42 24 15 15 19 16 15 17 21 23 30 31 29 32 42 41 65 66 63 68 68 81 82 87 77 71 59 42 37 38 40
84 84 84 83 86 94 94 76 65 72 74 38 34 43 28 22 16 14 15 16 16 24 32 30 30 32 26 26 25 28 29 29 66 67 78 86 75 83 78 82 83 53 40 41 40
85 85 85 85 86 94 98 68 47 32 28 46 29 32 24 23 19 15 15 18 22 33 35 32 34 24 21 22 24 28 25 54 73 73 79 90 81 70 76 78 67 51 44 39 39
93 87 86 86 89 93 71 44 34 29 36 20 33 32 29 23 21 17 18 23 26 33 32 36 25 19 22 23 25 29 25 36 58 78 81 88 89 79 68 84 80 64 60 38 39
94 88 86 90 70 62 42 32 35 27 36 24 20 14 15 20 19 15 18 21 24 28 28 30 21 21 22 25 26 32 15 17 70 70 86 83 91 84 85 76 73 64 75 68 39
93 95 89 87 93 51 26 32 33 23 49 22 16 10 14 17 22 22 16 23 27 22 24 26 23 23 24 23 21 20 14 16 51 59 78 71 86 83 87 89 83 73 76 70 64
93 95 93 91 94 68 50 42 26 37 42 33 18 23 18 17 17 15 19 20 20 24 24 20 16 18 19 15 14 13 16 34 49 78 80 68 81 95 87 82 78 80 73 72 69
94 95 90 62 45 40 37 34 45 51 36 34 37 32 27 17 16 16 21 26 29 37 37 24 22 18 14 18 16 17 25 46 62 80 72 45 68 68 67 66 70 72 67 73 70
94 93 93 71 67 47 44 45 65 41 47 35 32 23 29 19 17 16 22 32 30 31 39 40 36 21 15 17 18 20 20 50 61 66 47 64 84 83 64 64 62 63 63 67 70
95 93 81 57 63 52 48 70 76 54 36 34 33 36 43 37 46 45 52 33 27 28 36 42 34 20 16 13 15 19 33 28 44 39 44 87 85 72 78 81 77 79 77 74 68
92 65 44 36 39 49 57 70 63 42 38 39 44 43 58 51 56 66 62 41 39 31 35 35 41 30 20 15 16 21 22 38 40 39 47 92 94 94 97 95 89 92 97 96 84
79 43 32 28 41 54 70 71 49 39 38 39 38 47 64 63 63 78 68 40 32 36 38 51 46 35 33 27 22 29 36 42 33 44 43 82 94 89 96 92 95 94 95 95 97
68 50 31 31 52 91 81 73 50 40 36 30 36 54 62 63 63 64 59 46 40 39 42 45 53 57 40 31 22 31 32 37 42 38 63 81 98 85 91 90 91 94 94 94 97
66 57 35 28 60 79 75 47 43 45 37 30 33 33 53 57 65 52 51 40 41 33 40 36 57 68 45 37 30 27 28 38 38 41 43 66 95 91 88 90 92 95 94 96 97
68 54 28 29 52 56 62 58 38 29 33 22 26 29 37 50 52 48 50 34 29 29 55 51 63 64 74 54 43 34 28 26 31 41 84 95 97 98 90 88 87 86 88 90 95
67 46 28 28 28 45 60 49 30 27 25 30 36 34 42 51 46 41 36 33 22 48 41 47 70 62 48 38 36 34 32 22 37 57 66 91 89 91 81 89 82 78 78 80 88
60 60 60 54 34 28 44 34 25 26 24 29 45 37 41 47 49 52 39 38 39 38 49 43 53 57 52 36 30 22 20 20 39 53 84 84 90 79 80 78 75 71 67 73 78
72 62 62 66 36 34 44 36 33 33 29 32 40 48 40 34 32 35 37 34 34 36 43 43 55 69 67 50 37 35 31 31 40 58 80 92 91 78 76 70 68 62 63 65 63

GFSSW_sfc_rhum_093.txt.gz
RH
77 77 77 78 78 79 78 78 79 79 79 81 81 84 84 86 87 86 48 22 32 60 68 69 63 47 44 60 57 72 97 90 81 93 78 64 58 58 52 58 51 53 60 63 67
77 78 77 77 77 77 76 77 78 79 78 80 82 83 84 86 91 74 42 42 50 73 40 46 43 31 52 51 57 85 95 85 72 81 79 64 59 57 63 60 68 63 59 62 71
77 77 76 77 76 77 78 78 80 80 79 78 81 83 84 88 70 25 51 54 60 70 28 26 23 26 38 38 64 83 89 73 67 66 61 64 72 48 57 74 68 71 71 71 70
76 76 76 78 78 78 78 79 78 80 81 77 79 83 84 94 28 29 67 61 63 57 25 21 30 35 70 58 70 78 84 85 63 65 65 66 65 50 56 62 58 62 66 69 72
78 80 79 80 79 78 79 79 79 80 80 79 78 80 87 65 32 18 68 60 59 46 27 21 40 52 61 56 77 76 66 64 74 65 61 60 65 62 70 58 58 59 65 70 70
80 80 79 79 80 79 79 79 80 80 80 79 76 77 88 20 11 46 48 58 48 28 23 24 38 42 50 47 68 59 68 70 70 74 68 66 76 64 64 57 59 60 64 63 61
82 79 78 78 79 80 80 80 82 82 81 79 75 75 76 21 28 44 44 44 30 23 24 21 31 48 46 44 46 53 72 74 74 78 62 65 76 79 59 56 60 60 59 59 56
83 80 79 79 79 80 81 83 85 84 80 77 74 83 44 24 28 28 26 21 17 24 26 26 21 44 48 37 22 58 71 78 64 61 64 68 90 71 64 55 57 55 53 54 52
81 82 82 80 81 82 88 90 86 82 78 77 90 85 36 33 29 20 27 22 14 16 21 16 30 37 34 30 33 42 79 77 75 69 61 70 88 79 69 63 56 51 50 52 52
83 85 83 82 83 85 94 88 81 81 80 70 58 67 42 26 22 19 26 17 16 15 20 23 30 39 34 33 45 46 58 69 66 68 67 83 77 80 70 72 60 50 50 50 51
89 85 85 85 84 86 93 81 64 62 79 30 32 37 31 24 20 18 22 20 20 26 32 32 38 41 32 28 27 30 27 44 74 80 82 84 82 78 75 77 75 52 45 48 55
93 87 85 86 86 86 92 57 48 40 43 42 41 36 29 27 29 19 18 23 24 31 35 40 44 30 23 23 25 34 28 86 82 78 82 90 86 77 79 78 83 57 47 48 54
94 94 87 88 89 93 71 45 39 47 47 27 42 38 30 30 30 26 18 21 24 33 39 44 33 22 23 26 27 36 28 60 86 81 78 83 91 83 74 78 82 74 65 43 51
94 95 90 93 71 71 46 39 37 34 38 24 23 18 24 22 24 16 18 21 31 27 32 36 28 24 27 28 29 57 24 21 75 84 89 72 90 80 74 81 83 76 72 42 47
94 95 96 88 88 47 31 49 43 25 46 24 22 13 18 18 23 23 20 24 29 29 30 33 29 29 28 27 25 29 25 17 64 78 92 85 95 78 85 85 90 92 73 68 44
94 95 92 92 93 70 61 49 26 35 45 36 26 29 21 18 18 18 22 22 23 29 28 26 21 24 24 21 22 24 19 42 73 83 84 80 85 85 94 80 82 77 70 74 56
93 94 89 68 40 51 48 35 45 48 38 35 37 35 31 22 18 19 21 31 34 40 42 28 25 23 17 23 22 20 30 38 85 88 75 65 82 64 70 68 70 73 74 73 77
93 93 93 75 73 49 45 46 68 46 49 37 34 28 39 40 38 31 27 29 33 32 43 43 37 25 20 22 23 24 25 45 68 81 67 72 76 63 79 60 61 64 72 79 86
94 93 89 72 77 62 45 63 65 58 42 43 37 44 47 45 48 48 53 42 39 38 36 46 39 25 21 17 18 25 29 25 39 67 57 83 88 79 79 84 79 79 74 75 78
93 71 48 53 52 46 48 65 68 51 43 45 46 49 63 56 51 64 58 47 40 38 44 44 42 34 24 22 20 19 23 35 46 69 66 80 95 89 97 98 98 98 98 95 86
69 40 33 50 42 48 66 69 55 43 41 44 44 54 66 63 68 76 64 46 38 35 36 62 50 37 36 32 28 31 39 43 39 51 58 73 86 94 92 88 97 94 94 97 95
72 43 36 40 50 92 72 72 55 48 43 39 47 56 60 64 70 69 64 53 40 41 40 49 59 58 40 31 35 28 29 37 43 48 80 68 89 84 91 98 97 92 92 97 97
68 59 38 30 46 70 72 56 47 48 45 32 36 42 55 64 67 60 57 42 44 34 38 48 60 64 42 41 38 42 32 56 43 49 84 77 86 93 92 98 95 93 92 94 97
68 34 33 45 59 57 70 54 43 33 31 31 34 32 49 54 71 53 50 40 35 37 55 51 70 67 66 59 50 51 42 32 38 45 72 79 95 95 92 88 90 93 92 90 97
60 46 42 36 32 60 65 51 30 30 24 34 38 45 46 50 47 49 42 35 37 60 40 48 60 67 57 48 43 44 40 29 31 44 58 89 90 88 92 88 88 89 87 94 96
62 65 69 69 50 34 44 36 30 30 32 36 51 41 39 51 58 50 44 43 45 41 49 47 64 69 56 47 43 34 31 31 51 81 86 85 85 82 87 79 83 84 82 89 92
79 72 63 64 39 46 48 40 37 36 35 39 45 52 43 36 36 37 38 43 39 43 49 52 61 81 73 60 48 39 34 36 55 80 76 94 90 92 90 80 77 74 79 78 80

GFSSW_sfc_rhum_096.txt.gz
RH
76 76 76 77 77 76 75 76 76 78 78 76 80 81 83 85 86 94 49 23 34 51 63 75 64 58 58 66 59 78 96 90 87 88 75 69 70 63 57 58 58 57 69 76 84
76 76 76 76 77 77 77 78 76 78 79 78 77 79 82 85 97 77 44 40 46 69 68 57 56 38 58 54 59 87 96 84 82 80 72 63 64 67 64 70 73 80 78 81 80
76 76 76 75 77 77 77 78 78 77 78 80 79 80 84 90 70 18 46 47 56 62 42 34 33 32 46 46 66 84 87 77 84 77 70 60 64 55 71 80 68 87 88 85 82
78 80 78 79 78 78 78 78 79 78 79 79 79 79 84 95 17 39 58 58 65 68 25 30 28 60 75 57 67 85 79 77 82 68 61 64 62 61 62 72 62 70 76 78 82
80 80 78 78 77 77 79 78 78 78 79 79 78 78 87 52 30 24 69 57 63 59 24 28 41 73 76 72 80 81 73 77 72 64 66 62 58 61 71 66 64 68 72 76 77
80 78 78 78 77 78 78 79 81 79 79 78 76 77 87 20 14 54 58 64 59 40 32 29 53 60 55 56 79 64 63 84 90 75 66 71 73 63 70 65 69 73 75 73 73
81 80 79 79 78 77 76 78 78 78 80 77 74 76 74 19 26 48 57 58 47 27 28 23 42 49 52 52 42 61 75 81 84 77 78 77 88 72 80 67 72 74 73 72 72
81 80 80 80 80 80 81 83 85 80 79 76 70 87 29 23 30 34 30 22 26 23 25 22 22 45 53 41 26 75 73 83 82 91 86 90 97 91 89 66 71 71 70 70 67
82 81 82 81 82 84 86 89 87 82 77 72 90 85 30 37 33 24 26 22 20 22 22 15 27 45 34 34 36 54 88 78 81 63 78 80 97 82 76 64 67 69 68 67 64
87 85 83 84 83 85 87 87 80 83 81 71 63 71 42 30 28 21 31 13 15 18 23 24 34 41 33 36 50 51 62 73 74 74 70 73 84 80 78 68 64 63 64 62 65
86 86 84 84 86 87 91 90 54 52 82 34 35 36 28 26 22 25 27 22 23 28 37 35 43 47 38 32 31 39 37 62 87 91 83 85 86 87 76 78 79 68 60 60 64
93 87 86 85 85 87 89 48 44 44 49 47 47 40 33 31 28 21 22 28 25 34 40 40 48 36 27 27 28 35 65 89 85 82 83 90 92 77 77 76 74 77 59 59 59
93 94 88 87 89 92 75 44 40 44 52 30 45 42 34 30 27 27 23 24 27 38 42 46 39 28 25 28 30 40 42 89 85 81 77 86 89 91 73 78 76 74 73 64 60
93 94 96 93 68 67 52 40 41 41 37 27 28 21 31 29 26 21 20 21 29 32 39 42 32 27 28 30 30 54 35 48 80 86 80 85 87 79 75 86 81 74 73 71 61
92 94 92 88 86 49 38 52 49 28 46 29 27 16 20 23 25 26 22 23 30 30 36 39 31 32 32 27 27 37 28 47 77 87 90 89 88 75 79 83 90 86 74 67 55
92 92 86 94 98 66 60 56 28 33 56 36 30 32 23 19 18 24 25 24 26 30 32 33 25 26 26 25 24 25 26 57 73 87 91 76 76 83 95 73 78 80 76 68 60
94 88 88 76 40 57 46 32 42 54 37 37 40 36 37 40 21 21 28 36 37 45 56 33 30 26 22 27 25 25 28 55 86 90 85 84 86 72 78 71 70 79 77 74 67
93 95 93 80 82 60 40 42 68 50 51 40 39 35 42 44 49 39 28 26 36 36 45 42 41 28 23 24 27 26 33 52 79 91 77 84 86 64 79 73 64 68 71 71 69
94 94 92 76 83 69 39 60 64 60 47 46 39 43 46 47 50 53 52 40 44 38 38 48 41 28 22 20 20 29 30 29 51 70 77 89 77 76 84 86 74 76 78 81 76
94 72 49 66 67 44 46 65 60 55 47 45 56 54 55 52 48 67 67 50 39 38 42 41 45 36 27 24 24 24 25 35 50 68 72 71 90 72 99 97 94 84 83 81 83
66 41 38 62 53 48 61 66 55 46 46 43 50 56 67 64 69 73 65 48 40 39 41 54 49 38 36 36 30 35 39 45 44 62 64 73 78 91 93 94 97 94 93 92 87
63 44 44 45 48 92 68 72 58 50 48 45 49 60 64 66 73 70 65 56 43 44 42 54 56 56 38 37 37 40 39 39 46 48 73 63 71 81 83 92 89 93 97 94 96
64 62 45 36 53 64 68 60 55 48 48 37 38 46 64 72 67 62 61 45 45 48 37 42 65 60 44 43 41 46 48 59 51 73 85 59 68 87 92 95 88 93 94 96 97
59 37 39 51 62 58 69 57 48 38 34 38 40 39 58 67 74 58 52 43 39 41 53 50 70 59 57 58 54 53 46 47 45 51 60 69 91 97 93 90 94 95 93 96 98
56 52 56 43 36 65 63 41 33 30 27 42 47 48 56 64 60 56 47 40 45 53 47 46 59 59 59 51 50 49 38 36 38 39 49 58 86 89 81 85 90 90 91 94 98
66 61 77 76 49 41 47 46 34 35 35 35 50 44 49 55 53 57 50 60 61 46 60 52 67 65 59 51 51 39 37 48 45 76 90 90 94 93 74 86 92 83 86 91 93
89 80 51 67 42 48 49 44 40 39 36 40 45 56 46 42 47 46 42 44 48 50 53 57 68 77 68 61 46 41 44 48 52 73 87 86 84 95 95 93 91 89 84 89 92

GFSSW_sfc_rhum_099.txt.gz
RH
75 75 75 74 75 75 75 75 76 73 77 78 79 78 80 81 84 73 26 18 27 58 63 46 58 56 54 55 59 85 90 80 73 81 67 55 58 54 47 49 51 51 50 55 69
73 75 74 74 76 76 74 74 76 77 76 76 80 80 82 82 72 47 32 39 45 68 42 38 48 48 53 53 56 76 81 80 76 75 59 54 53 52 52 56 68 69 66 66 67
78 77 79 77 77 76 76 75 75 77 77 78 79 80 81 80 43 9 49 47 53 60 38 25 36 39 45 42 56 72 75 73 68 65 53 53 55 45 52 58 61 70 70 65 64
79 78 79 80 77 77 76 76 76 76 77 78 79 79 81 77 8 31 56 52 63 36 28 23 31 50 57 46 50 72 68 67 73 66 55 55 48 52 48 54 48 55 59 61 56
80 78 77 77 76 78 77 76 76 77 76 77 77 79 66 31 14 14 67 52 57 25 23 21 33 53 67 54 56 67 63 67 73 63 64 50 52 52 59 54 53 56 57 54 49
79 81 79 79 79 77 77 77 77 76 75 75 74 77 57 18 18 48 41 49 45 22 20 21 35 45 46 46 56 55 61 76 74 68 84 62 59 45 60 52 57 57 55 53 53
80 80 79 79 78 76 77 77 77 78 76 77 74 69 46 16 19 45 36 34 37 22 19 21 30 37 40 42 40 52 73 68 73 70 86 78 74 78 60 51 58 56 55 54 52
80 80 80 80 80 80 80 81 82 80 76 76 72 68 20 14 22 38 22 25 18 16 16 16 21 34 38 33 28 59 57 74 78 74 84 82 88 82 71 55 58 57 57 57 56
83 82 82 81 82 82 84 85 86 80 74 70 68 58 16 35 25 23 18 19 24 16 14 14 15 31 27 25 28 56 70 62 89 83 94 81 96 89 82 59 58 58 56 56 56
84 85 82 83 82 84 87 85 84 81 75 64 58 50 29 22 22 24 19 15 16 15 15 17 21 33 28 24 35 49 62 58 78 90 82 89 83 90 87 77 62 66 56 56 54
86 86 84 84 86 86 77 67 41 39 62 29 24 27 21 20 16 19 16 13 14 16 23 24 33 44 40 24 23 26 40 59 76 79 85 84 75 88 72 76 79 62 57 56 52
92 88 85 86 84 84 76 30 28 29 33 35 39 31 26 22 20 20 18 17 15 16 24 28 32 34 26 24 21 35 49 71 78 82 74 92 88 69 68 67 80 71 56 57 54
92 93 88 88 88 80 51 31 30 27 32 23 29 30 23 21 19 21 18 17 16 25 24 21 24 27 20 23 22 22 31 58 67 74 69 75 93 94 68 69 70 75 62 49 55
92 93 88 91 64 49 38 31 32 32 25 28 18 19 24 22 20 17 16 15 19 20 28 26 24 28 24 23 22 26 24 53 66 54 58 62 66 79 76 72 78 78 74 51 47
92 92 86 87 60 39 30 40 37 24 33 26 20 13 18 16 17 19 16 17 20 24 26 26 26 26 27 20 25 25 27 55 53 65 60 65 66 65 68 76 77 76 66 53 46
92 87 85 81 76 42 43 36 23 24 43 29 24 25 16 19 14 18 18 17 19 22 24 24 19 21 21 21 21 22 49 49 55 58 62 43 43 56 69 64 65 70 68 58 48
93 90 86 65 26 46 40 25 28 41 31 32 32 26 29 27 20 19 21 22 24 31 30 24 22 17 17 19 20 20 31 54 65 52 41 53 55 38 53 53 51 64 66 63 51
91 91 84 66 58 53 29 29 47 39 38 33 31 28 32 34 33 24 23 24 24 25 28 28 25 21 17 18 19 21 22 33 58 51 39 61 51 40 53 56 48 51 54 60 54
94 62 56 44 60 50 26 38 42 40 38 35 30 30 31 33 34 31 27 22 23 22 29 31 28 20 18 16 16 20 22 20 32 39 40 52 50 47 62 61 54 50 56 62 62
68 41 35 51 49 28 30 49 40 40 36 31 35 36 33 38 31 35 34 32 28 27 24 28 29 22 20 18 17 16 15 20 24 44 45 45 56 37 73 73 62 58 56 60 61
44 30 34 43 39 32 39 39 39 34 36 28 33 32 40 41 44 41 40 33 28 29 29 24 25 25 24 23 20 20 19 24 18 25 30 34 42 58 65 79 67 66 61 65 62
36 31 34 35 33 51 42 44 57 33 34 30 32 36 38 44 40 42 45 40 33 29 28 31 25 29 24 25 26 25 20 19 21 34 29 26 31 68 68 74 75 72 70 66 66
41 38 32 29 33 40 41 39 40 32 29 25 26 31 39 39 40 40 40 34 36 30 30 32 35 32 27 26 28 28 29 28 26 30 33 26 25 69 73 86 80 84 81 79 80
36 30 27 36 38 33 38 35 30 29 27 29 30 30 35 36 43 40 33 31 28 31 54 38 37 33 25 31 32 33 29 28 25 22 23 28 35 81 80 88 88 87 83 79 81
42 39 35 33 28 34 34 27 24 24 22 30 35 35 36 34 36 36 31 28 33 43 34 30 41 41 36 33 34 32 28 37 27 26 26 21 40 50 69 77 83 84 91 88 93
46 44 44 39 32 27 38 30 24 25 26 26 29 30 34 37 36 34 31 33 35 31 35 33 42 44 42 36 36 29 28 34 40 29 30 44 38 51 64 74 86 90 90 93 95
61 57 33 54 29 27 29 28 27 26 26 25 27 32 35 30 28 29 27 28 31 34 39 40 43 48 42 42 33 33 32 35 46 47 49 48 51 56 77 84 84 86 84 87 91

GFSSW_sfc_rhum_105.txt.gz
RH
76 73 72 75 73 74 73 73 73 72 74 76 76 77 80 82 84 43 16 18 20 66 72 29 30 30 27 44 51 67 90 60 46 47 51 35 42 36 35 32 29 27 30 31 28
77 75 74 74 74 73 73 74 74 75 74 75 76 78 78 82 38 20 33 45 46 66 35 29 34 30 30 37 41 62 82 56 43 36 40 34 34 35 33 33 34 30 30 32 29
77 78 78 74 73 73 74 76 74 74 74 76 77 78 79 67 30 12 47 56 55 53 20 19 26 28 36 39 40 50 70 68 43 44 30 31 33 26 27 32 32 40 40 35 31
80 78 77 76 76 75 74 74 74 74 75 77 76 77 78 40 15 19 51 59 59 24 17 17 22 32 36 42 35 56 50 49 46 46 35 33 30 33 26 29 29 33 32 32 30
78 79 80 78 75 75 73 73 75 75 76 76 76 76 51 24 13 26 54 46 20 24 17 16 20 28 38 39 34 46 53 48 46 45 38 32 31 34 32 30 28 29 30 29 25
80 81 79 78 77 76 76 76 76 76 76 75 76 79 35 20 9 16 19 13 10 18 15 12 16 21 39 42 37 45 48 55 54 44 37 34 34 29 30 29 30 30 27 24 24
81 81 80 79 78 77 77 78 78 77 77 78 77 49 23 15 11 16 12 9 8 13 12 10 10 22 31 32 26 46 52 50 67 61 51 60 39 38 30 28 31 28 24 24 23
84 83 81 81 80 80 81 82 81 80 78 77 76 38 19 8 13 15 12 12 10 10 9 8 10 18 26 22 40 54 61 72 70 78 58 54 64 40 31 30 29 25 24 25 25
88 85 83 83 83 83 86 84 84 82 79 72 53 32 12 20 16 12 12 14 11 11 10 10 13 24 26 28 42 81 80 72 89 86 75 67 68 41 28 27 27 26 25 26 27
90 89 87 85 84 86 88 87 84 82 66 37 27 23 13 12 12 9 7 10 13 10 11 12 14 29 28 27 36 76 83 70 87 87 84 90 86 59 30 30 33 30 28 31 29
89 91 90 87 84 87 68 42 41 40 28 19 13 14 13 11 11 11 9 9 9 11 11 9 13 27 25 26 24 68 88 77 90 80 82 88 86 78 59 43 52 40 33 34 34
90 92 92 88 89 88 56 19 16 14 18 12 12 13 12 10 15 12 9 11 10 11 10 9 12 13 24 31 20 22 48 79 94 78 68 90 91 87 77 52 54 43 40 33 34
91 92 90 88 89 64 21 16 12 13 19 11 10 11 12 11 12 12 9 9 10 9 9 11 7 8 24 30 22 21 62 71 81 87 80 78 92 91 81 66 61 64 54 30 32
92 90 88 87 67 14 15 14 12 14 21 15 12 13 12 11 12 10 8 9 8 8 8 10 7 8 22 24 21 23 40 60 72 61 71 60 89 88 80 83 78 56 52 45 27
91 86 85 93 36 14 15 12 12 16 27 14 10 11 11 13 11 11 8 10 10 8 8 9 9 11 18 20 19 21 19 69 67 45 35 58 54 64 81 85 87 69 50 45 51
89 90 90 53 29 14 12 12 16 20 30 16 12 13 14 10 12 10 10 10 10 9 8 9 8 11 13 14 18 19 26 27 28 32 32 39 32 50 65 67 65 56 54 52 41
89 89 77 26 14 12 12 16 20 21 15 16 13 11 11 11 13 13 14 14 15 16 14 11 13 10 11 15 17 22 26 36 37 27 27 31 28 42 40 43 49 47 45 42 36
94 95 64 22 14 14 18 22 24 18 17 14 12 12 13 11 13 13 14 14 12 12 10 11 15 13 12 15 18 21 21 33 51 38 25 26 29 41 30 32 32 34 36 32 34
95 31 17 14 14 16 21 23 20 17 15 14 12 13 14 11 12 13 13 12 12 13 17 12 13 10 10 10 13 16 21 17 25 55 46 35 29 44 26 29 30 30 35 38 38
32 13 13 14 16 18 21 28 18 15 14 13 20 16 18 13 12 13 13 11 13 12 12 18 17 11 10 10 9 12 12 17 18 35 40 27 33 36 39 32 30 27 30 37 37
29 14 12 12 14 20 18 18 15 14 15 15 14 14 15 15 16 14 22 17 13 14 14 14 14 16 12 13 12 11 13 13 12 14 19 22 28 35 39 31 31 29 27 33 44
16 17 10 12 19 13 15 16 37 13 13 14 14 14 16 17 16 15 18 23 16 12 16 13 13 19 15 10 8 8 10 11 13 21 14 14 48 28 27 27 28 28 28 33 46
20 13 10 11 18 15 17 15 15 14 14 14 15 15 16 17 22 17 17 18 18 15 19 17 15 20 18 13 12 12 12 10 8 10 17 14 26 29 33 36 35 31 31 36 44
16 16 13 11 11 14 18 18 17 13 15 15 16 15 16 18 18 22 18 15 16 15 47 29 15 18 27 26 21 17 13 12 11 13 13 12 17 31 31 39 41 40 36 37 44
14 14 15 14 12 14 14 14 15 16 12 13 18 16 18 23 20 21 17 16 16 41 24 16 22 19 20 19 16 17 13 12 16 15 16 13 12 13 26 33 43 47 51 52 57
21 15 11 12 14 14 22 16 13 12 13 13 14 11 15 23 24 31 19 19 20 19 19 15 24 33 30 16 17 17 16 18 14 13 13 12 13 14 27 34 43 58 64 67 68
20 16 16 26 14 13 14 15 14 13 14 11 13 12 13 19 18 17 14 15 19 23 24 23 22 24 29 15 17 20 17 15 15 14 14 16 14 26 29 35 42 56 69 72 67

GFSSW_sfc_rhum_108.txt.gz
RH
76 75 75 75 74 74 74 74 75 76 75 76 77 78 80 81 83 44 21 20 21 67 71 20 30 32 27 35 51 68 82 86 52 41 33 23 38 33 33 36 28 27 30 32 24
79 77 75 74 73 74 74 74 73 75 76 76 77 79 80 82 44 26 29 52 63 67 36 32 34 30 35 37 43 76 98 68 48 34 30 29 37 35 39 29 36 30 30 27 24
77 77 76 76 76 75 74 74 75 74 76 76 78 78 80 71 36 15 58 56 52 47 26 24 27 30 35 33 50 56 95 88 58 40 30 34 42 26 30 38 35 36 31 26 26
78 79 78 78 74 74 74 74 75 76 76 77 78 78 80 48 24 20 57 59 57 11 26 21 25 35 36 41 37 52 88 74 78 35 42 27 24 26 26 32 28 31 29 26 27
79 79 77 77 77 78 77 76 77 76 76 77 76 78 52 32 17 25 64 52 13 11 22 19 22 31 41 38 38 60 49 58 55 39 34 24 26 35 32 32 29 31 30 27 25
84 81 81 80 80 79 78 78 79 78 77 76 76 79 41 27 8 25 16 15 7 14 18 15 16 21 33 39 57 48 46 45 41 42 58 32 34 26 31 27 30 30 29 26 24
85 84 84 82 82 80 80 82 81 80 78 78 76 51 30 19 9 11 13 7 6 12 16 13 12 17 25 46 35 42 57 48 60 55 67 41 40 32 27 26 30 29 27 25 23
87 86 85 83 84 83 83 84 83 82 81 79 76 40 29 8 9 14 11 8 5 9 12 10 9 10 19 34 33 50 57 66 57 61 77 51 67 33 28 29 30 26 24 25 24
88 87 86 86 85 86 88 86 84 83 81 76 58 37 20 18 10 12 10 10 10 10 10 8 8 13 19 44 44 64 91 74 82 84 76 60 65 39 27 28 29 25 24 24 26
90 90 89 89 88 88 90 88 78 81 68 38 31 28 18 11 9 10 10 10 10 11 12 12 13 17 24 44 53 82 86 82 88 90 88 62 60 37 28 28 27 26 24 26 28
90 90 91 92 90 90 72 40 45 40 33 24 17 15 11 8 10 8 7 11 12 11 14 12 14 19 26 28 42 47 64 86 95 87 87 85 86 64 45 33 39 27 28 31 30
90 91 92 91 90 91 64 28 13 12 18 18 9 10 10 10 14 10 8 10 12 13 11 10 11 11 16 27 43 47 71 94 91 87 88 94 87 88 74 68 39 48 34 31 35
91 92 92 91 89 71 22 17 10 10 19 10 8 9 10 9 12 11 9 8 10 10 10 11 8 7 9 18 62 71 73 84 84 82 88 89 94 94 79 70 65 65 51 47 40
91 91 87 91 72 16 15 11 9 11 24 13 10 11 10 9 11 9 8 8 9 9 7 8 8 7 8 16 23 68 50 53 73 80 82 65 91 91 87 80 64 61 54 48 50
91 86 86 90 48 17 13 8 9 13 45 12 9 10 9 12 10 10 8 8 10 8 7 8 8 9 9 20 18 49 39 43 61 73 57 75 69 85 89 85 73 63 52 46 64
88 90 86 55 43 17 9 9 12 23 52 15 10 12 13 11 11 10 10 9 8 10 7 7 6 7 8 12 15 27 41 46 62 85 95 62 60 65 80 66 57 47 42 47 45
89 89 81 36 17 9 10 13 23 29 19 14 12 10 11 11 11 12 11 13 15 17 13 8 10 9 10 13 16 21 44 51 76 95 62 37 59 56 59 53 47 47 42 52 53
93 95 63 24 16 11 14 23 37 25 13 11 10 10 14 10 12 12 13 14 12 12 10 12 12 11 9 12 16 19 22 29 48 45 79 74 44 38 42 38 41 44 40 50 52
94 29 25 15 14 13 19 30 27 16 12 11 10 12 17 11 13 12 13 11 10 11 16 20 11 8 10 10 14 18 21 16 40 49 36 59 48 38 38 36 41 43 46 40 42
40 22 11 9 11 15 23 27 15 11 10 11 20 17 23 17 10 12 14 10 14 12 10 18 23 9 9 9 10 13 13 18 17 47 50 55 53 88 46 42 41 47 46 41 37
28 21 7 8 12 19 26 16 13 10 12 14 17 16 18 17 16 16 19 16 14 14 12 14 20 19 11 12 12 10 14 15 13 17 28 66 73 71 48 38 34 41 42 42 35
19 25 8 10 19 16 15 13 31 11 9 12 11 13 16 18 15 16 18 19 14 13 15 13 16 26 17 10 9 9 10 12 16 25 19 24 46 44 66 70 48 30 40 42 38
24 16 7 10 19 15 14 13 12 13 12 12 13 13 14 16 21 22 18 20 14 12 22 19 19 20 19 16 11 11 10 9 9 10 22 17 34 49 55 66 34 30 36 41 43
26 18 12 11 10 13 16 16 15 11 13 13 15 13 14 16 15 27 29 12 13 11 49 28 18 20 26 37 25 19 10 10 12 12 13 12 37 36 40 34 34 34 40 45 50
20 19 14 16 12 13 14 14 13 14 11 11 15 14 15 21 28 24 18 14 14 34 18 14 23 19 25 20 19 21 19 16 13 13 15 14 17 32 32 33 31 37 41 50 51
27 21 12 11 14 14 20 15 12 11 12 12 13 10 10 19 21 26 20 20 26 20 18 15 23 21 25 20 18 18 17 19 14 11 13 14 16 25 49 53 40 44 56 55 55
18 16 16 25 12 13 14 13 13 12 12 10 11 13 11 16 16 15 15 14 17 27 38 32 21 25 27 20 18 24 17 19 16 14 13 15 31 22 43 67 88 57 60 64 61

GFSSW_sfc_rhum_114.txt.gz
RH
76 77 76 76 75 77 77 77 77 78 79 79 80 81 83 85 86 65 45 28 35 50 65 27 26 23 36 57 67 76 91 86 70 64 60 43 41 43 37 45 41 41 50 58 57
77 76 76 77 79 78 77 78 78 78 79 80 81 82 82 86 80 58 41 54 58 60 28 31 28 31 55 59 66 78 98 90 79 79 67 42 43 38 41 41 43 46 56 52 53
82 82 82 80 79 78 78 79 80 80 80 80 81 81 82 85 69 36 58 55 66 64 23 27 33 34 53 53 64 72 93 87 69 67 73 54 41 37 42 47 41 57 57 55 54
84 85 86 85 81 80 81 80 82 82 82 81 80 80 82 86 43 24 59 61 66 36 19 27 38 44 48 51 51 86 82 85 74 66 76 65 43 49 43 47 37 45 53 54 56
87 88 88 87 86 84 84 84 84 84 83 81 80 80 86 68 43 27 66 60 33 15 11 23 42 41 56 48 58 77 79 72 75 73 68 69 55 49 50 43 37 45 47 51 56
89 90 89 88 87 86 86 88 87 86 84 81 79 80 85 45 23 39 38 36 22 10 10 14 35 30 45 49 56 72 79 78 78 78 78 63 51 47 50 39 37 36 37 44 50
90 90 91 89 86 86 87 87 86 85 83 82 80 69 67 32 26 39 36 32 15 10 14 14 19 33 24 56 54 74 85 81 83 91 80 66 53 54 41 34 38 36 36 41 49
90 90 90 87 86 88 90 90 88 86 83 82 79 81 54 26 29 22 24 16 12 11 12 20 21 26 23 54 59 80 76 97 95 82 70 68 84 52 40 39 44 37 37 49 47
91 91 90 90 91 93 92 90 86 82 83 79 92 82 53 33 18 18 16 12 10 10 13 12 22 25 21 58 78 88 95 90 82 82 79 73 76 59 42 42 46 41 39 48 45
91 91 91 92 94 94 93 89 81 82 79 65 52 60 38 25 14 12 14 14 9 10 12 16 24 25 28 47 80 90 90 84 89 91 82 88 86 71 46 44 42 43 40 40 42
91 91 92 94 94 95 95 67 52 57 75 45 41 35 24 18 13 14 12 17 13 20 28 25 27 32 28 32 59 69 73 87 88 90 91 92 86 84 76 64 53 46 39 40 43
92 92 93 92 90 89 93 54 36 35 31 36 35 34 25 14 19 16 14 20 21 25 25 26 31 23 27 51 58 64 86 89 88 90 87 94 90 89 82 78 80 67 49 42 46
92 91 88 88 88 92 75 44 27 23 35 23 30 30 22 13 17 17 12 14 26 30 24 27 21 18 38 62 56 67 76 84 86 86 91 92 94 93 77 78 72 70 66 42 42
93 86 87 88 78 69 45 31 29 24 44 31 18 13 12 14 16 12 12 14 18 24 22 20 15 15 15 62 63 81 61 66 81 79 90 85 96 90 87 74 75 71 67 51 41
93 91 86 87 94 49 25 28 22 27 60 25 17 14 16 17 17 16 13 16 19 18 19 16 12 14 15 57 52 68 58 65 68 86 86 85 90 83 83 76 70 69 64 62 59
93 93 89 90 98 64 44 34 24 39 53 30 16 16 22 19 15 15 14 14 15 16 18 17 11 11 15 44 42 56 71 72 79 91 95 76 86 78 84 66 50 55 63 62 60
94 93 90 62 44 37 29 34 53 50 28 26 22 19 22 20 17 18 19 21 22 35 31 21 15 24 45 68 68 69 86 99 96 93 90 79 89 68 67 65 56 48 59 62 62
92 95 92 64 56 42 34 42 64 38 34 23 15 19 25 22 19 18 20 21 18 25 28 30 22 26 30 58 78 68 75 90 85 87 81 80 88 72 50 50 50 49 48 52 59
95 92 68 48 54 39 41 59 46 26 17 22 24 26 23 21 26 19 24 21 20 19 25 36 30 22 23 31 52 64 67 50 71 65 70 84 70 68 59 57 59 53 45 49 52
72 59 42 31 38 36 48 57 29 16 17 21 33 31 37 30 26 28 32 27 26 21 26 30 35 31 22 19 41 42 39 50 56 75 73 83 64 77 69 69 59 54 50 42 58
64 37 27 31 29 43 52 50 23 13 17 22 25 35 31 33 31 38 32 23 22 19 27 47 42 31 25 24 21 21 29 31 36 55 60 82 72 66 59 67 64 58 49 48 58
70 46 32 23 35 50 48 24 30 16 16 19 19 29 31 23 32 37 35 31 21 21 34 34 42 45 30 23 25 20 24 29 35 33 37 61 42 50 59 62 68 71 63 56 59
67 54 28 22 33 38 33 17 18 16 18 19 21 21 22 38 38 36 31 22 20 27 33 28 47 55 39 32 32 38 33 48 31 32 25 29 27 58 54 58 71 72 66 68 61
72 51 43 33 32 45 32 29 23 15 16 17 20 19 22 38 44 45 34 28 19 23 53 37 41 49 53 41 43 41 32 31 35 35 32 26 39 63 78 93 91 88 54 63 61
80 48 44 51 28 39 33 22 18 22 16 18 20 18 24 22 41 44 39 32 25 38 26 24 32 40 33 29 28 31 31 30 37 48 40 40 79 88 97 89 80 87 73 84 82
59 65 63 64 37 27 44 26 18 19 19 21 20 17 19 38 47 48 34 36 39 29 52 41 38 58 46 26 27 28 37 56 55 59 72 81 98 92 86 80 83 93 89 89 90
75 70 68 64 53 53 30 20 23 22 24 19 18 18 22 26 24 29 28 37 54 62 53 55 59 61 57 36 32 52 48 60 68 80 86 94 92 88 90 94 98 96 91 89 93

GFSSW_sfc_rhum_117.txt.gz
RH
80 80 77 76 78 79 78 75 76 77 78 78 79 81 84 85 86 76 42 27 37 53 64 28 37 27 35 62 70 76 89 89 72 64 65 49 50 48 47 55 49 50 62 61 73
79 79 81 81 81 79 78 77 77 77 78 79 81 82 83 85 88 65 39 50 56 59 33 27 29 33 56 70 73 82 95 77 76 77 69 44 46 47 51 51 61 60 61 62 68
85 85 84 80 79 80 80 80 79 78 80 80 81 82 83 86 67 26 54 59 62 65 22 27 35 39 58 60 71 76 90 73 67 66 69 73 51 40 50 56 62 76 70 69 62
87 87 87 86 84 81 80 81 82 82 82 82 82 82 84 94 32 28 59 61 67 39 17 29 40 50 58 68 63 80 76 82 71 66 73 70 60 49 43 49 53 61 62 60 65
87 88 89 88 87 86 85 83 85 87 83 83 82 82 87 60 32 32 72 60 52 19 13 26 46 49 58 61 63 72 77 74 74 75 75 63 63 55 50 50 52 55 58 61 62
88 89 89 89 87 86 87 88 87 86 84 82 81 81 84 28 19 42 52 42 24 12 11 26 39 37 45 50 60 67 78 74 73 75 76 71 60 57 53 46 55 57 58 58 60
88 89 88 88 86 86 88 89 88 87 85 82 80 73 70 18 32 37 31 28 27 12 12 15 22 33 35 58 69 75 84 81 84 83 85 73 73 62 48 50 57 57 57 57 59
89 88 88 87 87 89 90 91 89 86 85 82 80 84 52 25 31 25 42 20 18 19 12 21 20 30 33 60 67 71 90 87 91 88 77 80 83 64 46 46 58 51 55 56 56
91 89 89 89 90 92 94 93 87 82 83 80 91 81 46 39 30 27 32 14 14 13 15 10 22 29 32 70 90 84 95 93 89 90 87 81 80 64 45 42 44 42 45 49 55
92 92 92 92 90 90 92 87 80 83 80 70 59 57 32 23 19 20 23 11 11 11 12 16 25 28 33 52 75 90 96 87 93 89 93 82 80 66 57 46 44 48 55 56 56
92 93 90 89 89 88 93 72 43 44 78 41 35 30 27 22 16 15 13 17 16 19 25 30 31 34 27 34 58 69 81 91 90 86 94 91 93 84 73 64 60 54 56 57 54
93 89 87 88 88 89 90 33 34 40 35 39 39 39 32 30 21 18 17 23 23 25 31 30 34 25 25 44 63 78 81 89 85 86 93 94 92 92 86 78 76 79 54 51 60
94 94 87 86 89 91 67 39 32 41 41 26 32 33 28 20 18 20 16 20 28 29 29 34 26 21 52 65 71 75 74 87 84 87 84 91 90 94 86 79 76 75 72 46 56
93 93 86 89 76 75 45 48 32 31 45 29 18 18 15 16 18 13 12 15 19 26 28 27 20 20 66 65 66 82 66 68 87 83 89 87 94 92 90 84 77 72 72 60 57
92 90 92 88 83 37 27 42 44 30 45 23 24 14 18 18 19 17 15 17 20 21 20 21 18 21 24 61 56 66 63 71 76 90 87 88 97 88 88 89 80 70 70 65 60
92 91 87 90 97 61 54 42 26 40 48 30 19 18 23 21 19 18 18 15 17 21 23 19 16 13 19 33 51 59 70 76 79 89 93 77 96 88 93 83 67 59 62 67 58
91 94 90 68 35 49 35 38 43 48 32 27 28 21 24 22 21 22 21 22 22 30 32 23 22 57 54 74 69 73 81 97 94 94 86 82 87 80 62 59 52 48 59 63 60
92 96 93 72 61 41 38 42 48 36 40 26 25 24 25 23 23 22 24 25 23 23 28 31 48 57 47 64 78 72 74 88 90 90 78 86 86 72 49 50 46 44 49 54 64
93 84 77 55 70 48 42 54 35 26 19 24 27 33 35 29 29 24 25 23 26 22 26 36 32 20 44 56 52 70 76 59 66 79 78 83 73 57 57 57 59 55 42 54 58
79 60 43 44 41 38 47 60 48 18 19 23 38 35 42 33 28 30 35 30 28 23 25 35 37 30 27 50 53 59 51 67 70 79 78 74 73 70 77 70 69 65 50 53 52
64 39 31 44 34 43 49 52 35 16 16 22 32 33 37 34 36 40 36 28 24 19 28 45 45 35 29 35 59 35 40 43 54 65 64 76 66 62 69 72 71 70 53 50 57
62 30 32 32 36 61 50 41 29 19 19 21 22 28 28 35 38 36 35 27 24 32 28 35 45 47 37 28 30 27 32 33 36 36 53 55 35 66 78 82 77 77 74 58 54
67 64 40 30 45 39 37 26 20 19 23 22 23 23 36 43 45 41 36 26 23 28 30 28 49 72 51 36 31 40 41 59 36 37 33 29 31 82 88 97 92 73 70 74 72
63 42 45 41 39 41 33 27 23 16 17 18 21 18 24 26 45 43 37 29 25 24 48 42 50 57 65 45 42 41 36 40 42 51 49 33 76 91 82 94 86 91 86 88 74
75 50 60 62 54 41 34 23 23 21 18 20 20 20 20 45 46 44 35 29 25 42 33 27 37 54 42 47 34 37 58 62 66 78 55 83 95 96 94 93 93 85 80 86 93
65 78 78 73 62 55 41 28 20 20 20 24 20 21 33 43 44 46 38 33 41 34 48 50 45 52 36 33 34 62 61 65 73 83 89 93 94 90 87 89 90 94 89 86 92
79 81 79 73 67 61 53 28 19 23 28 16 18 19 29 27 25 31 41 64 72 67 56 62 58 58 55 44 37 53 70 76 81 89 90 92 91 85 91 95 98 96 95 93 94

GFSSW_sfc_rhum_120.txt.gz
RH
77 77 79 80 78 78 74 76 75 75 77 77 77 79 82 85 86 82 39 26 36 63 51 50 36 29 40 70 75 73 83 85 74 65 65 55 58 56 55 59 54 58 71 76 86
83 83 82 79 77 78 77 77 79 78 78 78 80 81 83 85 93 66 37 42 54 59 26 31 28 39 62 74 70 81 86 78 76 78 74 51 52 56 60 62 71 73 75 82 76
86 86 86 84 83 82 80 78 78 81 80 82 82 82 84 89 70 22 51 54 62 62 23 32 35 43 63 78 76 79 82 76 77 73 72 72 54 49 57 69 68 78 85 84 76
86 87 87 87 85 85 84 84 80 82 82 82 83 83 85 94 26 32 63 62 66 61 20 31 44 54 66 74 71 80 77 75 76 73 73 68 63 51 52 62 56 67 71 76 73
87 88 88 88 88 86 86 87 87 83 84 83 82 83 85 44 26 34 69 64 50 26 18 36 49 52 61 68 68 74 78 73 77 74 75 69 69 55 54 60 60 64 69 73 70
88 89 89 88 87 86 86 88 88 86 83 83 82 82 81 20 21 52 56 47 27 15 14 40 47 49 50 48 76 72 80 79 81 80 75 79 66 56 60 61 64 65 69 68 69
88 88 88 88 87 87 88 89 88 87 85 83 81 75 60 14 36 43 37 41 27 15 12 14 38 34 38 71 69 73 83 85 91 83 80 79 69 72 62 61 66 66 67 66 66
88 88 88 88 88 89 89 91 90 86 84 83 80 84 47 23 34 32 42 26 20 18 15 20 22 31 36 69 72 79 84 93 95 82 81 76 90 81 58 61 68 65 64 64 65
90 90 90 90 89 88 89 90 85 84 82 80 88 76 32 41 34 32 38 14 15 17 15 10 24 30 48 78 89 85 96 91 93 91 92 84 90 71 59 55 66 65 64 64 66
92 92 89 89 87 87 90 86 83 85 82 72 62 52 29 26 26 25 31 10 12 13 14 17 28 31 37 52 69 88 92 85 93 90 90 85 89 69 58 57 62 64 64 65 64
92 94 92 87 86 87 92 76 41 44 78 51 38 32 27 26 19 21 23 22 18 20 27 30 34 36 28 33 56 79 80 86 89 91 96 90 92 76 72 59 57 58 57 61 62
93 94 90 87 87 86 94 27 37 38 36 37 44 41 36 35 24 20 18 24 28 31 32 32 39 27 25 37 65 80 83 91 90 86 96 96 93 88 88 81 66 63 68 61 63
92 92 87 86 90 89 66 40 34 40 43 28 36 37 30 30 21 21 20 24 29 32 32 36 31 23 57 70 72 74 75 89 87 91 87 92 96 97 83 85 77 78 64 60 63
92 89 87 90 70 72 38 50 42 38 39 26 21 20 20 18 20 16 16 16 21 29 29 32 24 37 72 73 71 71 69 75 88 82 96 87 96 92 91 89 79 76 76 60 59
92 88 88 89 60 28 26 51 52 30 43 23 26 15 19 20 20 20 17 17 21 24 22 24 20 27 76 64 62 79 72 78 80 92 90 97 94 82 86 92 84 74 76 70 59
91 92 87 91 94 51 57 49 30 37 48 30 26 20 24 22 20 20 19 16 20 22 26 22 20 18 27 46 55 63 75 78 85 88 88 82 81 82 96 80 74 69 70 71 63
92 94 92 70 31 52 42 38 34 46 33 27 30 21 26 26 23 25 22 26 25 42 33 25 30 67 64 80 71 77 83 93 92 92 84 80 88 75 65 68 63 62 64 70 63
93 96 92 76 70 56 39 28 39 30 36 30 30 28 30 27 26 24 27 28 25 28 30 34 41 70 58 79 85 81 80 89 91 90 81 88 95 68 56 55 52 50 50 60 61
95 85 74 57 77 64 39 41 30 32 20 26 31 34 34 30 32 29 29 25 24 23 27 44 33 32 52 62 66 78 80 68 78 70 76 80 75 58 61 54 54 50 49 62 59
81 55 40 46 52 38 43 58 51 31 20 28 38 38 42 35 33 37 41 33 28 23 25 38 37 35 48 53 61 68 65 68 76 79 81 67 74 76 76 69 65 61 55 56 60
60 34 34 51 39 40 46 55 40 24 20 25 36 37 39 38 39 45 43 31 29 26 31 45 46 38 36 59 65 58 59 52 57 60 58 72 56 82 96 83 71 68 62 59 67
54 34 35 33 37 67 50 46 37 21 20 23 25 29 35 40 43 40 39 32 28 32 30 43 46 47 41 34 36 46 36 38 46 42 58 55 43 84 92 98 80 78 67 64 67
60 60 45 35 44 45 40 27 25 21 23 26 24 30 39 47 51 44 38 28 28 28 32 32 48 65 52 46 36 45 46 55 39 41 41 33 44 75 87 89 94 83 78 71 72
59 40 48 50 49 48 45 32 27 19 20 20 21 20 26 38 49 41 33 30 26 37 52 44 50 54 66 52 44 46 41 44 43 39 36 37 86 84 88 92 93 89 93 78 74
71 55 66 62 58 65 61 30 27 22 20 21 22 24 24 60 58 43 40 25 25 42 42 28 43 46 48 49 39 47 64 74 86 87 57 82 84 91 96 96 95 90 86 89 90
89 93 86 82 75 67 48 28 21 22 19 25 20 26 38 48 40 40 38 34 36 40 52 52 42 59 39 37 47 68 69 69 84 88 81 82 91 86 90 93 90 93 94 94 96
80 85 88 80 73 60 52 49 25 29 25 17 20 27 32 27 30 40 52 70 72 69 60 61 54 50 48 47 46 50 68 81 86 92 90 94 91 88 95 96 99 96 94 97 97

GFSSW_sfc_rhum_123.txt.gz
RH
78 79 82 78 77 77 77 76 78 78 78 79 79 81 82 85 84 60 20 22 30 58 56 34 23 26 35 56 59 58 67 64 55 50 51 45 52 48 46 48 46 52 47 50 64
83 83 83 84 83 82 80 79 78 78 80 80 82 82 83 85 66 38 32 38 49 68 25 19 26 36 47 54 56 72 77 67 77 66 47 43 49 55 50 48 62 64 61 62 64
85 86 86 86 84 84 84 84 82 79 79 81 82 82 84 80 42 16 53 50 60 50 16 26 30 39 50 52 57 64 74 74 76 62 51 45 46 45 52 50 56 58 64 62 60
86 86 87 86 85 85 85 85 84 83 80 82 83 83 85 72 22 23 65 64 64 38 15 31 37 45 52 57 58 65 68 67 74 64 58 54 51 48 51 44 44 50 56 58 60
87 88 88 88 87 86 86 86 86 85 82 82 82 83 62 18 14 27 67 60 40 21 19 35 43 42 48 50 57 62 71 73 74 66 60 58 56 48 47 51 47 52 56 57 57
88 88 88 88 88 87 87 86 88 86 84 83 82 82 45 16 21 44 45 22 15 12 12 33 39 40 32 46 63 68 70 77 74 74 60 63 56 43 49 52 53 56 54 53 54
88 88 88 88 88 87 88 86 88 88 85 82 81 67 28 16 30 33 25 23 15 11 10 17 24 26 24 62 60 64 77 73 84 86 72 65 62 53 51 48 55 53 54 53 51
89 89 88 88 87 86 86 88 88 87 84 82 80 62 22 16 23 25 24 17 16 11 10 11 22 20 32 52 56 64 65 77 82 91 79 68 65 58 50 49 53 52 53 55 52
90 89 88 87 86 85 87 89 83 83 81 79 64 47 20 37 25 24 24 11 15 11 11 11 15 21 51 49 54 66 74 77 86 85 91 74 65 66 52 46 51 52 51 51 53
92 92 87 86 86 85 89 87 84 81 75 64 54 34 18 20 18 24 24 9 9 9 10 14 19 20 35 35 46 57 75 72 82 87 91 77 79 67 56 61 57 50 50 51 50
92 92 87 88 85 87 74 49 29 28 45 26 24 24 21 20 14 20 19 15 11 13 18 21 24 26 21 26 28 39 68 68 78 84 87 91 78 68 59 54 54 51 52 51 49
92 89 86 85 86 91 71 22 24 23 25 24 30 31 27 25 16 15 16 18 19 19 22 26 29 20 19 22 40 50 66 75 78 81 86 93 78 74 65 60 55 52 50 50 46
92 87 86 88 91 69 39 22 25 24 24 20 22 24 20 22 15 15 14 18 20 22 21 31 20 18 22 31 48 52 54 76 72 82 81 90 88 84 90 78 61 49 44 42 44
92 86 87 91 59 41 23 30 28 28 22 21 15 17 17 12 14 13 14 13 17 21 21 20 17 26 31 30 44 49 50 60 77 71 80 82 90 89 91 81 70 53 47 41 42
91 88 87 91 29 17 23 30 27 23 27 19 18 10 12 13 13 13 11 12 17 18 17 20 14 28 33 28 47 53 52 58 60 66 70 82 86 72 83 79 68 59 53 41 39
92 92 87 73 59 30 37 26 23 23 30 22 19 14 15 14 14 14 13 12 13 15 16 16 14 14 18 43 41 53 55 60 61 67 73 55 68 59 75 66 61 60 52 49 40
92 95 85 56 20 34 30 25 23 26 24 22 20 15 17 20 16 16 17 17 17 20 21 18 18 41 36 45 50 51 55 69 72 69 62 65 72 53 50 51 49 55 58 51 46
95 93 84 58 46 39 26 22 29 21 22 19 21 20 21 21 19 17 18 18 17 17 18 20 29 46 46 38 43 47 33 47 62 68 57 67 65 45 46 45 41 42 53 45 46
94 58 44 34 51 44 25 22 21 19 15 18 20 22 22 21 21 20 19 18 17 16 21 21 23 41 44 47 41 52 47 40 44 46 44 48 48 48 49 51 50 44 53 50 48
53 34 29 36 36 27 27 41 31 26 14 19 24 25 26 24 23 23 26 22 20 18 17 23 27 27 47 43 46 47 43 55 45 55 55 40 51 51 73 77 59 55 53 50 47
35 26 29 34 29 27 28 30 29 22 17 17 23 22 24 26 27 28 28 22 22 20 21 22 27 30 41 47 45 51 48 48 39 43 40 40 42 72 85 84 65 53 44 41 48
31 26 27 26 28 40 28 30 38 15 15 16 18 20 26 29 29 28 27 25 22 22 18 25 24 27 28 24 24 34 33 39 37 40 37 37 35 66 79 74 72 60 51 42 44
38 36 31 24 28 30 28 22 20 15 14 16 17 23 27 30 32 29 26 21 21 20 21 22 30 35 32 25 24 28 29 26 22 24 32 26 27 61 69 74 76 75 62 53 67
42 28 35 35 32 28 29 22 18 14 14 15 15 18 20 27 30 28 23 20 19 31 48 40 30 34 30 33 28 31 37 34 22 24 23 19 43 68 73 79 77 72 71 59 62
50 38 46 37 38 40 38 24 19 16 14 15 18 15 20 28 29 28 24 19 19 41 33 22 31 32 28 31 30 45 48 53 47 51 34 32 54 70 76 80 80 75 79 80 74
60 63 56 53 56 44 37 22 18 15 15 15 16 20 23 27 30 28 25 24 23 26 34 32 33 39 27 28 30 45 40 42 60 62 62 61 66 67 79 81 86 86 92 95 96
54 60 66 64 49 38 36 36 20 18 18 14 16 21 22 21 24 27 29 41 38 37 36 38 34 35 31 35 33 38 37 35 53 66 61 72 63 72 82 88 95 92 94 95 95

GFSSW_sfc_rhum_126.txt.gz
RH
80 82 83 82 82 81 80 80 78 78 78 79 80 81 82 84 82 37 13 18 23 47 55 18 20 26 29 38 39 38 43 43 36 36 42 35 39 40 34 36 31 35 29 33 40
84 85 85 85 84 83 83 83 82 81 79 80 81 82 82 84 33 15 28 33 44 62 19 16 25 28 31 37 36 41 44 54 59 39 35 34 40 37 34 33 41 38 33 38 39
85 85 86 85 84 84 84 84 83 82 82 80 82 82 83 70 26 17 56 44 53 45 13 14 24 29 36 34 39 46 53 68 76 41 31 35 39 38 31 35 38 44 41 38 39
86 87 87 86 85 85 85 85 84 83 82 81 82 82 84 40 16 16 57 58 54 19 16 21 28 33 38 40 39 50 52 54 72 46 37 37 33 50 35 32 31 33 35 38 38
87 87 87 87 87 86 85 86 86 86 84 83 82 82 50 18 16 24 58 52 18 12 22 26 30 34 38 35 40 47 53 57 66 54 44 40 39 38 39 34 30 33 35 34 35
88 88 88 87 87 86 85 86 84 85 87 83 82 85 30 17 22 27 19 13 10 9 21 26 30 30 29 40 43 48 51 69 73 67 49 43 40 34 36 32 34 34 34 34 34
88 88 86 86 86 87 86 86 87 87 86 83 80 49 17 20 20 18 11 8 8 8 18 25 27 22 22 44 43 48 58 59 79 81 55 49 52 40 37 32 36 33 33 35 35
88 88 86 86 85 85 85 87 88 84 84 82 79 39 15 12 16 16 13 12 11 8 10 16 21 17 25 35 39 47 48 61 64 73 64 53 48 42 36 36 36 33 33 36 36
90 89 86 85 85 85 87 88 81 82 81 78 47 29 16 30 17 15 15 7 11 9 10 11 16 19 32 30 32 44 47 56 63 68 73 54 55 46 36 34 35 32 33 35 37
92 90 86 85 85 85 89 87 85 81 63 43 33 22 15 16 13 16 10 6 7 8 12 18 21 21 28 25 30 36 42 50 59 65 72 70 59 50 40 38 36 33 30 34 36
91 86 86 85 86 88 63 34 26 24 23 16 14 15 14 13 11 13 9 7 6 9 21 24 29 26 21 24 20 22 43 51 57 65 88 93 60 54 46 41 60 35 31 33 32
90 86 85 86 90 91 51 15 18 18 15 15 17 16 15 14 12 14 13 12 9 10 13 25 27 22 18 17 20 26 40 52 59 62 84 93 70 64 57 48 58 38 31 31 29
90 85 88 89 88 64 19 17 15 16 14 13 13 13 12 13 12 13 13 12 11 14 14 19 20 19 18 20 24 28 34 39 47 68 74 87 76 81 60 50 44 41 31 28 28
91 87 88 91 56 16 16 17 16 17 14 15 11 13 11 10 12 10 11 11 12 12 16 19 14 18 21 22 22 28 34 37 46 60 69 79 89 80 58 62 58 44 37 28 27
91 92 90 93 20 12 18 14 15 16 20 14 11 9 9 10 11 12 10 10 14 13 15 18 18 19 17 19 23 32 33 34 41 39 45 72 71 64 61 75 64 47 39 31 26
92 93 90 49 26 17 16 15 16 19 25 16 13 11 12 11 11 10 11 10 11 12 12 12 11 12 12 16 22 32 35 37 42 37 51 42 45 57 64 65 64 42 38 35 28
94 95 76 30 13 15 15 17 19 17 16 15 13 11 13 14 13 12 13 13 13 15 14 12 11 11 13 18 26 32 35 29 52 48 47 36 40 38 41 39 58 42 38 37 34
95 92 70 28 21 21 16 18 23 16 15 13 13 13 15 14 14 13 13 13 12 12 12 13 19 16 16 16 22 28 22 22 51 50 39 43 48 49 41 42 33 30 33 34 32
95 32 22 19 23 23 18 16 16 14 12 14 13 15 15 14 15 14 14 12 13 13 17 14 15 22 25 24 20 24 32 17 25 27 30 30 30 37 38 48 40 35 32 36 36
29 18 18 20 20 19 17 28 16 14 12 12 15 15 16 16 16 16 17 16 15 14 13 17 20 22 30 30 31 30 22 25 23 52 48 33 32 37 49 60 52 39 34 40 36
25 18 20 18 19 18 16 16 15 12 13 13 15 16 16 18 17 17 18 16 15 15 15 14 17 24 31 33 26 34 32 27 28 41 64 43 32 43 56 58 60 47 46 44 41
18 18 19 17 19 17 14 16 36 12 12 12 13 13 17 18 18 19 19 18 16 14 16 15 14 19 19 17 21 27 26 30 30 47 29 44 37 46 60 55 57 48 45 46 44
20 18 18 17 19 16 18 14 14 12 12 13 13 13 16 17 22 19 19 16 15 14 18 15 16 22 20 19 20 20 20 19 21 27 38 32 38 47 51 54 57 53 49 46 40
28 19 20 20 19 18 19 17 15 13 11 11 12 13 14 16 16 19 16 16 15 18 49 30 15 23 32 36 21 24 22 22 18 20 24 26 24 48 56 58 58 57 52 46 47
25 19 33 22 20 20 22 18 16 14 11 11 14 13 13 16 15 15 14 15 15 33 25 16 22 21 17 20 20 19 20 25 22 24 28 24 27 48 62 70 72 80 79 71 74
36 40 31 29 35 27 32 21 16 14 13 14 15 12 13 18 16 16 16 16 18 18 20 18 25 23 22 17 20 24 24 24 27 29 31 32 32 43 60 72 75 86 92 94 94
26 33 44 41 28 25 19 18 15 13 13 11 12 13 15 13 14 15 14 17 18 23 22 23 21 27 25 21 19 24 23 22 22 28 29 30 39 47 56 72 88 82 86 92 94